<?xml version="1.0" encoding="UTF-8" standalone="no" ?>
<gpx xmlns="http://www.topografix.com/GPX/1/1" xmlns:xsi="http://www.w3.org/2001/XMLSchema-instance" xsi:schemaLocation="http://www.topografix.com/GPX/1/1 http://www.topografix.com/GPX/1/1/gpx.xsd" version="1.1" creator="VisuGPX - https://www.visugpx.com">
  <metadata>
    <name>EQUIODEE fORET DE COMBOTS</name>
  </metadata>
  <trk>
    <name><![CDATA[EQUIODEE fORET DE COMBOTS]]></name>
    <extensions>
      <line xmlns="http://www.topografix.com/GPX/gpx_style/0/2">
        <color>0000FF</color>
        <width>3</width>
      </line>
    </extensions>
    <trkseg>
      <trkpt lat="45.68642" lon="-1.16218">
        <ele>5.9</ele>
      </trkpt>
      <trkpt lat="45.6863" lon="-1.16123">
        <ele>6.1</ele>
      </trkpt>
      <trkpt lat="45.68633" lon="-1.16065">
        <ele>6</ele>
      </trkpt>
      <trkpt lat="45.68646" lon="-1.16022">
        <ele>6.4</ele>
      </trkpt>
      <trkpt lat="45.68672" lon="-1.16012">
        <ele>5.5</ele>
      </trkpt>
      <trkpt lat="45.68696" lon="-1.15994">
        <ele>5.4</ele>
      </trkpt>
      <trkpt lat="45.68702" lon="-1.15964">
        <ele>7.1</ele>
      </trkpt>
      <trkpt lat="45.68714" lon="-1.15924">
        <ele>7.3</ele>
      </trkpt>
      <trkpt lat="45.68718" lon="-1.15881">
        <ele>7.1</ele>
      </trkpt>
      <trkpt lat="45.68708" lon="-1.15863">
        <ele>9</ele>
      </trkpt>
      <trkpt lat="45.68702" lon="-1.15788">
        <ele>9.1</ele>
      </trkpt>
      <trkpt lat="45.68696" lon="-1.1572">
        <ele>7</ele>
      </trkpt>
      <trkpt lat="45.68708" lon="-1.15657">
        <ele>6.8</ele>
      </trkpt>
      <trkpt lat="45.68739" lon="-1.15587">
        <ele>6.3</ele>
      </trkpt>
      <trkpt lat="45.68765" lon="-1.15535">
        <ele>6.3</ele>
      </trkpt>
      <trkpt lat="45.68783" lon="-1.15486">
        <ele>4.9</ele>
        <time>2021-09-25T15:09:29.000Z</time>
      </trkpt>
      <trkpt lat="45.68761" lon="-1.15487">
        <ele>4.9</ele>
        <time>2021-09-25T15:09:22.000Z</time>
      </trkpt>
      <trkpt lat="45.68751" lon="-1.15488">
        <ele>4.9</ele>
        <time>2021-09-25T15:09:19.000Z</time>
      </trkpt>
      <trkpt lat="45.68741" lon="-1.15489">
        <ele>4.9</ele>
        <time>2021-09-25T15:09:16.000Z</time>
      </trkpt>
      <trkpt lat="45.68731" lon="-1.15493">
        <ele>4.9</ele>
        <time>2021-09-25T15:09:12.000Z</time>
      </trkpt>
      <trkpt lat="45.6872" lon="-1.15493">
        <ele>4.9</ele>
        <time>2021-09-25T15:09:09.000Z</time>
      </trkpt>
      <trkpt lat="45.68709" lon="-1.15493">
        <ele>4.9</ele>
        <time>2021-09-25T15:09:06.000Z</time>
      </trkpt>
      <trkpt lat="45.68697" lon="-1.15497">
        <ele>4.9</ele>
        <time>2021-09-25T15:09:02.000Z</time>
      </trkpt>
      <trkpt lat="45.68686" lon="-1.15497">
        <ele>4.9</ele>
        <time>2021-09-25T15:08:58.000Z</time>
      </trkpt>
      <trkpt lat="45.68678" lon="-1.15499">
        <ele>5</ele>
        <time>2021-09-25T15:08:55.000Z</time>
      </trkpt>
      <trkpt lat="45.68667" lon="-1.155">
        <ele>5</ele>
        <time>2021-09-25T15:08:52.000Z</time>
      </trkpt>
      <trkpt lat="45.68658" lon="-1.15501">
        <ele>5.4</ele>
        <time>2021-09-25T15:08:47.000Z</time>
      </trkpt>
      <trkpt lat="45.68648" lon="-1.15505">
        <ele>5.4</ele>
        <time>2021-09-25T15:08:40.000Z</time>
      </trkpt>
      <trkpt lat="45.68639" lon="-1.15507">
        <ele>5.5</ele>
        <time>2021-09-25T15:08:34.000Z</time>
      </trkpt>
      <trkpt lat="45.68629" lon="-1.15509">
        <ele>5.8</ele>
        <time>2021-09-25T15:08:28.000Z</time>
      </trkpt>
      <trkpt lat="45.68618" lon="-1.1551">
        <ele>5.9</ele>
        <time>2021-09-25T15:08:21.000Z</time>
      </trkpt>
      <trkpt lat="45.68608" lon="-1.1551">
        <ele>6.2</ele>
        <time>2021-09-25T15:08:15.000Z</time>
      </trkpt>
      <trkpt lat="45.68599" lon="-1.15511">
        <ele>6.1</ele>
        <time>2021-09-25T15:08:09.000Z</time>
      </trkpt>
      <trkpt lat="45.68588" lon="-1.15512">
        <ele>5.2</ele>
        <time>2021-09-25T15:08:02.000Z</time>
      </trkpt>
      <trkpt lat="45.6858" lon="-1.15519">
        <ele>5.2</ele>
        <time>2021-09-25T15:07:55.000Z</time>
      </trkpt>
      <trkpt lat="45.68571" lon="-1.15524">
        <ele>5.1</ele>
        <time>2021-09-25T15:07:48.000Z</time>
      </trkpt>
      <trkpt lat="45.68562" lon="-1.15525">
        <ele>5.1</ele>
        <time>2021-09-25T15:07:42.000Z</time>
      </trkpt>
      <trkpt lat="45.68553" lon="-1.15527">
        <ele>5.1</ele>
        <time>2021-09-25T15:07:35.000Z</time>
      </trkpt>
      <trkpt lat="45.68543" lon="-1.15531">
        <ele>5.1</ele>
        <time>2021-09-25T15:07:28.000Z</time>
      </trkpt>
      <trkpt lat="45.68534" lon="-1.15535">
        <ele>5.1</ele>
        <time>2021-09-25T15:07:22.000Z</time>
      </trkpt>
      <trkpt lat="45.68524" lon="-1.15533">
        <ele>5.3</ele>
        <time>2021-09-25T15:07:15.000Z</time>
      </trkpt>
      <trkpt lat="45.68518" lon="-1.15522">
        <ele>5.8</ele>
        <time>2021-09-25T15:07:09.000Z</time>
      </trkpt>
      <trkpt lat="45.68512" lon="-1.15511">
        <ele>6</ele>
        <time>2021-09-25T15:07:04.000Z</time>
      </trkpt>
      <trkpt lat="45.68504" lon="-1.15504">
        <ele>7.3</ele>
        <time>2021-09-25T15:06:55.000Z</time>
      </trkpt>
      <trkpt lat="45.68496" lon="-1.15494">
        <ele>8.5</ele>
        <time>2021-09-25T15:06:49.000Z</time>
      </trkpt>
      <trkpt lat="45.68486" lon="-1.15485">
        <ele>9.9</ele>
        <time>2021-09-25T15:06:40.000Z</time>
      </trkpt>
      <trkpt lat="45.68479" lon="-1.15478">
        <ele>10</ele>
        <time>2021-09-25T15:06:33.000Z</time>
      </trkpt>
      <trkpt lat="45.68472" lon="-1.1547">
        <ele>10.1</ele>
        <time>2021-09-25T15:06:26.000Z</time>
      </trkpt>
      <trkpt lat="45.68463" lon="-1.15461">
        <ele>10.2</ele>
        <time>2021-09-25T15:06:20.000Z</time>
      </trkpt>
      <trkpt lat="45.68455" lon="-1.15456">
        <ele>10.1</ele>
        <time>2021-09-25T15:06:14.000Z</time>
      </trkpt>
      <trkpt lat="45.68448" lon="-1.15447">
        <ele>9.4</ele>
        <time>2021-09-25T15:06:06.000Z</time>
      </trkpt>
      <trkpt lat="45.6844" lon="-1.15438">
        <ele>8.7</ele>
        <time>2021-09-25T15:06:01.000Z</time>
      </trkpt>
      <trkpt lat="45.6843" lon="-1.1543">
        <ele>7.1</ele>
        <time>2021-09-25T15:05:54.000Z</time>
      </trkpt>
      <trkpt lat="45.68421" lon="-1.15423">
        <ele>6.2</ele>
        <time>2021-09-25T15:05:46.000Z</time>
      </trkpt>
      <trkpt lat="45.68412" lon="-1.15418">
        <ele>7.2</ele>
        <time>2021-09-25T15:05:38.000Z</time>
      </trkpt>
      <trkpt lat="45.68402" lon="-1.15409">
        <ele>8.7</ele>
        <time>2021-09-25T15:05:31.000Z</time>
      </trkpt>
      <trkpt lat="45.68394" lon="-1.15403">
        <ele>8.7</ele>
        <time>2021-09-25T15:05:24.000Z</time>
      </trkpt>
      <trkpt lat="45.68386" lon="-1.15393">
        <ele>8.4</ele>
        <time>2021-09-25T15:05:18.000Z</time>
      </trkpt>
      <trkpt lat="45.68377" lon="-1.15386">
        <ele>7.2</ele>
        <time>2021-09-25T15:05:09.000Z</time>
      </trkpt>
      <trkpt lat="45.68369" lon="-1.15377">
        <ele>6.6</ele>
        <time>2021-09-25T15:05:00.000Z</time>
      </trkpt>
      <trkpt lat="45.68361" lon="-1.1537">
        <ele>5.5</ele>
        <time>2021-09-25T15:04:54.000Z</time>
      </trkpt>
      <trkpt lat="45.68353" lon="-1.15363">
        <ele>5.2</ele>
        <time>2021-09-25T15:04:48.000Z</time>
      </trkpt>
      <trkpt lat="45.68345" lon="-1.15354">
        <ele>5</ele>
        <time>2021-09-25T15:04:44.000Z</time>
      </trkpt>
      <trkpt lat="45.68337" lon="-1.15345">
        <ele>5</ele>
        <time>2021-09-25T15:04:38.000Z</time>
      </trkpt>
      <trkpt lat="45.68329" lon="-1.15337">
        <ele>5</ele>
        <time>2021-09-25T15:04:34.000Z</time>
      </trkpt>
      <trkpt lat="45.68319" lon="-1.15331">
        <ele>5</ele>
        <time>2021-09-25T15:04:25.000Z</time>
      </trkpt>
      <trkpt lat="45.68311" lon="-1.15322">
        <ele>5</ele>
        <time>2021-09-25T15:04:21.000Z</time>
      </trkpt>
      <trkpt lat="45.683" lon="-1.15318">
        <ele>5.3</ele>
        <time>2021-09-25T15:04:13.000Z</time>
      </trkpt>
      <trkpt lat="45.68291" lon="-1.15314">
        <ele>5.7</ele>
        <time>2021-09-25T15:04:05.000Z</time>
      </trkpt>
      <trkpt lat="45.68284" lon="-1.15305">
        <ele>5.8</ele>
        <time>2021-09-25T15:04:00.000Z</time>
      </trkpt>
      <trkpt lat="45.68278" lon="-1.15293">
        <ele>5.9</ele>
        <time>2021-09-25T15:03:55.000Z</time>
      </trkpt>
      <trkpt lat="45.68268" lon="-1.15289">
        <ele>6.4</ele>
        <time>2021-09-25T15:03:46.000Z</time>
      </trkpt>
      <trkpt lat="45.68259" lon="-1.15283">
        <ele>6.7</ele>
        <time>2021-09-25T15:03:39.000Z</time>
      </trkpt>
      <trkpt lat="45.6825" lon="-1.15275">
        <ele>7.3</ele>
        <time>2021-09-25T15:03:33.000Z</time>
      </trkpt>
      <trkpt lat="45.68243" lon="-1.15267">
        <ele>7.3</ele>
        <time>2021-09-25T15:03:27.000Z</time>
      </trkpt>
      <trkpt lat="45.68235" lon="-1.15259">
        <ele>6.7</ele>
        <time>2021-09-25T15:03:20.000Z</time>
      </trkpt>
      <trkpt lat="45.68227" lon="-1.15252">
        <ele>6.2</ele>
        <time>2021-09-25T15:03:13.000Z</time>
      </trkpt>
      <trkpt lat="45.68219" lon="-1.15243">
        <ele>6</ele>
        <time>2021-09-25T15:03:07.000Z</time>
      </trkpt>
      <trkpt lat="45.68211" lon="-1.15233">
        <ele>6.3</ele>
        <time>2021-09-25T15:03:01.000Z</time>
      </trkpt>
      <trkpt lat="45.68202" lon="-1.15225">
        <ele>8.1</ele>
        <time>2021-09-25T15:02:56.000Z</time>
      </trkpt>
      <trkpt lat="45.68192" lon="-1.15218">
        <ele>10.4</ele>
        <time>2021-09-25T15:02:48.000Z</time>
      </trkpt>
      <trkpt lat="45.68185" lon="-1.15209">
        <ele>12.2</ele>
        <time>2021-09-25T15:02:43.000Z</time>
      </trkpt>
      <trkpt lat="45.68178" lon="-1.15202">
        <ele>13.4</ele>
        <time>2021-09-25T15:02:36.000Z</time>
      </trkpt>
      <trkpt lat="45.68169" lon="-1.15196">
        <ele>13.3</ele>
        <time>2021-09-25T15:02:30.000Z</time>
      </trkpt>
      <trkpt lat="45.68161" lon="-1.15186">
        <ele>12.9</ele>
        <time>2021-09-25T15:02:23.000Z</time>
      </trkpt>
      <trkpt lat="45.68152" lon="-1.1518">
        <ele>12.6</ele>
        <time>2021-09-25T15:02:16.000Z</time>
      </trkpt>
      <trkpt lat="45.68144" lon="-1.15171">
        <ele>11.1</ele>
        <time>2021-09-25T15:02:10.000Z</time>
      </trkpt>
      <trkpt lat="45.68135" lon="-1.15163">
        <ele>9.2</ele>
        <time>2021-09-25T15:02:06.000Z</time>
      </trkpt>
      <trkpt lat="45.68125" lon="-1.15156">
        <ele>8.5</ele>
        <time>2021-09-25T15:02:00.000Z</time>
      </trkpt>
      <trkpt lat="45.68117" lon="-1.15147">
        <ele>8.8</ele>
        <time>2021-09-25T15:01:54.000Z</time>
      </trkpt>
      <trkpt lat="45.68109" lon="-1.15138">
        <ele>8.8</ele>
        <time>2021-09-25T15:01:50.000Z</time>
      </trkpt>
      <trkpt lat="45.68099" lon="-1.15131">
        <ele>8.8</ele>
        <time>2021-09-25T15:01:43.000Z</time>
      </trkpt>
      <trkpt lat="45.68092" lon="-1.15122">
        <ele>8.8</ele>
        <time>2021-09-25T15:01:37.000Z</time>
      </trkpt>
      <trkpt lat="45.68083" lon="-1.15115">
        <ele>8.8</ele>
        <time>2021-09-25T15:01:32.000Z</time>
      </trkpt>
      <trkpt lat="45.68074" lon="-1.15109">
        <ele>7.4</ele>
        <time>2021-09-25T15:01:20.000Z</time>
      </trkpt>
      <trkpt lat="45.68068" lon="-1.15099">
        <ele>5.8</ele>
        <time>2021-09-25T15:01:14.000Z</time>
      </trkpt>
      <trkpt lat="45.68059" lon="-1.15089">
        <ele>4.6</ele>
        <time>2021-09-25T15:01:11.000Z</time>
      </trkpt>
      <trkpt lat="45.6805" lon="-1.15082">
        <ele>4.5</ele>
        <time>2021-09-25T15:01:05.000Z</time>
      </trkpt>
      <trkpt lat="45.68042" lon="-1.15074">
        <ele>4.3</ele>
        <time>2021-09-25T15:00:59.000Z</time>
      </trkpt>
      <trkpt lat="45.68032" lon="-1.15068">
        <ele>4.5</ele>
        <time>2021-09-25T15:00:51.000Z</time>
      </trkpt>
      <trkpt lat="45.68023" lon="-1.15061">
        <ele>4.4</ele>
        <time>2021-09-25T15:00:45.000Z</time>
      </trkpt>
      <trkpt lat="45.68015" lon="-1.15056">
        <ele>4.4</ele>
        <time>2021-09-25T15:00:39.000Z</time>
      </trkpt>
      <trkpt lat="45.68007" lon="-1.15047">
        <ele>4.4</ele>
        <time>2021-09-25T15:00:34.000Z</time>
      </trkpt>
      <trkpt lat="45.68" lon="-1.15038">
        <ele>4.3</ele>
        <time>2021-09-25T15:00:29.000Z</time>
      </trkpt>
      <trkpt lat="45.67991" lon="-1.1503">
        <ele>5.5</ele>
        <time>2021-09-25T15:00:21.000Z</time>
      </trkpt>
      <trkpt lat="45.67983" lon="-1.15023">
        <ele>6.5</ele>
        <time>2021-09-25T15:00:15.000Z</time>
      </trkpt>
      <trkpt lat="45.67973" lon="-1.15017">
        <ele>6.7</ele>
        <time>2021-09-25T15:00:07.000Z</time>
      </trkpt>
      <trkpt lat="45.67965" lon="-1.15009">
        <ele>6.7</ele>
        <time>2021-09-25T15:00:02.000Z</time>
      </trkpt>
      <trkpt lat="45.67956" lon="-1.15001">
        <ele>6.4</ele>
        <time>2021-09-25T14:59:55.000Z</time>
      </trkpt>
      <trkpt lat="45.67947" lon="-1.14995">
        <ele>5.2</ele>
        <time>2021-09-25T14:59:44.000Z</time>
      </trkpt>
      <trkpt lat="45.67939" lon="-1.14988">
        <ele>4.4</ele>
        <time>2021-09-25T14:59:36.000Z</time>
      </trkpt>
      <trkpt lat="45.67932" lon="-1.14979">
        <ele>4.3</ele>
        <time>2021-09-25T14:59:31.000Z</time>
      </trkpt>
      <trkpt lat="45.67925" lon="-1.14971">
        <ele>4.4</ele>
        <time>2021-09-25T14:59:28.000Z</time>
      </trkpt>
      <trkpt lat="45.67916" lon="-1.14966">
        <ele>4.4</ele>
        <time>2021-09-25T14:59:23.000Z</time>
      </trkpt>
      <trkpt lat="45.67908" lon="-1.14957">
        <ele>4.5</ele>
        <time>2021-09-25T14:59:18.000Z</time>
      </trkpt>
      <trkpt lat="45.679" lon="-1.14946">
        <ele>4.7</ele>
        <time>2021-09-25T14:59:12.000Z</time>
      </trkpt>
      <trkpt lat="45.67892" lon="-1.14937">
        <ele>5</ele>
        <time>2021-09-25T14:59:08.000Z</time>
      </trkpt>
      <trkpt lat="45.67883" lon="-1.1493">
        <ele>5.9</ele>
        <time>2021-09-25T14:59:02.000Z</time>
      </trkpt>
      <trkpt lat="45.67875" lon="-1.14923">
        <ele>6.3</ele>
        <time>2021-09-25T14:58:54.000Z</time>
      </trkpt>
      <trkpt lat="45.67866" lon="-1.14916">
        <ele>5.6</ele>
        <time>2021-09-25T14:58:45.000Z</time>
      </trkpt>
      <trkpt lat="45.67857" lon="-1.14909">
        <ele>4.6</ele>
        <time>2021-09-25T14:58:38.000Z</time>
      </trkpt>
      <trkpt lat="45.67849" lon="-1.149">
        <ele>4.4</ele>
        <time>2021-09-25T14:58:32.000Z</time>
      </trkpt>
      <trkpt lat="45.67841" lon="-1.14891">
        <ele>4.2</ele>
        <time>2021-09-25T14:58:27.000Z</time>
      </trkpt>
      <trkpt lat="45.67832" lon="-1.14884">
        <ele>4.2</ele>
        <time>2021-09-25T14:58:23.000Z</time>
      </trkpt>
      <trkpt lat="45.67823" lon="-1.1488">
        <ele>4.2</ele>
        <time>2021-09-25T14:58:15.000Z</time>
      </trkpt>
      <trkpt lat="45.67814" lon="-1.14874">
        <ele>4.3</ele>
        <time>2021-09-25T14:58:05.000Z</time>
      </trkpt>
      <trkpt lat="45.67807" lon="-1.14864">
        <ele>4.3</ele>
        <time>2021-09-25T14:57:56.000Z</time>
      </trkpt>
      <trkpt lat="45.67799" lon="-1.14857">
        <ele>4.5</ele>
        <time>2021-09-25T14:57:50.000Z</time>
      </trkpt>
      <trkpt lat="45.67791" lon="-1.14849">
        <ele>5.2</ele>
        <time>2021-09-25T14:57:44.000Z</time>
      </trkpt>
      <trkpt lat="45.67782" lon="-1.14839">
        <ele>5.5</ele>
        <time>2021-09-25T14:57:40.000Z</time>
      </trkpt>
      <trkpt lat="45.67772" lon="-1.14836">
        <ele>6.1</ele>
        <time>2021-09-25T14:57:34.000Z</time>
      </trkpt>
      <trkpt lat="45.67762" lon="-1.14834">
        <ele>5.9</ele>
        <time>2021-09-25T14:57:26.000Z</time>
      </trkpt>
      <trkpt lat="45.67753" lon="-1.14827">
        <ele>5.2</ele>
        <time>2021-09-25T14:57:22.000Z</time>
      </trkpt>
      <trkpt lat="45.67745" lon="-1.14822">
        <ele>4.4</ele>
        <time>2021-09-25T14:57:19.000Z</time>
      </trkpt>
      <trkpt lat="45.67737" lon="-1.14813">
        <ele>4.1</ele>
        <time>2021-09-25T14:57:17.000Z</time>
      </trkpt>
      <trkpt lat="45.67726" lon="-1.14803">
        <ele>4.3</ele>
        <time>2021-09-25T14:57:14.000Z</time>
      </trkpt>
      <trkpt lat="45.67716" lon="-1.14794">
        <ele>4.7</ele>
        <time>2021-09-25T14:57:11.000Z</time>
      </trkpt>
      <trkpt lat="45.67708" lon="-1.14787">
        <ele>5.3</ele>
        <time>2021-09-25T14:57:08.000Z</time>
      </trkpt>
      <trkpt lat="45.67699" lon="-1.14777">
        <ele>5.5</ele>
        <time>2021-09-25T14:57:05.000Z</time>
      </trkpt>
      <trkpt lat="45.6769" lon="-1.14767">
        <ele>5.4</ele>
        <time>2021-09-25T14:57:01.000Z</time>
      </trkpt>
      <trkpt lat="45.67681" lon="-1.14755">
        <ele>5.2</ele>
        <time>2021-09-25T14:56:58.000Z</time>
      </trkpt>
      <trkpt lat="45.67672" lon="-1.14747">
        <ele>4.8</ele>
        <time>2021-09-25T14:56:55.000Z</time>
      </trkpt>
      <trkpt lat="45.67664" lon="-1.1474">
        <ele>4.8</ele>
        <time>2021-09-25T14:56:52.000Z</time>
      </trkpt>
      <trkpt lat="45.67654" lon="-1.14733">
        <ele>4.8</ele>
        <time>2021-09-25T14:56:49.000Z</time>
      </trkpt>
      <trkpt lat="45.67645" lon="-1.14727">
        <ele>4.8</ele>
        <time>2021-09-25T14:56:46.000Z</time>
      </trkpt>
      <trkpt lat="45.67637" lon="-1.1472">
        <ele>4.7</ele>
        <time>2021-09-25T14:56:43.000Z</time>
      </trkpt>
      <trkpt lat="45.67629" lon="-1.14712">
        <ele>4.7</ele>
        <time>2021-09-25T14:56:40.000Z</time>
      </trkpt>
      <trkpt lat="45.6762" lon="-1.14706">
        <ele>4.8</ele>
        <time>2021-09-25T14:56:36.000Z</time>
      </trkpt>
      <trkpt lat="45.67611" lon="-1.147">
        <ele>5</ele>
        <time>2021-09-25T14:56:32.000Z</time>
      </trkpt>
      <trkpt lat="45.67602" lon="-1.14702">
        <ele>5</ele>
        <time>2021-09-25T14:56:25.000Z</time>
      </trkpt>
      <trkpt lat="45.67593" lon="-1.14702">
        <ele>5</ele>
        <time>2021-09-25T14:56:12.000Z</time>
      </trkpt>
      <trkpt lat="45.67589" lon="-1.1469">
        <ele>5</ele>
        <time>2021-09-25T14:56:06.000Z</time>
      </trkpt>
      <trkpt lat="45.67584" lon="-1.14677">
        <ele>5</ele>
        <time>2021-09-25T14:55:59.000Z</time>
      </trkpt>
      <trkpt lat="45.67578" lon="-1.14665">
        <ele>5</ele>
        <time>2021-09-25T14:55:53.000Z</time>
      </trkpt>
      <trkpt lat="45.67574" lon="-1.14651">
        <ele>4.9</ele>
        <time>2021-09-25T14:55:47.000Z</time>
      </trkpt>
      <trkpt lat="45.67566" lon="-1.14644">
        <ele>4.3</ele>
        <time>2021-09-25T14:55:40.000Z</time>
      </trkpt>
      <trkpt lat="45.67558" lon="-1.14638">
        <ele>4.3</ele>
        <time>2021-09-25T14:55:35.000Z</time>
      </trkpt>
      <trkpt lat="45.6755" lon="-1.1463">
        <ele>4.4</ele>
        <time>2021-09-25T14:55:31.000Z</time>
      </trkpt>
      <trkpt lat="45.67541" lon="-1.1462">
        <ele>4.6</ele>
        <time>2021-09-25T14:55:25.000Z</time>
      </trkpt>
      <trkpt lat="45.67533" lon="-1.14615">
        <ele>4.9</ele>
        <time>2021-09-25T14:55:18.000Z</time>
      </trkpt>
      <trkpt lat="45.67523" lon="-1.14609">
        <ele>5.1</ele>
        <time>2021-09-25T14:55:10.000Z</time>
      </trkpt>
      <trkpt lat="45.67514" lon="-1.146">
        <ele>5.5</ele>
        <time>2021-09-25T14:55:03.000Z</time>
      </trkpt>
      <trkpt lat="45.67506" lon="-1.14594">
        <ele>5.7</ele>
        <time>2021-09-25T14:54:57.000Z</time>
      </trkpt>
      <trkpt lat="45.67497" lon="-1.14587">
        <ele>5.7</ele>
        <time>2021-09-25T14:54:50.000Z</time>
      </trkpt>
      <trkpt lat="45.67489" lon="-1.14581">
        <ele>6</ele>
        <time>2021-09-25T14:54:44.000Z</time>
      </trkpt>
      <trkpt lat="45.67481" lon="-1.14573">
        <ele>7.1</ele>
        <time>2021-09-25T14:54:38.000Z</time>
      </trkpt>
      <trkpt lat="45.67474" lon="-1.14563">
        <ele>7.5</ele>
        <time>2021-09-25T14:54:32.000Z</time>
      </trkpt>
      <trkpt lat="45.67467" lon="-1.14554">
        <ele>7.5</ele>
        <time>2021-09-25T14:54:26.000Z</time>
      </trkpt>
      <trkpt lat="45.67458" lon="-1.14548">
        <ele>7</ele>
        <time>2021-09-25T14:54:18.000Z</time>
      </trkpt>
      <trkpt lat="45.6745" lon="-1.14542">
        <ele>6.8</ele>
        <time>2021-09-25T14:54:10.000Z</time>
      </trkpt>
      <trkpt lat="45.67441" lon="-1.14536">
        <ele>7.6</ele>
        <time>2021-09-25T14:54:03.000Z</time>
      </trkpt>
      <trkpt lat="45.67431" lon="-1.14531">
        <ele>9.2</ele>
        <time>2021-09-25T14:53:57.000Z</time>
      </trkpt>
      <trkpt lat="45.67423" lon="-1.14523">
        <ele>9.6</ele>
        <time>2021-09-25T14:53:50.000Z</time>
      </trkpt>
      <trkpt lat="45.67415" lon="-1.14516">
        <ele>9.6</ele>
        <time>2021-09-25T14:53:43.000Z</time>
      </trkpt>
      <trkpt lat="45.67407" lon="-1.14508">
        <ele>9.2</ele>
        <time>2021-09-25T14:53:36.000Z</time>
      </trkpt>
      <trkpt lat="45.674" lon="-1.14499">
        <ele>9.1</ele>
        <time>2021-09-25T14:53:29.000Z</time>
      </trkpt>
      <trkpt lat="45.67392" lon="-1.1449">
        <ele>7.1</ele>
        <time>2021-09-25T14:53:22.000Z</time>
      </trkpt>
      <trkpt lat="45.67383" lon="-1.14482">
        <ele>5.6</ele>
        <time>2021-09-25T14:53:17.000Z</time>
      </trkpt>
      <trkpt lat="45.67374" lon="-1.14475">
        <ele>5.1</ele>
        <time>2021-09-25T14:53:10.000Z</time>
      </trkpt>
      <trkpt lat="45.67367" lon="-1.14466">
        <ele>5.1</ele>
        <time>2021-09-25T14:53:03.000Z</time>
      </trkpt>
      <trkpt lat="45.6736" lon="-1.14457">
        <ele>5.1</ele>
        <time>2021-09-25T14:52:58.000Z</time>
      </trkpt>
      <trkpt lat="45.67352" lon="-1.14451">
        <ele>5.2</ele>
        <time>2021-09-25T14:52:51.000Z</time>
      </trkpt>
      <trkpt lat="45.67344" lon="-1.14443">
        <ele>5.3</ele>
        <time>2021-09-25T14:52:45.000Z</time>
      </trkpt>
      <trkpt lat="45.67335" lon="-1.14437">
        <ele>5.9</ele>
        <time>2021-09-25T14:52:39.000Z</time>
      </trkpt>
      <trkpt lat="45.67327" lon="-1.14431">
        <ele>6.6</ele>
        <time>2021-09-25T14:52:32.000Z</time>
      </trkpt>
      <trkpt lat="45.67318" lon="-1.14425">
        <ele>6.8</ele>
        <time>2021-09-25T14:52:25.000Z</time>
      </trkpt>
      <trkpt lat="45.6731" lon="-1.14415">
        <ele>7.9</ele>
        <time>2021-09-25T14:52:18.000Z</time>
      </trkpt>
      <trkpt lat="45.67303" lon="-1.14405">
        <ele>8</ele>
        <time>2021-09-25T14:52:08.000Z</time>
      </trkpt>
      <trkpt lat="45.67295" lon="-1.14399">
        <ele>8</ele>
        <time>2021-09-25T14:52:02.000Z</time>
      </trkpt>
      <trkpt lat="45.67286" lon="-1.14391">
        <ele>7.7</ele>
        <time>2021-09-25T14:51:55.000Z</time>
      </trkpt>
      <trkpt lat="45.67279" lon="-1.14384">
        <ele>7.3</ele>
        <time>2021-09-25T14:51:50.000Z</time>
      </trkpt>
      <trkpt lat="45.6727" lon="-1.14376">
        <ele>6.4</ele>
        <time>2021-09-25T14:51:43.000Z</time>
      </trkpt>
      <trkpt lat="45.67262" lon="-1.14368">
        <ele>4.8</ele>
        <time>2021-09-25T14:51:36.000Z</time>
      </trkpt>
      <trkpt lat="45.67254" lon="-1.14362">
        <ele>4.8</ele>
        <time>2021-09-25T14:51:30.000Z</time>
      </trkpt>
      <trkpt lat="45.67251" lon="-1.14349">
        <ele>4.8</ele>
        <time>2021-09-25T14:51:13.000Z</time>
      </trkpt>
      <trkpt lat="45.67255" lon="-1.14336">
        <ele>5</ele>
        <time>2021-09-25T14:51:06.000Z</time>
      </trkpt>
      <trkpt lat="45.67263" lon="-1.14326">
        <ele>5</ele>
        <time>2021-09-25T14:51:01.000Z</time>
      </trkpt>
      <trkpt lat="45.67269" lon="-1.14316">
        <ele>5</ele>
        <time>2021-09-25T14:50:55.000Z</time>
      </trkpt>
      <trkpt lat="45.67277" lon="-1.14306">
        <ele>5</ele>
        <time>2021-09-25T14:50:49.000Z</time>
      </trkpt>
      <trkpt lat="45.67285" lon="-1.14298">
        <ele>5</ele>
        <time>2021-09-25T14:50:44.000Z</time>
      </trkpt>
      <trkpt lat="45.67294" lon="-1.14286">
        <ele>5</ele>
        <time>2021-09-25T14:50:40.000Z</time>
      </trkpt>
      <trkpt lat="45.673" lon="-1.14275">
        <ele>5</ele>
        <time>2021-09-25T14:50:37.000Z</time>
      </trkpt>
      <trkpt lat="45.67308" lon="-1.14268">
        <ele>5</ele>
        <time>2021-09-25T14:50:34.000Z</time>
      </trkpt>
      <trkpt lat="45.67316" lon="-1.1426">
        <ele>4.8</ele>
        <time>2021-09-25T14:50:31.000Z</time>
      </trkpt>
      <trkpt lat="45.67326" lon="-1.14251">
        <ele>4.3</ele>
        <time>2021-09-25T14:50:28.000Z</time>
      </trkpt>
      <trkpt lat="45.67337" lon="-1.14242">
        <ele>4.1</ele>
        <time>2021-09-25T14:50:24.000Z</time>
      </trkpt>
      <trkpt lat="45.6734" lon="-1.14228">
        <ele>4.3</ele>
        <time>2021-09-25T14:50:20.000Z</time>
      </trkpt>
      <trkpt lat="45.67346" lon="-1.14217">
        <ele>4.5</ele>
        <time>2021-09-25T14:50:16.000Z</time>
      </trkpt>
      <trkpt lat="45.67356" lon="-1.14207">
        <ele>4.4</ele>
        <time>2021-09-25T14:50:12.000Z</time>
      </trkpt>
      <trkpt lat="45.67363" lon="-1.142">
        <ele>4.4</ele>
        <time>2021-09-25T14:50:08.000Z</time>
      </trkpt>
      <trkpt lat="45.6737" lon="-1.1419">
        <ele>4.4</ele>
        <time>2021-09-25T14:50:03.000Z</time>
      </trkpt>
      <trkpt lat="45.67375" lon="-1.14178">
        <ele>5.4</ele>
        <time>2021-09-25T14:49:56.000Z</time>
      </trkpt>
      <trkpt lat="45.67383" lon="-1.14169">
        <ele>6.1</ele>
        <time>2021-09-25T14:49:51.000Z</time>
      </trkpt>
      <trkpt lat="45.67389" lon="-1.14158">
        <ele>7.1</ele>
        <time>2021-09-25T14:49:46.000Z</time>
      </trkpt>
      <trkpt lat="45.67395" lon="-1.14148">
        <ele>7.5</ele>
        <time>2021-09-25T14:49:39.000Z</time>
      </trkpt>
      <trkpt lat="45.67403" lon="-1.1414">
        <ele>6.7</ele>
        <time>2021-09-25T14:49:33.000Z</time>
      </trkpt>
      <trkpt lat="45.67412" lon="-1.14132">
        <ele>6.3</ele>
        <time>2021-09-25T14:49:30.000Z</time>
      </trkpt>
      <trkpt lat="45.67421" lon="-1.14121">
        <ele>5.1</ele>
        <time>2021-09-25T14:49:26.000Z</time>
      </trkpt>
      <trkpt lat="45.67426" lon="-1.14111">
        <ele>5.1</ele>
        <time>2021-09-25T14:49:23.000Z</time>
      </trkpt>
      <trkpt lat="45.67434" lon="-1.14102">
        <ele>5.2</ele>
        <time>2021-09-25T14:49:20.000Z</time>
      </trkpt>
      <trkpt lat="45.67441" lon="-1.14092">
        <ele>5.4</ele>
        <time>2021-09-25T14:49:15.000Z</time>
      </trkpt>
      <trkpt lat="45.67448" lon="-1.14084">
        <ele>5.5</ele>
        <time>2021-09-25T14:49:09.000Z</time>
      </trkpt>
      <trkpt lat="45.67454" lon="-1.14074">
        <ele>5.7</ele>
        <time>2021-09-25T14:49:03.000Z</time>
      </trkpt>
      <trkpt lat="45.67462" lon="-1.14066">
        <ele>6.1</ele>
        <time>2021-09-25T14:48:57.000Z</time>
      </trkpt>
      <trkpt lat="45.67469" lon="-1.14057">
        <ele>7.4</ele>
        <time>2021-09-25T14:48:51.000Z</time>
      </trkpt>
      <trkpt lat="45.67476" lon="-1.14046">
        <ele>9.7</ele>
        <time>2021-09-25T14:48:45.000Z</time>
      </trkpt>
      <trkpt lat="45.67483" lon="-1.14036">
        <ele>11.8</ele>
        <time>2021-09-25T14:48:39.000Z</time>
      </trkpt>
      <trkpt lat="45.67489" lon="-1.14027">
        <ele>13.7</ele>
        <time>2021-09-25T14:48:31.000Z</time>
      </trkpt>
      <trkpt lat="45.67495" lon="-1.14016">
        <ele>14</ele>
        <time>2021-09-25T14:48:24.000Z</time>
      </trkpt>
      <trkpt lat="45.67502" lon="-1.14007">
        <ele>12.7</ele>
        <time>2021-09-25T14:48:18.000Z</time>
      </trkpt>
      <trkpt lat="45.67509" lon="-1.13998">
        <ele>10.6</ele>
        <time>2021-09-25T14:48:13.000Z</time>
      </trkpt>
      <trkpt lat="45.67516" lon="-1.13988">
        <ele>8.5</ele>
        <time>2021-09-25T14:48:10.000Z</time>
      </trkpt>
      <trkpt lat="45.67525" lon="-1.13978">
        <ele>6.2</ele>
        <time>2021-09-25T14:48:07.000Z</time>
      </trkpt>
      <trkpt lat="45.67533" lon="-1.13967">
        <ele>5.4</ele>
        <time>2021-09-25T14:48:04.000Z</time>
      </trkpt>
      <trkpt lat="45.67541" lon="-1.13957">
        <ele>5.4</ele>
        <time>2021-09-25T14:47:57.000Z</time>
      </trkpt>
      <trkpt lat="45.67547" lon="-1.13947">
        <ele>5.5</ele>
        <time>2021-09-25T14:47:51.000Z</time>
      </trkpt>
      <trkpt lat="45.67551" lon="-1.13934">
        <ele>6.3</ele>
        <time>2021-09-25T14:47:43.000Z</time>
      </trkpt>
      <trkpt lat="45.67558" lon="-1.13923">
        <ele>6.6</ele>
        <time>2021-09-25T14:47:35.000Z</time>
      </trkpt>
      <trkpt lat="45.67565" lon="-1.13914">
        <ele>6.6</ele>
        <time>2021-09-25T14:47:27.000Z</time>
      </trkpt>
      <trkpt lat="45.67574" lon="-1.13906">
        <ele>6.5</ele>
        <time>2021-09-25T14:47:21.000Z</time>
      </trkpt>
      <trkpt lat="45.67581" lon="-1.13899">
        <ele>6.5</ele>
        <time>2021-09-25T14:47:16.000Z</time>
      </trkpt>
      <trkpt lat="45.67585" lon="-1.13887">
        <ele>6.5</ele>
        <time>2021-09-25T14:47:07.000Z</time>
      </trkpt>
      <trkpt lat="45.67592" lon="-1.13879">
        <ele>6.8</ele>
        <time>2021-09-25T14:47:00.000Z</time>
      </trkpt>
      <trkpt lat="45.67599" lon="-1.13868">
        <ele>7.1</ele>
        <time>2021-09-25T14:46:54.000Z</time>
      </trkpt>
      <trkpt lat="45.67607" lon="-1.1386">
        <ele>7.4</ele>
        <time>2021-09-25T14:46:49.000Z</time>
      </trkpt>
      <trkpt lat="45.67611" lon="-1.13847">
        <ele>8.3</ele>
        <time>2021-09-25T14:46:42.000Z</time>
      </trkpt>
      <trkpt lat="45.67612" lon="-1.13835">
        <ele>8.5</ele>
        <time>2021-09-25T14:46:33.000Z</time>
      </trkpt>
      <trkpt lat="45.67604" lon="-1.13827">
        <ele>8.2</ele>
        <time>2021-09-25T14:44:25.000Z</time>
      </trkpt>
      <trkpt lat="45.67612" lon="-1.13835">
        <ele>8.3</ele>
        <time>2021-09-25T14:43:57.000Z</time>
      </trkpt>
      <trkpt lat="45.67621" lon="-1.13832">
        <ele>7.9</ele>
        <time>2021-09-25T14:43:50.000Z</time>
      </trkpt>
      <trkpt lat="45.67629" lon="-1.13824">
        <ele>7.9</ele>
        <time>2021-09-25T14:43:44.000Z</time>
      </trkpt>
      <trkpt lat="45.67636" lon="-1.13814">
        <ele>8.2</ele>
        <time>2021-09-25T14:43:37.000Z</time>
      </trkpt>
      <trkpt lat="45.67643" lon="-1.13805">
        <ele>9.3</ele>
        <time>2021-09-25T14:43:32.000Z</time>
      </trkpt>
      <trkpt lat="45.6765" lon="-1.13794">
        <ele>10.6</ele>
        <time>2021-09-25T14:43:26.000Z</time>
      </trkpt>
      <trkpt lat="45.67658" lon="-1.13786">
        <ele>11.3</ele>
        <time>2021-09-25T14:43:18.000Z</time>
      </trkpt>
      <trkpt lat="45.67666" lon="-1.13779">
        <ele>11.6</ele>
        <time>2021-09-25T14:43:13.000Z</time>
      </trkpt>
      <trkpt lat="45.67673" lon="-1.13768">
        <ele>11.3</ele>
        <time>2021-09-25T14:43:05.000Z</time>
      </trkpt>
      <trkpt lat="45.67681" lon="-1.1376">
        <ele>11.3</ele>
        <time>2021-09-25T14:42:59.000Z</time>
      </trkpt>
      <trkpt lat="45.67687" lon="-1.13748">
        <ele>11.3</ele>
        <time>2021-09-25T14:42:52.000Z</time>
      </trkpt>
      <trkpt lat="45.67693" lon="-1.13738">
        <ele>11.2</ele>
        <time>2021-09-25T14:42:46.000Z</time>
      </trkpt>
      <trkpt lat="45.67699" lon="-1.13728">
        <ele>11</ele>
        <time>2021-09-25T14:42:39.000Z</time>
      </trkpt>
      <trkpt lat="45.67706" lon="-1.13718">
        <ele>10.9</ele>
        <time>2021-09-25T14:42:32.000Z</time>
      </trkpt>
      <trkpt lat="45.67715" lon="-1.13714">
        <ele>10.9</ele>
        <time>2021-09-25T14:42:28.000Z</time>
      </trkpt>
      <trkpt lat="45.67722" lon="-1.13706">
        <ele>10.8</ele>
        <time>2021-09-25T14:42:21.000Z</time>
      </trkpt>
      <trkpt lat="45.6773" lon="-1.13697">
        <ele>10.8</ele>
        <time>2021-09-25T14:42:14.000Z</time>
      </trkpt>
      <trkpt lat="45.67736" lon="-1.13685">
        <ele>11</ele>
        <time>2021-09-25T14:42:09.000Z</time>
      </trkpt>
      <trkpt lat="45.67744" lon="-1.13676">
        <ele>11.1</ele>
        <time>2021-09-25T14:42:02.000Z</time>
      </trkpt>
      <trkpt lat="45.67751" lon="-1.13666">
        <ele>11.6</ele>
        <time>2021-09-25T14:41:55.000Z</time>
      </trkpt>
      <trkpt lat="45.67756" lon="-1.13653">
        <ele>12</ele>
        <time>2021-09-25T14:41:49.000Z</time>
      </trkpt>
      <trkpt lat="45.67762" lon="-1.13644">
        <ele>12.4</ele>
        <time>2021-09-25T14:41:43.000Z</time>
      </trkpt>
      <trkpt lat="45.67771" lon="-1.13637">
        <ele>12.4</ele>
        <time>2021-09-25T14:41:36.000Z</time>
      </trkpt>
      <trkpt lat="45.67776" lon="-1.13625">
        <ele>12.4</ele>
        <time>2021-09-25T14:41:31.000Z</time>
      </trkpt>
      <trkpt lat="45.67783" lon="-1.13617">
        <ele>12</ele>
        <time>2021-09-25T14:41:23.000Z</time>
      </trkpt>
      <trkpt lat="45.67788" lon="-1.13606">
        <ele>11.7</ele>
        <time>2021-09-25T14:41:16.000Z</time>
      </trkpt>
      <trkpt lat="45.67791" lon="-1.13594">
        <ele>11.3</ele>
        <time>2021-09-25T14:41:09.000Z</time>
      </trkpt>
      <trkpt lat="45.67801" lon="-1.13587">
        <ele>10.7</ele>
        <time>2021-09-25T14:41:03.000Z</time>
      </trkpt>
      <trkpt lat="45.67807" lon="-1.13575">
        <ele>10.4</ele>
        <time>2021-09-25T14:40:56.000Z</time>
      </trkpt>
      <trkpt lat="45.67813" lon="-1.13562">
        <ele>9.4</ele>
        <time>2021-09-25T14:40:46.000Z</time>
      </trkpt>
      <trkpt lat="45.67818" lon="-1.13551">
        <ele>9.2</ele>
        <time>2021-09-25T14:40:40.000Z</time>
      </trkpt>
      <trkpt lat="45.67824" lon="-1.13542">
        <ele>8.4</ele>
        <time>2021-09-25T14:40:33.000Z</time>
      </trkpt>
      <trkpt lat="45.67834" lon="-1.13537">
        <ele>7.5</ele>
        <time>2021-09-25T14:40:30.000Z</time>
      </trkpt>
      <trkpt lat="45.6784" lon="-1.13525">
        <ele>6</ele>
        <time>2021-09-25T14:40:24.000Z</time>
      </trkpt>
      <trkpt lat="45.67847" lon="-1.13514">
        <ele>6.1</ele>
        <time>2021-09-25T14:40:20.000Z</time>
      </trkpt>
      <trkpt lat="45.67854" lon="-1.13501">
        <ele>6.8</ele>
        <time>2021-09-25T14:40:11.000Z</time>
      </trkpt>
      <trkpt lat="45.67861" lon="-1.13491">
        <ele>8.3</ele>
        <time>2021-09-25T14:40:03.000Z</time>
      </trkpt>
      <trkpt lat="45.67865" lon="-1.13479">
        <ele>11.7</ele>
        <time>2021-09-25T14:39:53.000Z</time>
      </trkpt>
      <trkpt lat="45.67872" lon="-1.13471">
        <ele>12.9</ele>
        <time>2021-09-25T14:39:48.000Z</time>
      </trkpt>
      <trkpt lat="45.67879" lon="-1.13459">
        <ele>15.3</ele>
        <time>2021-09-25T14:39:40.000Z</time>
      </trkpt>
      <trkpt lat="45.67885" lon="-1.13447">
        <ele>17</ele>
        <time>2021-09-25T14:39:31.000Z</time>
      </trkpt>
      <trkpt lat="45.67894" lon="-1.13444">
        <ele>17.1</ele>
        <time>2021-09-25T14:39:27.000Z</time>
      </trkpt>
      <trkpt lat="45.679" lon="-1.13431">
        <ele>17</ele>
        <time>2021-09-25T14:39:20.000Z</time>
      </trkpt>
      <trkpt lat="45.67898" lon="-1.13417">
        <ele>17.1</ele>
        <time>2021-09-25T14:39:14.000Z</time>
      </trkpt>
      <trkpt lat="45.67894" lon="-1.13406">
        <ele>17.1</ele>
        <time>2021-09-25T14:39:11.000Z</time>
      </trkpt>
      <trkpt lat="45.67892" lon="-1.13391">
        <ele>16.9</ele>
        <time>2021-09-25T14:39:07.000Z</time>
      </trkpt>
      <trkpt lat="45.67889" lon="-1.13375">
        <ele>16.5</ele>
        <time>2021-09-25T14:39:02.000Z</time>
      </trkpt>
      <trkpt lat="45.67889" lon="-1.13362">
        <ele>16.3</ele>
        <time>2021-09-25T14:38:59.000Z</time>
      </trkpt>
      <trkpt lat="45.67888" lon="-1.13347">
        <ele>15.8</ele>
        <time>2021-09-25T14:38:56.000Z</time>
      </trkpt>
      <trkpt lat="45.6789" lon="-1.13334">
        <ele>15.8</ele>
        <time>2021-09-25T14:38:53.000Z</time>
      </trkpt>
      <trkpt lat="45.67887" lon="-1.1332">
        <ele>15.5</ele>
        <time>2021-09-25T14:38:50.000Z</time>
      </trkpt>
      <trkpt lat="45.67887" lon="-1.13306">
        <ele>15</ele>
        <time>2021-09-25T14:38:47.000Z</time>
      </trkpt>
      <trkpt lat="45.67889" lon="-1.1329">
        <ele>15.3</ele>
        <time>2021-09-25T14:38:43.000Z</time>
      </trkpt>
      <trkpt lat="45.67891" lon="-1.13277">
        <ele>15.8</ele>
        <time>2021-09-25T14:38:39.000Z</time>
      </trkpt>
      <trkpt lat="45.67892" lon="-1.13263">
        <ele>16.1</ele>
        <time>2021-09-25T14:38:34.000Z</time>
      </trkpt>
      <trkpt lat="45.67893" lon="-1.1325">
        <ele>17.7</ele>
        <time>2021-09-25T14:38:26.000Z</time>
      </trkpt>
      <trkpt lat="45.67898" lon="-1.13238">
        <ele>18</ele>
        <time>2021-09-25T14:38:21.000Z</time>
      </trkpt>
      <trkpt lat="45.67901" lon="-1.13225">
        <ele>18.1</ele>
        <time>2021-09-25T14:38:14.000Z</time>
      </trkpt>
      <trkpt lat="45.67901" lon="-1.13211">
        <ele>17.8</ele>
        <time>2021-09-25T14:38:07.000Z</time>
      </trkpt>
      <trkpt lat="45.67903" lon="-1.13198">
        <ele>17.5</ele>
        <time>2021-09-25T14:38:01.000Z</time>
      </trkpt>
      <trkpt lat="45.67899" lon="-1.13185">
        <ele>17.8</ele>
        <time>2021-09-25T14:37:55.000Z</time>
      </trkpt>
      <trkpt lat="45.67895" lon="-1.13173">
        <ele>18.5</ele>
        <time>2021-09-25T14:37:49.000Z</time>
      </trkpt>
      <trkpt lat="45.67892" lon="-1.13161">
        <ele>18.1</ele>
        <time>2021-09-25T14:37:43.000Z</time>
      </trkpt>
      <trkpt lat="45.67886" lon="-1.1315">
        <ele>16.7</ele>
        <time>2021-09-25T14:37:39.000Z</time>
      </trkpt>
      <trkpt lat="45.67876" lon="-1.1314">
        <ele>15.9</ele>
        <time>2021-09-25T14:37:35.000Z</time>
      </trkpt>
      <trkpt lat="45.67867" lon="-1.13126">
        <ele>14.9</ele>
        <time>2021-09-25T14:37:29.000Z</time>
      </trkpt>
      <trkpt lat="45.6786" lon="-1.13116">
        <ele>14.3</ele>
        <time>2021-09-25T14:37:23.000Z</time>
      </trkpt>
      <trkpt lat="45.67851" lon="-1.13105">
        <ele>13.9</ele>
        <time>2021-09-25T14:37:17.000Z</time>
      </trkpt>
      <trkpt lat="45.67843" lon="-1.13098">
        <ele>13.7</ele>
        <time>2021-09-25T14:37:13.000Z</time>
      </trkpt>
      <trkpt lat="45.67834" lon="-1.13094">
        <ele>13.1</ele>
        <time>2021-09-25T14:37:05.000Z</time>
      </trkpt>
      <trkpt lat="45.67825" lon="-1.13089">
        <ele>12.4</ele>
        <time>2021-09-25T14:36:59.000Z</time>
      </trkpt>
      <trkpt lat="45.67815" lon="-1.13087">
        <ele>12.2</ele>
        <time>2021-09-25T14:36:49.000Z</time>
      </trkpt>
      <trkpt lat="45.6781" lon="-1.13076">
        <ele>12.1</ele>
        <time>2021-09-25T14:36:43.000Z</time>
      </trkpt>
      <trkpt lat="45.67809" lon="-1.13063">
        <ele>11.7</ele>
        <time>2021-09-25T14:36:36.000Z</time>
      </trkpt>
      <trkpt lat="45.67815" lon="-1.1305">
        <ele>11.4</ele>
        <time>2021-09-25T14:36:32.000Z</time>
      </trkpt>
      <trkpt lat="45.67814" lon="-1.13037">
        <ele>10.6</ele>
        <time>2021-09-25T14:36:26.000Z</time>
      </trkpt>
      <trkpt lat="45.67811" lon="-1.13024">
        <ele>10.1</ele>
        <time>2021-09-25T14:36:19.000Z</time>
      </trkpt>
      <trkpt lat="45.67805" lon="-1.13008">
        <ele>10.3</ele>
        <time>2021-09-25T14:36:11.000Z</time>
      </trkpt>
      <trkpt lat="45.67804" lon="-1.12995">
        <ele>11.6</ele>
        <time>2021-09-25T14:36:05.000Z</time>
      </trkpt>
      <trkpt lat="45.67798" lon="-1.12982">
        <ele>12.4</ele>
        <time>2021-09-25T14:35:59.000Z</time>
      </trkpt>
      <trkpt lat="45.67794" lon="-1.1297">
        <ele>13</ele>
        <time>2021-09-25T14:35:47.000Z</time>
      </trkpt>
      <trkpt lat="45.67785" lon="-1.12972">
        <ele>12.8</ele>
        <time>2021-09-25T14:35:37.000Z</time>
      </trkpt>
      <trkpt lat="45.67794" lon="-1.12968">
        <ele>12.9</ele>
        <time>2021-09-25T14:35:31.000Z</time>
      </trkpt>
      <trkpt lat="45.67803" lon="-1.12965">
        <ele>13.6</ele>
        <time>2021-09-25T14:35:25.000Z</time>
      </trkpt>
      <trkpt lat="45.67812" lon="-1.12965">
        <ele>14.2</ele>
        <time>2021-09-25T14:35:19.000Z</time>
      </trkpt>
      <trkpt lat="45.67821" lon="-1.12961">
        <ele>15.5</ele>
        <time>2021-09-25T14:35:14.000Z</time>
      </trkpt>
      <trkpt lat="45.6783" lon="-1.12955">
        <ele>15.8</ele>
        <time>2021-09-25T14:35:10.000Z</time>
      </trkpt>
      <trkpt lat="45.67839" lon="-1.12948">
        <ele>16.9</ele>
        <time>2021-09-25T14:35:03.000Z</time>
      </trkpt>
      <trkpt lat="45.67848" lon="-1.12942">
        <ele>18.5</ele>
        <time>2021-09-25T14:34:56.000Z</time>
      </trkpt>
      <trkpt lat="45.67855" lon="-1.12931">
        <ele>19.7</ele>
        <time>2021-09-25T14:34:50.000Z</time>
      </trkpt>
      <trkpt lat="45.67851" lon="-1.12918">
        <ele>21.1</ele>
        <time>2021-09-25T14:34:45.000Z</time>
      </trkpt>
      <trkpt lat="45.67849" lon="-1.12904">
        <ele>22.3</ele>
        <time>2021-09-25T14:34:38.000Z</time>
      </trkpt>
      <trkpt lat="45.67844" lon="-1.12891">
        <ele>23.3</ele>
        <time>2021-09-25T14:34:31.000Z</time>
      </trkpt>
      <trkpt lat="45.67839" lon="-1.1288">
        <ele>24.1</ele>
        <time>2021-09-25T14:34:26.000Z</time>
      </trkpt>
      <trkpt lat="45.67837" lon="-1.12867">
        <ele>24.5</ele>
        <time>2021-09-25T14:34:21.000Z</time>
      </trkpt>
      <trkpt lat="45.67833" lon="-1.12855">
        <ele>25.9</ele>
        <time>2021-09-25T14:34:12.000Z</time>
      </trkpt>
      <trkpt lat="45.67832" lon="-1.12842">
        <ele>25.6</ele>
        <time>2021-09-25T14:34:02.000Z</time>
      </trkpt>
      <trkpt lat="45.67827" lon="-1.12829">
        <ele>24.3</ele>
        <time>2021-09-25T14:33:55.000Z</time>
      </trkpt>
      <trkpt lat="45.67823" lon="-1.12817">
        <ele>23.7</ele>
        <time>2021-09-25T14:33:50.000Z</time>
      </trkpt>
      <trkpt lat="45.6782" lon="-1.12804">
        <ele>23</ele>
        <time>2021-09-25T14:33:42.000Z</time>
      </trkpt>
      <trkpt lat="45.67815" lon="-1.12792">
        <ele>23.4</ele>
        <time>2021-09-25T14:33:35.000Z</time>
      </trkpt>
      <trkpt lat="45.67811" lon="-1.12781">
        <ele>24.1</ele>
        <time>2021-09-25T14:33:28.000Z</time>
      </trkpt>
      <trkpt lat="45.67807" lon="-1.12769">
        <ele>24.5</ele>
        <time>2021-09-25T14:33:23.000Z</time>
      </trkpt>
      <trkpt lat="45.67807" lon="-1.12755">
        <ele>25.2</ele>
        <time>2021-09-25T14:33:16.000Z</time>
      </trkpt>
      <trkpt lat="45.67804" lon="-1.12742">
        <ele>25.2</ele>
        <time>2021-09-25T14:33:10.000Z</time>
      </trkpt>
      <trkpt lat="45.67801" lon="-1.12728">
        <ele>24.5</ele>
        <time>2021-09-25T14:33:03.000Z</time>
      </trkpt>
      <trkpt lat="45.67801" lon="-1.12714">
        <ele>23.9</ele>
        <time>2021-09-25T14:32:57.000Z</time>
      </trkpt>
      <trkpt lat="45.67797" lon="-1.12699">
        <ele>23.7</ele>
        <time>2021-09-25T14:32:49.000Z</time>
      </trkpt>
      <trkpt lat="45.67794" lon="-1.12687">
        <ele>23.4</ele>
        <time>2021-09-25T14:32:42.000Z</time>
      </trkpt>
      <trkpt lat="45.67791" lon="-1.12673">
        <ele>23.3</ele>
        <time>2021-09-25T14:32:37.000Z</time>
      </trkpt>
      <trkpt lat="45.6779" lon="-1.1266">
        <ele>23</ele>
        <time>2021-09-25T14:32:28.000Z</time>
      </trkpt>
      <trkpt lat="45.67788" lon="-1.12647">
        <ele>24</ele>
        <time>2021-09-25T14:32:22.000Z</time>
      </trkpt>
      <trkpt lat="45.67785" lon="-1.12633">
        <ele>25.5</ele>
        <time>2021-09-25T14:32:14.000Z</time>
      </trkpt>
      <trkpt lat="45.67784" lon="-1.12618">
        <ele>26.2</ele>
        <time>2021-09-25T14:32:07.000Z</time>
      </trkpt>
      <trkpt lat="45.67785" lon="-1.12603">
        <ele>26.1</ele>
        <time>2021-09-25T14:31:59.000Z</time>
      </trkpt>
      <trkpt lat="45.67786" lon="-1.12589">
        <ele>25.9</ele>
        <time>2021-09-25T14:31:52.000Z</time>
      </trkpt>
      <trkpt lat="45.67789" lon="-1.12576">
        <ele>25.5</ele>
        <time>2021-09-25T14:31:45.000Z</time>
      </trkpt>
      <trkpt lat="45.67794" lon="-1.12565">
        <ele>25.5</ele>
        <time>2021-09-25T14:31:40.000Z</time>
      </trkpt>
      <trkpt lat="45.67793" lon="-1.1255">
        <ele>25.7</ele>
        <time>2021-09-25T14:31:34.000Z</time>
      </trkpt>
      <trkpt lat="45.67793" lon="-1.12535">
        <ele>26.6</ele>
        <time>2021-09-25T14:31:27.000Z</time>
      </trkpt>
      <trkpt lat="45.67793" lon="-1.12519">
        <ele>27.8</ele>
        <time>2021-09-25T14:31:19.000Z</time>
      </trkpt>
      <trkpt lat="45.67793" lon="-1.12506">
        <ele>28.4</ele>
        <time>2021-09-25T14:31:12.000Z</time>
      </trkpt>
      <trkpt lat="45.67797" lon="-1.12494">
        <ele>28.5</ele>
        <time>2021-09-25T14:31:05.000Z</time>
      </trkpt>
      <trkpt lat="45.67798" lon="-1.12481">
        <ele>28.9</ele>
        <time>2021-09-25T14:31:00.000Z</time>
      </trkpt>
      <trkpt lat="45.678" lon="-1.12468">
        <ele>28.9</ele>
        <time>2021-09-25T14:30:54.000Z</time>
      </trkpt>
      <trkpt lat="45.678" lon="-1.12453">
        <ele>28.6</ele>
        <time>2021-09-25T14:30:48.000Z</time>
      </trkpt>
      <trkpt lat="45.67801" lon="-1.1244">
        <ele>27</ele>
        <time>2021-09-25T14:30:39.000Z</time>
      </trkpt>
      <trkpt lat="45.67801" lon="-1.12425">
        <ele>26.5</ele>
        <time>2021-09-25T14:30:34.000Z</time>
      </trkpt>
      <trkpt lat="45.67801" lon="-1.1241">
        <ele>25.2</ele>
        <time>2021-09-25T14:30:26.000Z</time>
      </trkpt>
      <trkpt lat="45.67802" lon="-1.12397">
        <ele>25.8</ele>
        <time>2021-09-25T14:30:20.000Z</time>
      </trkpt>
      <trkpt lat="45.67801" lon="-1.12383">
        <ele>26.2</ele>
        <time>2021-09-25T14:30:15.000Z</time>
      </trkpt>
      <trkpt lat="45.678" lon="-1.1237">
        <ele>26.7</ele>
        <time>2021-09-25T14:30:10.000Z</time>
      </trkpt>
      <trkpt lat="45.67804" lon="-1.12357">
        <ele>27.8</ele>
        <time>2021-09-25T14:30:03.000Z</time>
      </trkpt>
      <trkpt lat="45.67809" lon="-1.12342">
        <ele>27.7</ele>
        <time>2021-09-25T14:29:58.000Z</time>
      </trkpt>
      <trkpt lat="45.6781" lon="-1.12329">
        <ele>27.5</ele>
        <time>2021-09-25T14:29:51.000Z</time>
      </trkpt>
      <trkpt lat="45.6781" lon="-1.12316">
        <ele>27.5</ele>
        <time>2021-09-25T14:29:46.000Z</time>
      </trkpt>
      <trkpt lat="45.6781" lon="-1.12302">
        <ele>27.5</ele>
        <time>2021-09-25T14:29:40.000Z</time>
      </trkpt>
      <trkpt lat="45.67812" lon="-1.12288">
        <ele>27.6</ele>
        <time>2021-09-25T14:29:31.000Z</time>
      </trkpt>
      <trkpt lat="45.67813" lon="-1.12276">
        <ele>27.6</ele>
        <time>2021-09-25T14:29:25.000Z</time>
      </trkpt>
      <trkpt lat="45.67819" lon="-1.12263">
        <ele>27.5</ele>
        <time>2021-09-25T14:29:19.000Z</time>
      </trkpt>
      <trkpt lat="45.67821" lon="-1.1225">
        <ele>27</ele>
        <time>2021-09-25T14:29:12.000Z</time>
      </trkpt>
      <trkpt lat="45.67822" lon="-1.12237">
        <ele>26.6</ele>
        <time>2021-09-25T14:29:07.000Z</time>
      </trkpt>
      <trkpt lat="45.6782" lon="-1.12224">
        <ele>26.6</ele>
        <time>2021-09-25T14:29:03.000Z</time>
      </trkpt>
      <trkpt lat="45.67819" lon="-1.12211">
        <ele>26.7</ele>
        <time>2021-09-25T14:28:58.000Z</time>
      </trkpt>
      <trkpt lat="45.67819" lon="-1.12197">
        <ele>27.5</ele>
        <time>2021-09-25T14:28:49.000Z</time>
      </trkpt>
      <trkpt lat="45.67817" lon="-1.12184">
        <ele>27.8</ele>
        <time>2021-09-25T14:28:43.000Z</time>
      </trkpt>
      <trkpt lat="45.67821" lon="-1.1217">
        <ele>28.5</ele>
        <time>2021-09-25T14:28:35.000Z</time>
      </trkpt>
      <trkpt lat="45.67829" lon="-1.12162">
        <ele>28</ele>
        <time>2021-09-25T14:28:31.000Z</time>
      </trkpt>
      <trkpt lat="45.67831" lon="-1.12148">
        <ele>27</ele>
        <time>2021-09-25T14:28:27.000Z</time>
      </trkpt>
      <trkpt lat="45.67825" lon="-1.12136">
        <ele>26.1</ele>
        <time>2021-09-25T14:28:24.000Z</time>
      </trkpt>
      <trkpt lat="45.67817" lon="-1.12125">
        <ele>24.6</ele>
        <time>2021-09-25T14:28:15.000Z</time>
      </trkpt>
      <trkpt lat="45.67811" lon="-1.12115">
        <ele>24.6</ele>
        <time>2021-09-25T14:28:08.000Z</time>
      </trkpt>
      <trkpt lat="45.67805" lon="-1.12104">
        <ele>24.4</ele>
        <time>2021-09-25T14:28:00.000Z</time>
      </trkpt>
      <trkpt lat="45.67799" lon="-1.12092">
        <ele>23.3</ele>
        <time>2021-09-25T14:27:52.000Z</time>
      </trkpt>
      <trkpt lat="45.67796" lon="-1.12078">
        <ele>22.8</ele>
        <time>2021-09-25T14:27:14.000Z</time>
      </trkpt>
      <trkpt lat="45.6779" lon="-1.12067">
        <ele>22.5</ele>
        <time>2021-09-25T14:27:08.000Z</time>
      </trkpt>
      <trkpt lat="45.67783" lon="-1.12057">
        <ele>22.5</ele>
        <time>2021-09-25T14:27:02.000Z</time>
      </trkpt>
      <trkpt lat="45.67779" lon="-1.12043">
        <ele>22.5</ele>
        <time>2021-09-25T14:26:55.000Z</time>
      </trkpt>
      <trkpt lat="45.67776" lon="-1.1203">
        <ele>22.5</ele>
        <time>2021-09-25T14:26:49.000Z</time>
      </trkpt>
      <trkpt lat="45.67772" lon="-1.12018">
        <ele>22.7</ele>
        <time>2021-09-25T14:26:43.000Z</time>
      </trkpt>
      <trkpt lat="45.67767" lon="-1.12005">
        <ele>22.2</ele>
        <time>2021-09-25T14:26:36.000Z</time>
      </trkpt>
      <trkpt lat="45.67762" lon="-1.11993">
        <ele>21.7</ele>
        <time>2021-09-25T14:26:32.000Z</time>
      </trkpt>
      <trkpt lat="45.67755" lon="-1.11983">
        <ele>21.2</ele>
        <time>2021-09-25T14:26:25.000Z</time>
      </trkpt>
      <trkpt lat="45.67749" lon="-1.11972">
        <ele>20.8</ele>
        <time>2021-09-25T14:26:19.000Z</time>
      </trkpt>
      <trkpt lat="45.6775" lon="-1.11959">
        <ele>20.2</ele>
        <time>2021-09-25T14:26:13.000Z</time>
      </trkpt>
      <trkpt lat="45.67744" lon="-1.11947">
        <ele>18.6</ele>
        <time>2021-09-25T14:26:08.000Z</time>
      </trkpt>
      <trkpt lat="45.67737" lon="-1.11931">
        <ele>17.1</ele>
        <time>2021-09-25T14:26:02.000Z</time>
      </trkpt>
      <trkpt lat="45.67732" lon="-1.11918">
        <ele>16.3</ele>
        <time>2021-09-25T14:25:57.000Z</time>
      </trkpt>
      <trkpt lat="45.67726" lon="-1.11903">
        <ele>16.9</ele>
        <time>2021-09-25T14:25:50.000Z</time>
      </trkpt>
      <trkpt lat="45.6772" lon="-1.11893">
        <ele>17.7</ele>
        <time>2021-09-25T14:25:42.000Z</time>
      </trkpt>
      <trkpt lat="45.67714" lon="-1.11882">
        <ele>19.6</ele>
        <time>2021-09-25T14:25:35.000Z</time>
      </trkpt>
      <trkpt lat="45.6771" lon="-1.1187">
        <ele>21.7</ele>
        <time>2021-09-25T14:25:29.000Z</time>
      </trkpt>
      <trkpt lat="45.67703" lon="-1.11859">
        <ele>23.8</ele>
        <time>2021-09-25T14:25:22.000Z</time>
      </trkpt>
      <trkpt lat="45.67698" lon="-1.11848">
        <ele>26.5</ele>
        <time>2021-09-25T14:25:14.000Z</time>
      </trkpt>
      <trkpt lat="45.67692" lon="-1.11838">
        <ele>28.5</ele>
        <time>2021-09-25T14:25:07.000Z</time>
      </trkpt>
      <trkpt lat="45.67689" lon="-1.11826">
        <ele>28.2</ele>
        <time>2021-09-25T14:25:00.000Z</time>
      </trkpt>
      <trkpt lat="45.67684" lon="-1.11815">
        <ele>24.4</ele>
        <time>2021-09-25T14:24:53.000Z</time>
      </trkpt>
      <trkpt lat="45.67677" lon="-1.11802">
        <ele>22</ele>
        <time>2021-09-25T14:24:50.000Z</time>
      </trkpt>
      <trkpt lat="45.67672" lon="-1.11785">
        <ele>21.1</ele>
        <time>2021-09-25T14:24:47.000Z</time>
      </trkpt>
      <trkpt lat="45.67667" lon="-1.11774">
        <ele>21.3</ele>
        <time>2021-09-25T14:24:39.000Z</time>
      </trkpt>
      <trkpt lat="45.67663" lon="-1.1176">
        <ele>20.5</ele>
        <time>2021-09-25T14:24:33.000Z</time>
      </trkpt>
      <trkpt lat="45.67659" lon="-1.11748">
        <ele>20.2</ele>
        <time>2021-09-25T14:24:30.000Z</time>
      </trkpt>
      <trkpt lat="45.67652" lon="-1.11737">
        <ele>19.9</ele>
        <time>2021-09-25T14:24:24.000Z</time>
      </trkpt>
      <trkpt lat="45.67647" lon="-1.11723">
        <ele>19.6</ele>
        <time>2021-09-25T14:24:15.000Z</time>
      </trkpt>
      <trkpt lat="45.67642" lon="-1.1171">
        <ele>19.8</ele>
        <time>2021-09-25T14:24:09.000Z</time>
      </trkpt>
      <trkpt lat="45.67639" lon="-1.11697">
        <ele>19.9</ele>
        <time>2021-09-25T14:24:01.000Z</time>
      </trkpt>
      <trkpt lat="45.67636" lon="-1.11683">
        <ele>20.3</ele>
        <time>2021-09-25T14:23:54.000Z</time>
      </trkpt>
      <trkpt lat="45.67629" lon="-1.11672">
        <ele>21.6</ele>
        <time>2021-09-25T14:23:47.000Z</time>
      </trkpt>
      <trkpt lat="45.67624" lon="-1.11659">
        <ele>23.4</ele>
        <time>2021-09-25T14:23:40.000Z</time>
      </trkpt>
      <trkpt lat="45.67618" lon="-1.11649">
        <ele>24.7</ele>
        <time>2021-09-25T14:23:34.000Z</time>
      </trkpt>
      <trkpt lat="45.67611" lon="-1.11638">
        <ele>25.6</ele>
        <time>2021-09-25T14:23:28.000Z</time>
      </trkpt>
      <trkpt lat="45.67608" lon="-1.11625">
        <ele>27.8</ele>
        <time>2021-09-25T14:23:18.000Z</time>
      </trkpt>
      <trkpt lat="45.67601" lon="-1.11615">
        <ele>26.7</ele>
        <time>2021-09-25T14:23:10.000Z</time>
      </trkpt>
      <trkpt lat="45.67596" lon="-1.11605">
        <ele>26</ele>
        <time>2021-09-25T14:23:07.000Z</time>
      </trkpt>
      <trkpt lat="45.67592" lon="-1.11591">
        <ele>25.3</ele>
        <time>2021-09-25T14:22:55.000Z</time>
      </trkpt>
      <trkpt lat="45.67593" lon="-1.11578">
        <ele>24.7</ele>
        <time>2021-09-25T14:22:48.000Z</time>
      </trkpt>
      <trkpt lat="45.67597" lon="-1.11565">
        <ele>25.6</ele>
        <time>2021-09-25T14:22:37.000Z</time>
      </trkpt>
      <trkpt lat="45.676" lon="-1.11553">
        <ele>26.2</ele>
        <time>2021-09-25T14:22:32.000Z</time>
      </trkpt>
      <trkpt lat="45.67601" lon="-1.11538">
        <ele>27.4</ele>
        <time>2021-09-25T14:22:25.000Z</time>
      </trkpt>
      <trkpt lat="45.67598" lon="-1.11524">
        <ele>27.9</ele>
        <time>2021-09-25T14:22:20.000Z</time>
      </trkpt>
      <trkpt lat="45.67602" lon="-1.11511">
        <ele>29.8</ele>
        <time>2021-09-25T14:22:12.000Z</time>
      </trkpt>
      <trkpt lat="45.67607" lon="-1.11498">
        <ele>31.2</ele>
        <time>2021-09-25T14:22:06.000Z</time>
      </trkpt>
      <trkpt lat="45.67614" lon="-1.11487">
        <ele>31.5</ele>
        <time>2021-09-25T14:21:59.000Z</time>
      </trkpt>
      <trkpt lat="45.67613" lon="-1.11472">
        <ele>31.8</ele>
        <time>2021-09-25T14:21:53.000Z</time>
      </trkpt>
      <trkpt lat="45.67609" lon="-1.11458">
        <ele>31.9</ele>
        <time>2021-09-25T14:21:46.000Z</time>
      </trkpt>
      <trkpt lat="45.67615" lon="-1.11446">
        <ele>32.1</ele>
        <time>2021-09-25T14:21:40.000Z</time>
      </trkpt>
      <trkpt lat="45.67618" lon="-1.11434">
        <ele>32</ele>
        <time>2021-09-25T14:21:35.000Z</time>
      </trkpt>
      <trkpt lat="45.67617" lon="-1.11421">
        <ele>31.6</ele>
        <time>2021-09-25T14:21:28.000Z</time>
      </trkpt>
      <trkpt lat="45.6762" lon="-1.11407">
        <ele>31.1</ele>
        <time>2021-09-25T14:21:19.000Z</time>
      </trkpt>
      <trkpt lat="45.67624" lon="-1.11395">
        <ele>30.8</ele>
        <time>2021-09-25T14:21:13.000Z</time>
      </trkpt>
      <trkpt lat="45.67632" lon="-1.11388">
        <ele>30.5</ele>
        <time>2021-09-25T14:21:09.000Z</time>
      </trkpt>
      <trkpt lat="45.67634" lon="-1.11373">
        <ele>28.7</ele>
        <time>2021-09-25T14:21:02.000Z</time>
      </trkpt>
      <trkpt lat="45.67636" lon="-1.11359">
        <ele>24.2</ele>
        <time>2021-09-25T14:20:55.000Z</time>
      </trkpt>
      <trkpt lat="45.67639" lon="-1.11342">
        <ele>21</ele>
        <time>2021-09-25T14:20:52.000Z</time>
      </trkpt>
      <trkpt lat="45.67634" lon="-1.11329">
        <ele>18.9</ele>
        <time>2021-09-25T14:20:50.000Z</time>
      </trkpt>
      <trkpt lat="45.67632" lon="-1.11311">
        <ele>18.5</ele>
        <time>2021-09-25T14:20:47.000Z</time>
      </trkpt>
      <trkpt lat="45.67624" lon="-1.11294">
        <ele>18.1</ele>
        <time>2021-09-25T14:20:41.000Z</time>
      </trkpt>
      <trkpt lat="45.67618" lon="-1.11284">
        <ele>18</ele>
        <time>2021-09-25T14:20:39.000Z</time>
      </trkpt>
      <trkpt lat="45.6761" lon="-1.11273">
        <ele>18</ele>
        <time>2021-09-25T14:20:32.000Z</time>
      </trkpt>
      <trkpt lat="45.67601" lon="-1.11267">
        <ele>17.9</ele>
        <time>2021-09-25T14:20:22.000Z</time>
      </trkpt>
      <trkpt lat="45.67591" lon="-1.11267">
        <ele>17.9</ele>
        <time>2021-09-25T14:20:14.000Z</time>
      </trkpt>
      <trkpt lat="45.67582" lon="-1.11266">
        <ele>18.6</ele>
        <time>2021-09-25T14:20:01.000Z</time>
      </trkpt>
      <trkpt lat="45.67574" lon="-1.11253">
        <ele>18.7</ele>
        <time>2021-09-25T14:19:59.000Z</time>
      </trkpt>
      <trkpt lat="45.67562" lon="-1.11248">
        <ele>19.7</ele>
        <time>2021-09-25T14:19:50.000Z</time>
      </trkpt>
      <trkpt lat="45.67555" lon="-1.11241">
        <ele>21.1</ele>
        <time>2021-09-25T14:19:41.000Z</time>
      </trkpt>
      <trkpt lat="45.67546" lon="-1.11235">
        <ele>22</ele>
        <time>2021-09-25T14:19:35.000Z</time>
      </trkpt>
      <trkpt lat="45.67537" lon="-1.11233">
        <ele>24.1</ele>
        <time>2021-09-25T14:19:27.000Z</time>
      </trkpt>
      <trkpt lat="45.6753" lon="-1.11224">
        <ele>23.4</ele>
        <time>2021-09-25T14:19:18.000Z</time>
      </trkpt>
      <trkpt lat="45.67527" lon="-1.11211">
        <ele>22</ele>
        <time>2021-09-25T14:19:11.000Z</time>
      </trkpt>
      <trkpt lat="45.67523" lon="-1.11198">
        <ele>21.4</ele>
        <time>2021-09-25T14:19:07.000Z</time>
      </trkpt>
      <trkpt lat="45.67515" lon="-1.11188">
        <ele>21.5</ele>
        <time>2021-09-25T14:19:01.000Z</time>
      </trkpt>
      <trkpt lat="45.67506" lon="-1.11183">
        <ele>21.6</ele>
        <time>2021-09-25T14:18:55.000Z</time>
      </trkpt>
      <trkpt lat="45.67498" lon="-1.11175">
        <ele>21.8</ele>
        <time>2021-09-25T14:18:48.000Z</time>
      </trkpt>
      <trkpt lat="45.67489" lon="-1.11163">
        <ele>20.2</ele>
        <time>2021-09-25T14:18:41.000Z</time>
      </trkpt>
      <trkpt lat="45.67483" lon="-1.11152">
        <ele>18.8</ele>
        <time>2021-09-25T14:18:38.000Z</time>
      </trkpt>
      <trkpt lat="45.67477" lon="-1.11142">
        <ele>18.3</ele>
        <time>2021-09-25T14:18:37.000Z</time>
      </trkpt>
      <trkpt lat="45.67471" lon="-1.11131">
        <ele>16.6</ele>
        <time>2021-09-25T14:18:32.000Z</time>
      </trkpt>
      <trkpt lat="45.67462" lon="-1.11127">
        <ele>15.8</ele>
        <time>2021-09-25T14:18:26.000Z</time>
      </trkpt>
      <trkpt lat="45.67453" lon="-1.1112">
        <ele>15.5</ele>
        <time>2021-09-25T14:18:21.000Z</time>
      </trkpt>
      <trkpt lat="45.67445" lon="-1.11111">
        <ele>14.9</ele>
        <time>2021-09-25T14:18:16.000Z</time>
      </trkpt>
      <trkpt lat="45.67435" lon="-1.11106">
        <ele>14.5</ele>
        <time>2021-09-25T14:18:10.000Z</time>
      </trkpt>
      <trkpt lat="45.67424" lon="-1.11103">
        <ele>14.4</ele>
        <time>2021-09-25T14:18:01.000Z</time>
      </trkpt>
      <trkpt lat="45.67414" lon="-1.11101">
        <ele>14.4</ele>
        <time>2021-09-25T14:17:50.000Z</time>
      </trkpt>
      <trkpt lat="45.67405" lon="-1.11098">
        <ele>14.5</ele>
        <time>2021-09-25T14:17:43.000Z</time>
      </trkpt>
      <trkpt lat="45.67396" lon="-1.11092">
        <ele>14.7</ele>
        <time>2021-09-25T14:17:36.000Z</time>
      </trkpt>
      <trkpt lat="45.67388" lon="-1.11087">
        <ele>15.1</ele>
        <time>2021-09-25T14:17:29.000Z</time>
      </trkpt>
      <trkpt lat="45.6738" lon="-1.11081">
        <ele>15.3</ele>
        <time>2021-09-25T14:17:24.000Z</time>
      </trkpt>
      <trkpt lat="45.67373" lon="-1.11071">
        <ele>15.4</ele>
        <time>2021-09-25T14:17:21.000Z</time>
      </trkpt>
      <trkpt lat="45.67362" lon="-1.11054">
        <ele>15.5</ele>
        <time>2021-09-25T14:17:17.000Z</time>
      </trkpt>
      <trkpt lat="45.67352" lon="-1.11053">
        <ele>15.6</ele>
        <time>2021-09-25T14:17:11.000Z</time>
      </trkpt>
      <trkpt lat="45.67343" lon="-1.11059">
        <ele>15.7</ele>
        <time>2021-09-25T14:17:07.000Z</time>
      </trkpt>
      <trkpt lat="45.67334" lon="-1.1106">
        <ele>16.3</ele>
        <time>2021-09-25T14:16:58.000Z</time>
      </trkpt>
      <trkpt lat="45.67325" lon="-1.11064">
        <ele>16.4</ele>
        <time>2021-09-25T14:16:50.000Z</time>
      </trkpt>
      <trkpt lat="45.67315" lon="-1.11066">
        <ele>15.4</ele>
        <time>2021-09-25T14:16:38.000Z</time>
      </trkpt>
      <trkpt lat="45.67309" lon="-1.11055">
        <ele>15</ele>
        <time>2021-09-25T14:16:36.000Z</time>
      </trkpt>
      <trkpt lat="45.673" lon="-1.11053">
        <ele>14.7</ele>
        <time>2021-09-25T14:16:29.000Z</time>
      </trkpt>
      <trkpt lat="45.6729" lon="-1.11047">
        <ele>15.1</ele>
        <time>2021-09-25T14:16:22.000Z</time>
      </trkpt>
      <trkpt lat="45.67281" lon="-1.11045">
        <ele>17.1</ele>
        <time>2021-09-25T14:16:14.000Z</time>
      </trkpt>
      <trkpt lat="45.67273" lon="-1.11037">
        <ele>19.5</ele>
        <time>2021-09-25T14:16:05.000Z</time>
      </trkpt>
      <trkpt lat="45.67264" lon="-1.11035">
        <ele>19.2</ele>
        <time>2021-09-25T14:15:51.000Z</time>
      </trkpt>
      <trkpt lat="45.67255" lon="-1.11028">
        <ele>17.3</ele>
        <time>2021-09-25T14:15:44.000Z</time>
      </trkpt>
      <trkpt lat="45.67248" lon="-1.11019">
        <ele>18</ele>
        <time>2021-09-25T14:15:40.000Z</time>
      </trkpt>
      <trkpt lat="45.67239" lon="-1.1101">
        <ele>19.8</ele>
        <time>2021-09-25T14:15:32.000Z</time>
      </trkpt>
      <trkpt lat="45.67231" lon="-1.11004">
        <ele>21.4</ele>
        <time>2021-09-25T14:15:24.000Z</time>
      </trkpt>
      <trkpt lat="45.67225" lon="-1.10994">
        <ele>22.5</ele>
        <time>2021-09-25T14:15:18.000Z</time>
      </trkpt>
      <trkpt lat="45.67216" lon="-1.10989">
        <ele>25.2</ele>
        <time>2021-09-25T14:15:09.000Z</time>
      </trkpt>
      <trkpt lat="45.67209" lon="-1.10977">
        <ele>28</ele>
        <time>2021-09-25T14:15:02.000Z</time>
      </trkpt>
      <trkpt lat="45.67202" lon="-1.10968">
        <ele>29.3</ele>
        <time>2021-09-25T14:14:44.000Z</time>
      </trkpt>
      <trkpt lat="45.67193" lon="-1.10966">
        <ele>23.1</ele>
        <time>2021-09-25T14:14:26.000Z</time>
      </trkpt>
      <trkpt lat="45.67194" lon="-1.10952">
        <ele>19.8</ele>
        <time>2021-09-25T14:14:23.000Z</time>
      </trkpt>
      <trkpt lat="45.67194" lon="-1.10934">
        <ele>16.7</ele>
        <time>2021-09-25T14:14:20.000Z</time>
      </trkpt>
      <trkpt lat="45.67193" lon="-1.10921">
        <ele>15.5</ele>
        <time>2021-09-25T14:14:18.000Z</time>
      </trkpt>
      <trkpt lat="45.67188" lon="-1.10902">
        <ele>15.8</ele>
        <time>2021-09-25T14:14:11.000Z</time>
      </trkpt>
      <trkpt lat="45.67181" lon="-1.10892">
        <ele>15.8</ele>
        <time>2021-09-25T14:13:59.000Z</time>
      </trkpt>
      <trkpt lat="45.67175" lon="-1.1088">
        <ele>17</ele>
        <time>2021-09-25T14:13:48.000Z</time>
      </trkpt>
      <trkpt lat="45.67166" lon="-1.10876">
        <ele>18.9</ele>
        <time>2021-09-25T14:13:41.000Z</time>
      </trkpt>
      <trkpt lat="45.67156" lon="-1.10872">
        <ele>20.7</ele>
        <time>2021-09-25T14:13:34.000Z</time>
      </trkpt>
      <trkpt lat="45.67147" lon="-1.1087">
        <ele>23.9</ele>
        <time>2021-09-25T14:13:26.000Z</time>
      </trkpt>
      <trkpt lat="45.67137" lon="-1.10866">
        <ele>25</ele>
        <time>2021-09-25T14:13:18.000Z</time>
      </trkpt>
      <trkpt lat="45.67128" lon="-1.10861">
        <ele>24.3</ele>
        <time>2021-09-25T14:13:12.000Z</time>
      </trkpt>
      <trkpt lat="45.67118" lon="-1.10854">
        <ele>21.4</ele>
        <time>2021-09-25T14:13:06.000Z</time>
      </trkpt>
      <trkpt lat="45.67109" lon="-1.10848">
        <ele>19.6</ele>
        <time>2021-09-25T14:13:02.000Z</time>
      </trkpt>
      <trkpt lat="45.67099" lon="-1.10845">
        <ele>19.3</ele>
        <time>2021-09-25T14:12:53.000Z</time>
      </trkpt>
      <trkpt lat="45.67089" lon="-1.10848">
        <ele>19.5</ele>
        <time>2021-09-25T14:12:47.000Z</time>
      </trkpt>
      <trkpt lat="45.67081" lon="-1.10856">
        <ele>19.9</ele>
        <time>2021-09-25T14:12:41.000Z</time>
      </trkpt>
      <trkpt lat="45.67073" lon="-1.10866">
        <ele>21.2</ele>
        <time>2021-09-25T14:12:34.000Z</time>
      </trkpt>
      <trkpt lat="45.67064" lon="-1.10871">
        <ele>23.5</ele>
        <time>2021-09-25T14:12:28.000Z</time>
      </trkpt>
      <trkpt lat="45.67055" lon="-1.10876">
        <ele>25.3</ele>
        <time>2021-09-25T14:12:19.000Z</time>
      </trkpt>
      <trkpt lat="45.67046" lon="-1.10881">
        <ele>26.4</ele>
        <time>2021-09-25T14:12:13.000Z</time>
      </trkpt>
      <trkpt lat="45.67039" lon="-1.10889">
        <ele>28.3</ele>
        <time>2021-09-25T14:12:04.000Z</time>
      </trkpt>
      <trkpt lat="45.67031" lon="-1.10895">
        <ele>28.8</ele>
        <time>2021-09-25T14:11:59.000Z</time>
      </trkpt>
      <trkpt lat="45.67023" lon="-1.10903">
        <ele>29.6</ele>
        <time>2021-09-25T14:11:53.000Z</time>
      </trkpt>
      <trkpt lat="45.67017" lon="-1.10912">
        <ele>30.9</ele>
        <time>2021-09-25T14:11:46.000Z</time>
      </trkpt>
      <trkpt lat="45.67009" lon="-1.10921">
        <ele>32.3</ele>
        <time>2021-09-25T14:11:39.000Z</time>
      </trkpt>
      <trkpt lat="45.67001" lon="-1.10932">
        <ele>33.8</ele>
        <time>2021-09-25T14:11:34.000Z</time>
      </trkpt>
      <trkpt lat="45.66993" lon="-1.10943">
        <ele>34.5</ele>
        <time>2021-09-25T14:11:31.000Z</time>
      </trkpt>
      <trkpt lat="45.66985" lon="-1.10951">
        <ele>35.9</ele>
        <time>2021-09-25T14:11:23.000Z</time>
      </trkpt>
      <trkpt lat="45.66981" lon="-1.10963">
        <ele>36.6</ele>
        <time>2021-09-25T14:11:17.000Z</time>
      </trkpt>
      <trkpt lat="45.66977" lon="-1.10974">
        <ele>37.9</ele>
        <time>2021-09-25T14:11:10.000Z</time>
      </trkpt>
      <trkpt lat="45.66973" lon="-1.10986">
        <ele>38.4</ele>
        <time>2021-09-25T14:11:05.000Z</time>
      </trkpt>
      <trkpt lat="45.66967" lon="-1.11001">
        <ele>38.5</ele>
        <time>2021-09-25T14:11:01.000Z</time>
      </trkpt>
      <trkpt lat="45.6697" lon="-1.11017">
        <ele>39.4</ele>
        <time>2021-09-25T14:10:53.000Z</time>
      </trkpt>
      <trkpt lat="45.66978" lon="-1.11025">
        <ele>39.9</ele>
        <time>2021-09-25T14:10:47.000Z</time>
      </trkpt>
      <trkpt lat="45.66987" lon="-1.11028">
        <ele>40.5</ele>
        <time>2021-09-25T14:10:37.000Z</time>
      </trkpt>
      <trkpt lat="45.66987" lon="-1.11041">
        <ele>40.5</ele>
        <time>2021-09-25T14:10:30.000Z</time>
      </trkpt>
      <trkpt lat="45.66987" lon="-1.11056">
        <ele>40.5</ele>
        <time>2021-09-25T14:10:25.000Z</time>
      </trkpt>
      <trkpt lat="45.66984" lon="-1.11069">
        <ele>40.5</ele>
        <time>2021-09-25T14:10:20.000Z</time>
      </trkpt>
      <trkpt lat="45.66984" lon="-1.11082">
        <ele>40.5</ele>
        <time>2021-09-25T14:10:13.000Z</time>
      </trkpt>
      <trkpt lat="45.66987" lon="-1.11095">
        <ele>40.4</ele>
        <time>2021-09-25T14:10:06.000Z</time>
      </trkpt>
      <trkpt lat="45.66987" lon="-1.11109">
        <ele>40.2</ele>
        <time>2021-09-25T14:09:57.000Z</time>
      </trkpt>
      <trkpt lat="45.66984" lon="-1.11123">
        <ele>39.7</ele>
        <time>2021-09-25T14:09:52.000Z</time>
      </trkpt>
      <trkpt lat="45.6698" lon="-1.11135">
        <ele>39.5</ele>
        <time>2021-09-25T14:09:47.000Z</time>
      </trkpt>
      <trkpt lat="45.66982" lon="-1.11149">
        <ele>38.7</ele>
        <time>2021-09-25T14:09:40.000Z</time>
      </trkpt>
      <trkpt lat="45.6698" lon="-1.11162">
        <ele>38</ele>
        <time>2021-09-25T14:09:32.000Z</time>
      </trkpt>
      <trkpt lat="45.66978" lon="-1.11179">
        <ele>38</ele>
        <time>2021-09-25T14:09:25.000Z</time>
      </trkpt>
      <trkpt lat="45.66978" lon="-1.11193">
        <ele>38.3</ele>
        <time>2021-09-25T14:09:18.000Z</time>
      </trkpt>
      <trkpt lat="45.66979" lon="-1.11206">
        <ele>38.3</ele>
        <time>2021-09-25T14:09:09.000Z</time>
      </trkpt>
      <trkpt lat="45.66979" lon="-1.1122">
        <ele>38.4</ele>
        <time>2021-09-25T14:09:02.000Z</time>
      </trkpt>
      <trkpt lat="45.66977" lon="-1.11233">
        <ele>38.4</ele>
        <time>2021-09-25T14:08:57.000Z</time>
      </trkpt>
      <trkpt lat="45.66975" lon="-1.11246">
        <ele>38.4</ele>
        <time>2021-09-25T14:08:51.000Z</time>
      </trkpt>
      <trkpt lat="45.66976" lon="-1.1126">
        <ele>38.5</ele>
        <time>2021-09-25T14:08:45.000Z</time>
      </trkpt>
      <trkpt lat="45.66974" lon="-1.11273">
        <ele>38.5</ele>
        <time>2021-09-25T14:08:37.000Z</time>
      </trkpt>
      <trkpt lat="45.66971" lon="-1.11286">
        <ele>37.9</ele>
        <time>2021-09-25T14:08:32.000Z</time>
      </trkpt>
      <trkpt lat="45.66968" lon="-1.113">
        <ele>37.6</ele>
        <time>2021-09-25T14:08:25.000Z</time>
      </trkpt>
      <trkpt lat="45.66967" lon="-1.11313">
        <ele>36.7</ele>
        <time>2021-09-25T14:08:18.000Z</time>
      </trkpt>
      <trkpt lat="45.66966" lon="-1.11327">
        <ele>36.2</ele>
        <time>2021-09-25T14:08:11.000Z</time>
      </trkpt>
      <trkpt lat="45.66963" lon="-1.11339">
        <ele>35.4</ele>
        <time>2021-09-25T14:08:05.000Z</time>
      </trkpt>
      <trkpt lat="45.66956" lon="-1.11352">
        <ele>34.7</ele>
        <time>2021-09-25T14:08:00.000Z</time>
      </trkpt>
      <trkpt lat="45.66954" lon="-1.11366">
        <ele>34.2</ele>
        <time>2021-09-25T14:07:54.000Z</time>
      </trkpt>
      <trkpt lat="45.66956" lon="-1.1138">
        <ele>34.5</ele>
        <time>2021-09-25T14:07:47.000Z</time>
      </trkpt>
      <trkpt lat="45.66954" lon="-1.11395">
        <ele>34.8</ele>
        <time>2021-09-25T14:07:38.000Z</time>
      </trkpt>
      <trkpt lat="45.66952" lon="-1.11408">
        <ele>34.5</ele>
        <time>2021-09-25T14:07:31.000Z</time>
      </trkpt>
      <trkpt lat="45.6695" lon="-1.11421">
        <ele>34.5</ele>
        <time>2021-09-25T14:07:26.000Z</time>
      </trkpt>
      <trkpt lat="45.66949" lon="-1.11435">
        <ele>34.4</ele>
        <time>2021-09-25T14:07:20.000Z</time>
      </trkpt>
      <trkpt lat="45.66946" lon="-1.11449">
        <ele>33.8</ele>
        <time>2021-09-25T14:07:12.000Z</time>
      </trkpt>
      <trkpt lat="45.66946" lon="-1.11462">
        <ele>33.1</ele>
        <time>2021-09-25T14:07:04.000Z</time>
      </trkpt>
      <trkpt lat="45.66945" lon="-1.11476">
        <ele>32.7</ele>
        <time>2021-09-25T14:06:58.000Z</time>
      </trkpt>
      <trkpt lat="45.6694" lon="-1.11492">
        <ele>32.6</ele>
        <time>2021-09-25T14:06:54.000Z</time>
      </trkpt>
      <trkpt lat="45.66939" lon="-1.11505">
        <ele>32.1</ele>
        <time>2021-09-25T14:06:47.000Z</time>
      </trkpt>
      <trkpt lat="45.66939" lon="-1.1152">
        <ele>31.3</ele>
        <time>2021-09-25T14:06:37.000Z</time>
      </trkpt>
      <trkpt lat="45.66937" lon="-1.11532">
        <ele>31.1</ele>
        <time>2021-09-25T14:06:32.000Z</time>
      </trkpt>
      <trkpt lat="45.66938" lon="-1.11545">
        <ele>31.1</ele>
        <time>2021-09-25T14:06:25.000Z</time>
      </trkpt>
      <trkpt lat="45.66937" lon="-1.1156">
        <ele>31.1</ele>
        <time>2021-09-25T14:06:18.000Z</time>
      </trkpt>
      <trkpt lat="45.66934" lon="-1.11576">
        <ele>31.1</ele>
        <time>2021-09-25T14:06:11.000Z</time>
      </trkpt>
      <trkpt lat="45.66932" lon="-1.11589">
        <ele>30.7</ele>
        <time>2021-09-25T14:06:05.000Z</time>
      </trkpt>
      <trkpt lat="45.66928" lon="-1.11603">
        <ele>30.6</ele>
        <time>2021-09-25T14:05:59.000Z</time>
      </trkpt>
      <trkpt lat="45.66927" lon="-1.11617">
        <ele>30.2</ele>
        <time>2021-09-25T14:05:52.000Z</time>
      </trkpt>
      <trkpt lat="45.66927" lon="-1.1163">
        <ele>29.8</ele>
        <time>2021-09-25T14:05:44.000Z</time>
      </trkpt>
      <trkpt lat="45.66926" lon="-1.11643">
        <ele>29.4</ele>
        <time>2021-09-25T14:05:38.000Z</time>
      </trkpt>
      <trkpt lat="45.66923" lon="-1.11657">
        <ele>28.9</ele>
        <time>2021-09-25T14:05:31.000Z</time>
      </trkpt>
      <trkpt lat="45.66922" lon="-1.11671">
        <ele>28.5</ele>
        <time>2021-09-25T14:05:23.000Z</time>
      </trkpt>
      <trkpt lat="45.6692" lon="-1.11684">
        <ele>28</ele>
        <time>2021-09-25T14:05:16.000Z</time>
      </trkpt>
      <trkpt lat="45.66919" lon="-1.11699">
        <ele>26.8</ele>
        <time>2021-09-25T14:05:09.000Z</time>
      </trkpt>
      <trkpt lat="45.66916" lon="-1.11712">
        <ele>25.6</ele>
        <time>2021-09-25T14:05:02.000Z</time>
      </trkpt>
      <trkpt lat="45.66911" lon="-1.11727">
        <ele>24.5</ele>
        <time>2021-09-25T14:04:56.000Z</time>
      </trkpt>
      <trkpt lat="45.6691" lon="-1.11742">
        <ele>23.4</ele>
        <time>2021-09-25T14:04:51.000Z</time>
      </trkpt>
      <trkpt lat="45.66907" lon="-1.11755">
        <ele>21.7</ele>
        <time>2021-09-25T14:04:46.000Z</time>
      </trkpt>
      <trkpt lat="45.66903" lon="-1.11768">
        <ele>18.2</ele>
        <time>2021-09-25T14:04:23.000Z</time>
      </trkpt>
      <trkpt lat="45.66896" lon="-1.11756">
        <ele>18.2</ele>
        <time>2021-09-25T14:04:16.000Z</time>
      </trkpt>
      <trkpt lat="45.66886" lon="-1.11751">
        <ele>18.1</ele>
        <time>2021-09-25T14:04:08.000Z</time>
      </trkpt>
      <trkpt lat="45.66878" lon="-1.11739">
        <ele>17.5</ele>
        <time>2021-09-25T14:04:01.000Z</time>
      </trkpt>
      <trkpt lat="45.66871" lon="-1.11728">
        <ele>17.6</ele>
        <time>2021-09-25T14:03:56.000Z</time>
      </trkpt>
      <trkpt lat="45.66863" lon="-1.11722">
        <ele>18.1</ele>
        <time>2021-09-25T14:03:48.000Z</time>
      </trkpt>
      <trkpt lat="45.66854" lon="-1.11715">
        <ele>18.5</ele>
        <time>2021-09-25T14:03:43.000Z</time>
      </trkpt>
      <trkpt lat="45.66845" lon="-1.11708">
        <ele>18.9</ele>
        <time>2021-09-25T14:03:35.000Z</time>
      </trkpt>
      <trkpt lat="45.6684" lon="-1.11697">
        <ele>18.9</ele>
        <time>2021-09-25T14:03:30.000Z</time>
      </trkpt>
      <trkpt lat="45.66832" lon="-1.1169">
        <ele>18.9</ele>
        <time>2021-09-25T14:03:23.000Z</time>
      </trkpt>
      <trkpt lat="45.66826" lon="-1.11678">
        <ele>18.9</ele>
        <time>2021-09-25T14:03:19.000Z</time>
      </trkpt>
      <trkpt lat="45.66817" lon="-1.11673">
        <ele>18.9</ele>
        <time>2021-09-25T14:03:08.000Z</time>
      </trkpt>
      <trkpt lat="45.6681" lon="-1.11664">
        <ele>18.9</ele>
        <time>2021-09-25T14:03:02.000Z</time>
      </trkpt>
      <trkpt lat="45.66802" lon="-1.11652">
        <ele>18.9</ele>
        <time>2021-09-25T14:02:55.000Z</time>
      </trkpt>
      <trkpt lat="45.66793" lon="-1.11646">
        <ele>19</ele>
        <time>2021-09-25T14:02:46.000Z</time>
      </trkpt>
      <trkpt lat="45.66784" lon="-1.1164">
        <ele>19.4</ele>
        <time>2021-09-25T14:02:40.000Z</time>
      </trkpt>
      <trkpt lat="45.66779" lon="-1.11626">
        <ele>19.7</ele>
        <time>2021-09-25T14:02:35.000Z</time>
      </trkpt>
      <trkpt lat="45.66769" lon="-1.11619">
        <ele>20</ele>
        <time>2021-09-25T14:02:28.000Z</time>
      </trkpt>
      <trkpt lat="45.66762" lon="-1.11611">
        <ele>20.5</ele>
        <time>2021-09-25T14:02:22.000Z</time>
      </trkpt>
      <trkpt lat="45.66753" lon="-1.11607">
        <ele>20.7</ele>
        <time>2021-09-25T14:02:14.000Z</time>
      </trkpt>
      <trkpt lat="45.66744" lon="-1.116">
        <ele>20.8</ele>
        <time>2021-09-25T14:02:07.000Z</time>
      </trkpt>
      <trkpt lat="45.66736" lon="-1.11592">
        <ele>21.2</ele>
        <time>2021-09-25T14:02:00.000Z</time>
      </trkpt>
      <trkpt lat="45.6673" lon="-1.11583">
        <ele>22.1</ele>
        <time>2021-09-25T14:01:55.000Z</time>
      </trkpt>
      <trkpt lat="45.66722" lon="-1.11572">
        <ele>23.9</ele>
        <time>2021-09-25T14:01:49.000Z</time>
      </trkpt>
      <trkpt lat="45.66714" lon="-1.11567">
        <ele>24.7</ele>
        <time>2021-09-25T14:01:41.000Z</time>
      </trkpt>
      <trkpt lat="45.66706" lon="-1.11574">
        <ele>25.7</ele>
        <time>2021-09-25T14:01:31.000Z</time>
      </trkpt>
      <trkpt lat="45.667" lon="-1.11563">
        <ele>25.8</ele>
        <time>2021-09-25T14:01:25.000Z</time>
      </trkpt>
      <trkpt lat="45.66694" lon="-1.11553">
        <ele>23</ele>
        <time>2021-09-25T14:01:17.000Z</time>
      </trkpt>
      <trkpt lat="45.66686" lon="-1.11544">
        <ele>21.7</ele>
        <time>2021-09-25T14:01:12.000Z</time>
      </trkpt>
      <trkpt lat="45.66676" lon="-1.11537">
        <ele>21.7</ele>
        <time>2021-09-25T14:01:05.000Z</time>
      </trkpt>
      <trkpt lat="45.66668" lon="-1.11529">
        <ele>22.7</ele>
        <time>2021-09-25T14:00:59.000Z</time>
      </trkpt>
      <trkpt lat="45.6666" lon="-1.1152">
        <ele>22.4</ele>
        <time>2021-09-25T14:00:53.000Z</time>
      </trkpt>
      <trkpt lat="45.66654" lon="-1.1151">
        <ele>21</ele>
        <time>2021-09-25T14:00:45.000Z</time>
      </trkpt>
      <trkpt lat="45.66646" lon="-1.11499">
        <ele>19.6</ele>
        <time>2021-09-25T14:00:42.000Z</time>
      </trkpt>
      <trkpt lat="45.6664" lon="-1.1149">
        <ele>17</ele>
        <time>2021-09-25T14:00:36.000Z</time>
      </trkpt>
      <trkpt lat="45.66633" lon="-1.11479">
        <ele>15.2</ele>
        <time>2021-09-25T14:00:33.000Z</time>
      </trkpt>
      <trkpt lat="45.66624" lon="-1.11473">
        <ele>14.3</ele>
        <time>2021-09-25T14:00:26.000Z</time>
      </trkpt>
      <trkpt lat="45.66616" lon="-1.11465">
        <ele>14</ele>
        <time>2021-09-25T14:00:19.000Z</time>
      </trkpt>
      <trkpt lat="45.66607" lon="-1.11458">
        <ele>14.2</ele>
        <time>2021-09-25T14:00:11.000Z</time>
      </trkpt>
      <trkpt lat="45.66598" lon="-1.11451">
        <ele>14.2</ele>
        <time>2021-09-25T14:00:04.000Z</time>
      </trkpt>
      <trkpt lat="45.66588" lon="-1.11447">
        <ele>14.2</ele>
        <time>2021-09-25T13:59:58.000Z</time>
      </trkpt>
      <trkpt lat="45.66582" lon="-1.11437">
        <ele>14.2</ele>
        <time>2021-09-25T13:59:53.000Z</time>
      </trkpt>
      <trkpt lat="45.66573" lon="-1.11425">
        <ele>14.5</ele>
        <time>2021-09-25T13:59:47.000Z</time>
      </trkpt>
      <trkpt lat="45.66564" lon="-1.11424">
        <ele>14.8</ele>
        <time>2021-09-25T13:59:41.000Z</time>
      </trkpt>
      <trkpt lat="45.66555" lon="-1.11431">
        <ele>15.4</ele>
        <time>2021-09-25T13:59:36.000Z</time>
      </trkpt>
      <trkpt lat="45.66549" lon="-1.11443">
        <ele>16.3</ele>
        <time>2021-09-25T13:59:28.000Z</time>
      </trkpt>
      <trkpt lat="45.66542" lon="-1.11454">
        <ele>16.5</ele>
        <time>2021-09-25T13:59:21.000Z</time>
      </trkpt>
      <trkpt lat="45.66537" lon="-1.11466">
        <ele>16.5</ele>
        <time>2021-09-25T13:59:15.000Z</time>
      </trkpt>
      <trkpt lat="45.66532" lon="-1.11478">
        <ele>16.6</ele>
        <time>2021-09-25T13:59:09.000Z</time>
      </trkpt>
      <trkpt lat="45.66527" lon="-1.11488">
        <ele>16.9</ele>
        <time>2021-09-25T13:59:03.000Z</time>
      </trkpt>
      <trkpt lat="45.6652" lon="-1.115">
        <ele>17.2</ele>
        <time>2021-09-25T13:58:55.000Z</time>
      </trkpt>
      <trkpt lat="45.66512" lon="-1.1151">
        <ele>18.4</ele>
        <time>2021-09-25T13:58:47.000Z</time>
      </trkpt>
      <trkpt lat="45.66505" lon="-1.11518">
        <ele>18.5</ele>
        <time>2021-09-25T13:58:42.000Z</time>
      </trkpt>
      <trkpt lat="45.66496" lon="-1.11523">
        <ele>18.6</ele>
        <time>2021-09-25T13:58:36.000Z</time>
      </trkpt>
      <trkpt lat="45.66486" lon="-1.11528">
        <ele>17.9</ele>
        <time>2021-09-25T13:58:29.000Z</time>
      </trkpt>
      <trkpt lat="45.66477" lon="-1.11527">
        <ele>17.2</ele>
        <time>2021-09-25T13:58:24.000Z</time>
      </trkpt>
      <trkpt lat="45.66466" lon="-1.11528">
        <ele>16.7</ele>
        <time>2021-09-25T13:58:16.000Z</time>
      </trkpt>
      <trkpt lat="45.66457" lon="-1.11531">
        <ele>15.6</ele>
        <time>2021-09-25T13:58:09.000Z</time>
      </trkpt>
      <trkpt lat="45.66448" lon="-1.11536">
        <ele>14.9</ele>
        <time>2021-09-25T13:58:02.000Z</time>
      </trkpt>
      <trkpt lat="45.66439" lon="-1.11536">
        <ele>14.1</ele>
        <time>2021-09-25T13:57:56.000Z</time>
      </trkpt>
      <trkpt lat="45.66429" lon="-1.11535">
        <ele>13.1</ele>
        <time>2021-09-25T13:57:49.000Z</time>
      </trkpt>
      <trkpt lat="45.6642" lon="-1.11535">
        <ele>12.8</ele>
        <time>2021-09-25T13:57:43.000Z</time>
      </trkpt>
      <trkpt lat="45.66411" lon="-1.11539">
        <ele>12.7</ele>
        <time>2021-09-25T13:57:36.000Z</time>
      </trkpt>
      <trkpt lat="45.66402" lon="-1.11544">
        <ele>12.4</ele>
        <time>2021-09-25T13:57:30.000Z</time>
      </trkpt>
      <trkpt lat="45.66394" lon="-1.11552">
        <ele>12.3</ele>
        <time>2021-09-25T13:57:21.000Z</time>
      </trkpt>
      <trkpt lat="45.66387" lon="-1.11564">
        <ele>12.1</ele>
        <time>2021-09-25T13:57:15.000Z</time>
      </trkpt>
      <trkpt lat="45.66379" lon="-1.11573">
        <ele>11.9</ele>
        <time>2021-09-25T13:57:09.000Z</time>
      </trkpt>
      <trkpt lat="45.6637" lon="-1.11576">
        <ele>11.7</ele>
        <time>2021-09-25T13:57:03.000Z</time>
      </trkpt>
      <trkpt lat="45.66362" lon="-1.11588">
        <ele>12.1</ele>
        <time>2021-09-25T13:56:57.000Z</time>
      </trkpt>
      <trkpt lat="45.66356" lon="-1.11599">
        <ele>12.2</ele>
        <time>2021-09-25T13:56:52.000Z</time>
      </trkpt>
      <trkpt lat="45.66348" lon="-1.11608">
        <ele>12.6</ele>
        <time>2021-09-25T13:56:44.000Z</time>
      </trkpt>
      <trkpt lat="45.66341" lon="-1.11617">
        <ele>12.9</ele>
        <time>2021-09-25T13:56:38.000Z</time>
      </trkpt>
      <trkpt lat="45.66333" lon="-1.11625">
        <ele>13.1</ele>
        <time>2021-09-25T13:56:33.000Z</time>
      </trkpt>
      <trkpt lat="45.66325" lon="-1.1163">
        <ele>13.7</ele>
        <time>2021-09-25T13:56:24.000Z</time>
      </trkpt>
      <trkpt lat="45.66317" lon="-1.11638">
        <ele>14.2</ele>
        <time>2021-09-25T13:56:17.000Z</time>
      </trkpt>
      <trkpt lat="45.6631" lon="-1.11646">
        <ele>14.4</ele>
        <time>2021-09-25T13:56:11.000Z</time>
      </trkpt>
      <trkpt lat="45.66303" lon="-1.11655">
        <ele>14.6</ele>
        <time>2021-09-25T13:56:05.000Z</time>
      </trkpt>
      <trkpt lat="45.66295" lon="-1.11664">
        <ele>15.3</ele>
        <time>2021-09-25T13:55:58.000Z</time>
      </trkpt>
      <trkpt lat="45.66287" lon="-1.11672">
        <ele>15.6</ele>
        <time>2021-09-25T13:55:53.000Z</time>
      </trkpt>
      <trkpt lat="45.6628" lon="-1.11682">
        <ele>15.9</ele>
        <time>2021-09-25T13:55:46.000Z</time>
      </trkpt>
      <trkpt lat="45.66273" lon="-1.11694">
        <ele>15.9</ele>
        <time>2021-09-25T13:55:40.000Z</time>
      </trkpt>
      <trkpt lat="45.66267" lon="-1.11704">
        <ele>15.6</ele>
        <time>2021-09-25T13:55:34.000Z</time>
      </trkpt>
      <trkpt lat="45.66262" lon="-1.11716">
        <ele>15.5</ele>
        <time>2021-09-25T13:55:26.000Z</time>
      </trkpt>
      <trkpt lat="45.66259" lon="-1.1173">
        <ele>15.5</ele>
        <time>2021-09-25T13:55:20.000Z</time>
      </trkpt>
      <trkpt lat="45.66254" lon="-1.11742">
        <ele>15.5</ele>
        <time>2021-09-25T13:55:14.000Z</time>
      </trkpt>
      <trkpt lat="45.66248" lon="-1.11755">
        <ele>15.5</ele>
        <time>2021-09-25T13:55:05.000Z</time>
      </trkpt>
      <trkpt lat="45.66246" lon="-1.11769">
        <ele>15.5</ele>
        <time>2021-09-25T13:54:59.000Z</time>
      </trkpt>
      <trkpt lat="45.6624" lon="-1.1178">
        <ele>15.5</ele>
        <time>2021-09-25T13:54:54.000Z</time>
      </trkpt>
      <trkpt lat="45.66231" lon="-1.11785">
        <ele>16.1</ele>
        <time>2021-09-25T13:54:29.000Z</time>
      </trkpt>
      <trkpt lat="45.6623" lon="-1.11772">
        <ele>15.9</ele>
        <time>2021-09-25T13:53:51.000Z</time>
      </trkpt>
      <trkpt lat="45.66221" lon="-1.11778">
        <ele>15.9</ele>
        <time>2021-09-25T13:53:41.000Z</time>
      </trkpt>
      <trkpt lat="45.66212" lon="-1.1178">
        <ele>15.1</ele>
        <time>2021-09-25T13:53:17.000Z</time>
      </trkpt>
      <trkpt lat="45.66221" lon="-1.11782">
        <ele>15.4</ele>
        <time>2021-09-25T13:53:06.000Z</time>
      </trkpt>
      <trkpt lat="45.66227" lon="-1.11771">
        <ele>15.3</ele>
        <time>2021-09-25T13:52:10.000Z</time>
      </trkpt>
      <trkpt lat="45.66233" lon="-1.11781">
        <ele>15.9</ele>
        <time>2021-09-25T13:51:48.000Z</time>
      </trkpt>
      <trkpt lat="45.66224" lon="-1.11778">
        <ele>16</ele>
        <time>2021-09-25T13:51:34.000Z</time>
      </trkpt>
      <trkpt lat="45.66214" lon="-1.11776">
        <ele>16</ele>
        <time>2021-09-25T13:51:27.000Z</time>
      </trkpt>
      <trkpt lat="45.66206" lon="-1.1177">
        <ele>16</ele>
        <time>2021-09-25T13:51:21.000Z</time>
      </trkpt>
      <trkpt lat="45.66199" lon="-1.11759">
        <ele>16</ele>
        <time>2021-09-25T13:51:15.000Z</time>
      </trkpt>
      <trkpt lat="45.66191" lon="-1.11751">
        <ele>16</ele>
        <time>2021-09-25T13:51:07.000Z</time>
      </trkpt>
      <trkpt lat="45.66184" lon="-1.11741">
        <ele>16.1</ele>
        <time>2021-09-25T13:51:01.000Z</time>
      </trkpt>
      <trkpt lat="45.66176" lon="-1.11731">
        <ele>16.6</ele>
        <time>2021-09-25T13:50:55.000Z</time>
      </trkpt>
      <trkpt lat="45.66168" lon="-1.11723">
        <ele>16.8</ele>
        <time>2021-09-25T13:50:50.000Z</time>
      </trkpt>
      <trkpt lat="45.66159" lon="-1.11718">
        <ele>16.8</ele>
        <time>2021-09-25T13:50:43.000Z</time>
      </trkpt>
      <trkpt lat="45.66151" lon="-1.11711">
        <ele>16.9</ele>
        <time>2021-09-25T13:50:36.000Z</time>
      </trkpt>
      <trkpt lat="45.66143" lon="-1.11701">
        <ele>17</ele>
        <time>2021-09-25T13:50:29.000Z</time>
      </trkpt>
      <trkpt lat="45.66136" lon="-1.11692">
        <ele>17.2</ele>
        <time>2021-09-25T13:50:23.000Z</time>
      </trkpt>
      <trkpt lat="45.66128" lon="-1.11686">
        <ele>18.2</ele>
        <time>2021-09-25T13:50:17.000Z</time>
      </trkpt>
      <trkpt lat="45.66121" lon="-1.11675">
        <ele>19.2</ele>
        <time>2021-09-25T13:50:11.000Z</time>
      </trkpt>
      <trkpt lat="45.66113" lon="-1.11667">
        <ele>20</ele>
        <time>2021-09-25T13:50:05.000Z</time>
      </trkpt>
      <trkpt lat="45.66105" lon="-1.11656">
        <ele>20.8</ele>
        <time>2021-09-25T13:49:58.000Z</time>
      </trkpt>
      <trkpt lat="45.66099" lon="-1.11646">
        <ele>20.9</ele>
        <time>2021-09-25T13:49:52.000Z</time>
      </trkpt>
      <trkpt lat="45.66093" lon="-1.11635">
        <ele>20.8</ele>
        <time>2021-09-25T13:49:45.000Z</time>
      </trkpt>
      <trkpt lat="45.66087" lon="-1.11624">
        <ele>20.7</ele>
        <time>2021-09-25T13:49:38.000Z</time>
      </trkpt>
      <trkpt lat="45.66079" lon="-1.11615">
        <ele>20.1</ele>
        <time>2021-09-25T13:49:31.000Z</time>
      </trkpt>
      <trkpt lat="45.66072" lon="-1.11604">
        <ele>19.2</ele>
        <time>2021-09-25T13:49:24.000Z</time>
      </trkpt>
      <trkpt lat="45.66065" lon="-1.11593">
        <ele>18.5</ele>
        <time>2021-09-25T13:49:17.000Z</time>
      </trkpt>
      <trkpt lat="45.66059" lon="-1.11582">
        <ele>18.2</ele>
        <time>2021-09-25T13:49:12.000Z</time>
      </trkpt>
      <trkpt lat="45.66053" lon="-1.11572">
        <ele>17.5</ele>
        <time>2021-09-25T13:49:05.000Z</time>
      </trkpt>
      <trkpt lat="45.66046" lon="-1.11563">
        <ele>17.5</ele>
        <time>2021-09-25T13:48:58.000Z</time>
      </trkpt>
      <trkpt lat="45.66038" lon="-1.11554">
        <ele>17.6</ele>
        <time>2021-09-25T13:48:52.000Z</time>
      </trkpt>
      <trkpt lat="45.66029" lon="-1.11545">
        <ele>17.6</ele>
        <time>2021-09-25T13:48:46.000Z</time>
      </trkpt>
      <trkpt lat="45.66024" lon="-1.11533">
        <ele>17.8</ele>
        <time>2021-09-25T13:48:38.000Z</time>
      </trkpt>
      <trkpt lat="45.66019" lon="-1.11521">
        <ele>17.8</ele>
        <time>2021-09-25T13:48:31.000Z</time>
      </trkpt>
      <trkpt lat="45.66013" lon="-1.1151">
        <ele>17.7</ele>
        <time>2021-09-25T13:48:24.000Z</time>
      </trkpt>
      <trkpt lat="45.66008" lon="-1.11498">
        <ele>17.2</ele>
        <time>2021-09-25T13:48:18.000Z</time>
      </trkpt>
      <trkpt lat="45.66002" lon="-1.11487">
        <ele>17</ele>
        <time>2021-09-25T13:48:13.000Z</time>
      </trkpt>
      <trkpt lat="45.65996" lon="-1.11477">
        <ele>16.9</ele>
        <time>2021-09-25T13:48:09.000Z</time>
      </trkpt>
      <trkpt lat="45.65993" lon="-1.11463">
        <ele>16.9</ele>
        <time>2021-09-25T13:48:06.000Z</time>
      </trkpt>
      <trkpt lat="45.65984" lon="-1.11449">
        <ele>16.7</ele>
        <time>2021-09-25T13:48:03.000Z</time>
      </trkpt>
      <trkpt lat="45.65982" lon="-1.11436">
        <ele>16.6</ele>
        <time>2021-09-25T13:48:01.000Z</time>
      </trkpt>
      <trkpt lat="45.65977" lon="-1.11419">
        <ele>16.6</ele>
        <time>2021-09-25T13:47:58.000Z</time>
      </trkpt>
      <trkpt lat="45.65972" lon="-1.11406">
        <ele>16.6</ele>
        <time>2021-09-25T13:47:56.000Z</time>
      </trkpt>
      <trkpt lat="45.65968" lon="-1.11392">
        <ele>16.8</ele>
        <time>2021-09-25T13:47:53.000Z</time>
      </trkpt>
      <trkpt lat="45.65967" lon="-1.11376">
        <ele>17.2</ele>
        <time>2021-09-25T13:47:50.000Z</time>
      </trkpt>
      <trkpt lat="45.65965" lon="-1.11361">
        <ele>17.4</ele>
        <time>2021-09-25T13:47:47.000Z</time>
      </trkpt>
      <trkpt lat="45.6596" lon="-1.11349">
        <ele>17.5</ele>
        <time>2021-09-25T13:47:44.000Z</time>
      </trkpt>
      <trkpt lat="45.65958" lon="-1.11335">
        <ele>17.8</ele>
        <time>2021-09-25T13:47:41.000Z</time>
      </trkpt>
      <trkpt lat="45.65955" lon="-1.11323">
        <ele>18.2</ele>
        <time>2021-09-25T13:47:39.000Z</time>
      </trkpt>
      <trkpt lat="45.65951" lon="-1.11308">
        <ele>18.5</ele>
        <time>2021-09-25T13:47:35.000Z</time>
      </trkpt>
      <trkpt lat="45.65949" lon="-1.11291">
        <ele>18.5</ele>
        <time>2021-09-25T13:47:31.000Z</time>
      </trkpt>
      <trkpt lat="45.65945" lon="-1.11277">
        <ele>18.5</ele>
        <time>2021-09-25T13:47:27.000Z</time>
      </trkpt>
      <trkpt lat="45.65942" lon="-1.11261">
        <ele>18.5</ele>
        <time>2021-09-25T13:47:19.000Z</time>
      </trkpt>
      <trkpt lat="45.65938" lon="-1.11249">
        <ele>18.8</ele>
        <time>2021-09-25T13:47:11.000Z</time>
      </trkpt>
      <trkpt lat="45.65938" lon="-1.11236">
        <ele>19.2</ele>
        <time>2021-09-25T13:46:59.000Z</time>
      </trkpt>
      <trkpt lat="45.65933" lon="-1.11224">
        <ele>19.6</ele>
        <time>2021-09-25T13:46:52.000Z</time>
      </trkpt>
      <trkpt lat="45.65924" lon="-1.1122">
        <ele>21.3</ele>
        <time>2021-09-25T13:46:46.000Z</time>
      </trkpt>
      <trkpt lat="45.65915" lon="-1.11216">
        <ele>21.5</ele>
        <time>2021-09-25T13:46:40.000Z</time>
      </trkpt>
      <trkpt lat="45.65902" lon="-1.11215">
        <ele>21.4</ele>
        <time>2021-09-25T13:46:32.000Z</time>
      </trkpt>
      <trkpt lat="45.65893" lon="-1.1122">
        <ele>21</ele>
        <time>2021-09-25T13:46:25.000Z</time>
      </trkpt>
      <trkpt lat="45.65884" lon="-1.11229">
        <ele>20.2</ele>
        <time>2021-09-25T13:46:18.000Z</time>
      </trkpt>
      <trkpt lat="45.65875" lon="-1.11237">
        <ele>19.7</ele>
        <time>2021-09-25T13:46:13.000Z</time>
      </trkpt>
      <trkpt lat="45.65868" lon="-1.11245">
        <ele>19.6</ele>
        <time>2021-09-25T13:46:07.000Z</time>
      </trkpt>
      <trkpt lat="45.6586" lon="-1.11255">
        <ele>19.6</ele>
        <time>2021-09-25T13:45:59.000Z</time>
      </trkpt>
      <trkpt lat="45.65852" lon="-1.11262">
        <ele>19.7</ele>
        <time>2021-09-25T13:45:52.000Z</time>
      </trkpt>
      <trkpt lat="45.65845" lon="-1.11271">
        <ele>19.7</ele>
        <time>2021-09-25T13:45:44.000Z</time>
      </trkpt>
      <trkpt lat="45.65836" lon="-1.11278">
        <ele>19.9</ele>
        <time>2021-09-25T13:45:38.000Z</time>
      </trkpt>
      <trkpt lat="45.65829" lon="-1.11287">
        <ele>20.1</ele>
        <time>2021-09-25T13:45:33.000Z</time>
      </trkpt>
      <trkpt lat="45.65821" lon="-1.11295">
        <ele>21.2</ele>
        <time>2021-09-25T13:45:25.000Z</time>
      </trkpt>
      <trkpt lat="45.65812" lon="-1.11302">
        <ele>23.2</ele>
        <time>2021-09-25T13:45:18.000Z</time>
      </trkpt>
      <trkpt lat="45.65804" lon="-1.11311">
        <ele>25.3</ele>
        <time>2021-09-25T13:45:12.000Z</time>
      </trkpt>
      <trkpt lat="45.65797" lon="-1.1132">
        <ele>26.9</ele>
        <time>2021-09-25T13:45:06.000Z</time>
      </trkpt>
      <trkpt lat="45.65791" lon="-1.11329">
        <ele>28.2</ele>
        <time>2021-09-25T13:45:00.000Z</time>
      </trkpt>
      <trkpt lat="45.65784" lon="-1.11339">
        <ele>27.8</ele>
        <time>2021-09-25T13:44:53.000Z</time>
      </trkpt>
      <trkpt lat="45.65779" lon="-1.1135">
        <ele>27.7</ele>
        <time>2021-09-25T13:44:47.000Z</time>
      </trkpt>
      <trkpt lat="45.65773" lon="-1.11362">
        <ele>26.9</ele>
        <time>2021-09-25T13:44:40.000Z</time>
      </trkpt>
      <trkpt lat="45.65767" lon="-1.11373">
        <ele>26</ele>
        <time>2021-09-25T13:44:33.000Z</time>
      </trkpt>
      <trkpt lat="45.6576" lon="-1.11384">
        <ele>24.7</ele>
        <time>2021-09-25T13:44:27.000Z</time>
      </trkpt>
      <trkpt lat="45.65754" lon="-1.11395">
        <ele>22</ele>
        <time>2021-09-25T13:44:22.000Z</time>
      </trkpt>
      <trkpt lat="45.65749" lon="-1.11407">
        <ele>20.7</ele>
        <time>2021-09-25T13:44:18.000Z</time>
      </trkpt>
      <trkpt lat="45.65743" lon="-1.11417">
        <ele>19.3</ele>
        <time>2021-09-25T13:44:13.000Z</time>
      </trkpt>
      <trkpt lat="45.65738" lon="-1.11427">
        <ele>18</ele>
        <time>2021-09-25T13:44:08.000Z</time>
      </trkpt>
      <trkpt lat="45.65731" lon="-1.11436">
        <ele>16.9</ele>
        <time>2021-09-25T13:44:02.000Z</time>
      </trkpt>
      <trkpt lat="45.65725" lon="-1.11446">
        <ele>16.7</ele>
        <time>2021-09-25T13:43:56.000Z</time>
      </trkpt>
      <trkpt lat="45.65716" lon="-1.11452">
        <ele>16.6</ele>
        <time>2021-09-25T13:43:48.000Z</time>
      </trkpt>
      <trkpt lat="45.65706" lon="-1.11453">
        <ele>15.6</ele>
        <time>2021-09-25T13:42:41.000Z</time>
      </trkpt>
      <trkpt lat="45.65699" lon="-1.11461">
        <ele>15.6</ele>
        <time>2021-09-25T13:42:33.000Z</time>
      </trkpt>
      <trkpt lat="45.65693" lon="-1.11473">
        <ele>15.6</ele>
        <time>2021-09-25T13:42:26.000Z</time>
      </trkpt>
      <trkpt lat="45.65687" lon="-1.11485">
        <ele>15.6</ele>
        <time>2021-09-25T13:42:20.000Z</time>
      </trkpt>
      <trkpt lat="45.65682" lon="-1.11497">
        <ele>15.2</ele>
        <time>2021-09-25T13:42:13.000Z</time>
      </trkpt>
      <trkpt lat="45.65677" lon="-1.11508">
        <ele>15.6</ele>
        <time>2021-09-25T13:39:59.000Z</time>
      </trkpt>
      <trkpt lat="45.65667" lon="-1.11509">
        <ele>15.9</ele>
        <time>2021-09-25T13:39:35.000Z</time>
      </trkpt>
      <trkpt lat="45.65676" lon="-1.11504">
        <ele>15.6</ele>
        <time>2021-09-25T13:39:27.000Z</time>
      </trkpt>
      <trkpt lat="45.65685" lon="-1.115">
        <ele>15.4</ele>
        <time>2021-09-25T13:38:38.000Z</time>
      </trkpt>
      <trkpt lat="45.65676" lon="-1.11505">
        <ele>15.7</ele>
        <time>2021-09-25T13:37:35.000Z</time>
      </trkpt>
      <trkpt lat="45.65678" lon="-1.11518">
        <ele>15.8</ele>
        <time>2021-09-25T13:34:09.000Z</time>
      </trkpt>
      <trkpt lat="45.65669" lon="-1.11521">
        <ele>15.5</ele>
        <time>2021-09-25T13:34:01.000Z</time>
      </trkpt>
      <trkpt lat="45.6566" lon="-1.11524">
        <ele>15.1</ele>
        <time>2021-09-25T13:33:54.000Z</time>
      </trkpt>
      <trkpt lat="45.65651" lon="-1.11529">
        <ele>14.9</ele>
        <time>2021-09-25T13:33:48.000Z</time>
      </trkpt>
      <trkpt lat="45.65641" lon="-1.11532">
        <ele>14.9</ele>
        <time>2021-09-25T13:33:42.000Z</time>
      </trkpt>
      <trkpt lat="45.65631" lon="-1.11531">
        <ele>15.1</ele>
        <time>2021-09-25T13:33:36.000Z</time>
      </trkpt>
      <trkpt lat="45.65621" lon="-1.1153">
        <ele>15.3</ele>
        <time>2021-09-25T13:33:30.000Z</time>
      </trkpt>
      <trkpt lat="45.65612" lon="-1.11525">
        <ele>15.3</ele>
        <time>2021-09-25T13:33:24.000Z</time>
      </trkpt>
      <trkpt lat="45.65604" lon="-1.11517">
        <ele>15.4</ele>
        <time>2021-09-25T13:33:18.000Z</time>
      </trkpt>
      <trkpt lat="45.65596" lon="-1.1151">
        <ele>15.6</ele>
        <time>2021-09-25T13:33:12.000Z</time>
      </trkpt>
      <trkpt lat="45.65585" lon="-1.11514">
        <ele>16</ele>
        <time>2021-09-25T13:33:05.000Z</time>
      </trkpt>
      <trkpt lat="45.65578" lon="-1.11521">
        <ele>15.7</ele>
        <time>2021-09-25T13:32:58.000Z</time>
      </trkpt>
      <trkpt lat="45.65572" lon="-1.11532">
        <ele>15.6</ele>
        <time>2021-09-25T13:32:53.000Z</time>
      </trkpt>
      <trkpt lat="45.65568" lon="-1.11544">
        <ele>15.3</ele>
        <time>2021-09-25T13:32:47.000Z</time>
      </trkpt>
      <trkpt lat="45.65561" lon="-1.11554">
        <ele>14.9</ele>
        <time>2021-09-25T13:32:42.000Z</time>
      </trkpt>
      <trkpt lat="45.65561" lon="-1.11569">
        <ele>13.6</ele>
        <time>2021-09-25T13:32:36.000Z</time>
      </trkpt>
      <trkpt lat="45.65561" lon="-1.11583">
        <ele>13.2</ele>
        <time>2021-09-25T13:32:30.000Z</time>
      </trkpt>
      <trkpt lat="45.65563" lon="-1.11598">
        <ele>12.4</ele>
        <time>2021-09-25T13:32:23.000Z</time>
      </trkpt>
      <trkpt lat="45.65565" lon="-1.11612">
        <ele>11.8</ele>
        <time>2021-09-25T13:32:16.000Z</time>
      </trkpt>
      <trkpt lat="45.65562" lon="-1.11626">
        <ele>11.8</ele>
        <time>2021-09-25T13:32:11.000Z</time>
      </trkpt>
      <trkpt lat="45.65566" lon="-1.11639">
        <ele>11.8</ele>
        <time>2021-09-25T13:32:04.000Z</time>
      </trkpt>
      <trkpt lat="45.65567" lon="-1.11653">
        <ele>11.5</ele>
        <time>2021-09-25T13:31:57.000Z</time>
      </trkpt>
      <trkpt lat="45.65568" lon="-1.11668">
        <ele>10.9</ele>
        <time>2021-09-25T13:31:50.000Z</time>
      </trkpt>
      <trkpt lat="45.65566" lon="-1.11683">
        <ele>10.8</ele>
        <time>2021-09-25T13:31:43.000Z</time>
      </trkpt>
      <trkpt lat="45.65558" lon="-1.1169">
        <ele>11.4</ele>
        <time>2021-09-25T13:31:38.000Z</time>
      </trkpt>
      <trkpt lat="45.65551" lon="-1.11699">
        <ele>13</ele>
        <time>2021-09-25T13:31:32.000Z</time>
      </trkpt>
      <trkpt lat="45.65545" lon="-1.1171">
        <ele>14.4</ele>
        <time>2021-09-25T13:31:26.000Z</time>
      </trkpt>
      <trkpt lat="45.65538" lon="-1.11721">
        <ele>15.4</ele>
        <time>2021-09-25T13:31:20.000Z</time>
      </trkpt>
      <trkpt lat="45.65531" lon="-1.1173">
        <ele>16.5</ele>
        <time>2021-09-25T13:31:15.000Z</time>
      </trkpt>
      <trkpt lat="45.65524" lon="-1.1174">
        <ele>18.1</ele>
        <time>2021-09-25T13:31:09.000Z</time>
      </trkpt>
      <trkpt lat="45.65517" lon="-1.11749">
        <ele>19.5</ele>
        <time>2021-09-25T13:31:02.000Z</time>
      </trkpt>
      <trkpt lat="45.65511" lon="-1.11759">
        <ele>19.8</ele>
        <time>2021-09-25T13:30:57.000Z</time>
      </trkpt>
      <trkpt lat="45.65505" lon="-1.1177">
        <ele>20.1</ele>
        <time>2021-09-25T13:30:51.000Z</time>
      </trkpt>
      <trkpt lat="45.65497" lon="-1.11779">
        <ele>20.2</ele>
        <time>2021-09-25T13:30:44.000Z</time>
      </trkpt>
      <trkpt lat="45.65491" lon="-1.11791">
        <ele>20.4</ele>
        <time>2021-09-25T13:30:38.000Z</time>
      </trkpt>
      <trkpt lat="45.65485" lon="-1.11801">
        <ele>20.8</ele>
        <time>2021-09-25T13:30:32.000Z</time>
      </trkpt>
      <trkpt lat="45.65478" lon="-1.11811">
        <ele>21</ele>
        <time>2021-09-25T13:30:27.000Z</time>
      </trkpt>
      <trkpt lat="45.65471" lon="-1.11818">
        <ele>21.3</ele>
        <time>2021-09-25T13:30:22.000Z</time>
      </trkpt>
      <trkpt lat="45.65463" lon="-1.11827">
        <ele>21.3</ele>
        <time>2021-09-25T13:30:16.000Z</time>
      </trkpt>
      <trkpt lat="45.65456" lon="-1.11837">
        <ele>21.2</ele>
        <time>2021-09-25T13:30:10.000Z</time>
      </trkpt>
      <trkpt lat="45.65448" lon="-1.11847">
        <ele>20.6</ele>
        <time>2021-09-25T13:30:04.000Z</time>
      </trkpt>
      <trkpt lat="45.65443" lon="-1.11857">
        <ele>20.5</ele>
        <time>2021-09-25T13:29:59.000Z</time>
      </trkpt>
      <trkpt lat="45.65436" lon="-1.11867">
        <ele>20.1</ele>
        <time>2021-09-25T13:29:53.000Z</time>
      </trkpt>
      <trkpt lat="45.6543" lon="-1.11876">
        <ele>19.4</ele>
        <time>2021-09-25T13:29:47.000Z</time>
      </trkpt>
      <trkpt lat="45.65422" lon="-1.11884">
        <ele>18.4</ele>
        <time>2021-09-25T13:29:41.000Z</time>
      </trkpt>
      <trkpt lat="45.65416" lon="-1.11894">
        <ele>17.6</ele>
        <time>2021-09-25T13:29:38.000Z</time>
      </trkpt>
      <trkpt lat="45.65409" lon="-1.11905">
        <ele>15.2</ele>
        <time>2021-09-25T13:29:31.000Z</time>
      </trkpt>
      <trkpt lat="45.65401" lon="-1.11914">
        <ele>14.4</ele>
        <time>2021-09-25T13:29:25.000Z</time>
      </trkpt>
      <trkpt lat="45.65395" lon="-1.11925">
        <ele>13.9</ele>
        <time>2021-09-25T13:29:21.000Z</time>
      </trkpt>
      <trkpt lat="45.65387" lon="-1.11937">
        <ele>13.2</ele>
        <time>2021-09-25T13:29:15.000Z</time>
      </trkpt>
      <trkpt lat="45.65381" lon="-1.11948">
        <ele>13</ele>
        <time>2021-09-25T13:29:08.000Z</time>
      </trkpt>
      <trkpt lat="45.65374" lon="-1.11958">
        <ele>13</ele>
        <time>2021-09-25T13:29:01.000Z</time>
      </trkpt>
      <trkpt lat="45.65367" lon="-1.11967">
        <ele>13.3</ele>
        <time>2021-09-25T13:28:56.000Z</time>
      </trkpt>
      <trkpt lat="45.65365" lon="-1.11983">
        <ele>13.3</ele>
        <time>2021-09-25T13:28:49.000Z</time>
      </trkpt>
      <trkpt lat="45.65371" lon="-1.11996">
        <ele>13.2</ele>
        <time>2021-09-25T13:28:41.000Z</time>
      </trkpt>
      <trkpt lat="45.65375" lon="-1.12008">
        <ele>12.8</ele>
        <time>2021-09-25T13:28:35.000Z</time>
      </trkpt>
      <trkpt lat="45.65379" lon="-1.12021">
        <ele>12.8</ele>
        <time>2021-09-25T13:28:29.000Z</time>
      </trkpt>
      <trkpt lat="45.65383" lon="-1.12033">
        <ele>12.8</ele>
        <time>2021-09-25T13:28:22.000Z</time>
      </trkpt>
      <trkpt lat="45.65383" lon="-1.12048">
        <ele>12.8</ele>
        <time>2021-09-25T13:28:15.000Z</time>
      </trkpt>
      <trkpt lat="45.65377" lon="-1.12059">
        <ele>12.8</ele>
        <time>2021-09-25T13:28:10.000Z</time>
      </trkpt>
      <trkpt lat="45.65371" lon="-1.1207">
        <ele>12.9</ele>
        <time>2021-09-25T13:28:04.000Z</time>
      </trkpt>
      <trkpt lat="45.65366" lon="-1.12081">
        <ele>13</ele>
        <time>2021-09-25T13:27:58.000Z</time>
      </trkpt>
      <trkpt lat="45.65359" lon="-1.12091">
        <ele>13.1</ele>
        <time>2021-09-25T13:27:53.000Z</time>
      </trkpt>
      <trkpt lat="45.65351" lon="-1.12103">
        <ele>13.1</ele>
        <time>2021-09-25T13:27:47.000Z</time>
      </trkpt>
      <trkpt lat="45.65346" lon="-1.12115">
        <ele>13.2</ele>
        <time>2021-09-25T13:27:40.000Z</time>
      </trkpt>
      <trkpt lat="45.6534" lon="-1.12126">
        <ele>13.3</ele>
        <time>2021-09-25T13:27:34.000Z</time>
      </trkpt>
      <trkpt lat="45.65333" lon="-1.12135">
        <ele>13.7</ele>
        <time>2021-09-25T13:27:28.000Z</time>
      </trkpt>
      <trkpt lat="45.65326" lon="-1.12145">
        <ele>13.7</ele>
        <time>2021-09-25T13:27:22.000Z</time>
      </trkpt>
      <trkpt lat="45.65321" lon="-1.12157">
        <ele>13.8</ele>
        <time>2021-09-25T13:27:16.000Z</time>
      </trkpt>
      <trkpt lat="45.65315" lon="-1.12169">
        <ele>14.1</ele>
        <time>2021-09-25T13:27:08.000Z</time>
      </trkpt>
      <trkpt lat="45.65305" lon="-1.12169">
        <ele>14.7</ele>
        <time>2021-09-25T13:27:01.000Z</time>
      </trkpt>
      <trkpt lat="45.65296" lon="-1.12167">
        <ele>14.9</ele>
        <time>2021-09-25T13:26:55.000Z</time>
      </trkpt>
      <trkpt lat="45.65286" lon="-1.12165">
        <ele>15</ele>
        <time>2021-09-25T13:26:49.000Z</time>
      </trkpt>
      <trkpt lat="45.65277" lon="-1.12163">
        <ele>15.1</ele>
        <time>2021-09-25T13:26:43.000Z</time>
      </trkpt>
      <trkpt lat="45.65268" lon="-1.12163">
        <ele>15.1</ele>
        <time>2021-09-25T13:26:38.000Z</time>
      </trkpt>
      <trkpt lat="45.65257" lon="-1.12162">
        <ele>15.1</ele>
        <time>2021-09-25T13:26:31.000Z</time>
      </trkpt>
      <trkpt lat="45.65247" lon="-1.12161">
        <ele>15.1</ele>
        <time>2021-09-25T13:26:25.000Z</time>
      </trkpt>
      <trkpt lat="45.65238" lon="-1.1216">
        <ele>15.1</ele>
        <time>2021-09-25T13:26:19.000Z</time>
      </trkpt>
      <trkpt lat="45.65229" lon="-1.1216">
        <ele>15.1</ele>
        <time>2021-09-25T13:26:13.000Z</time>
      </trkpt>
      <trkpt lat="45.6522" lon="-1.12159">
        <ele>15.1</ele>
        <time>2021-09-25T13:26:07.000Z</time>
      </trkpt>
      <trkpt lat="45.65209" lon="-1.1216">
        <ele>15.1</ele>
        <time>2021-09-25T13:26:00.000Z</time>
      </trkpt>
      <trkpt lat="45.652" lon="-1.12166">
        <ele>14.9</ele>
        <time>2021-09-25T13:25:54.000Z</time>
      </trkpt>
      <trkpt lat="45.65196" lon="-1.12178">
        <ele>14.7</ele>
        <time>2021-09-25T13:25:49.000Z</time>
      </trkpt>
      <trkpt lat="45.65199" lon="-1.12191">
        <ele>14.1</ele>
        <time>2021-09-25T13:25:36.000Z</time>
      </trkpt>
      <trkpt lat="45.65203" lon="-1.12205">
        <ele>13.9</ele>
        <time>2021-09-25T13:25:30.000Z</time>
      </trkpt>
      <trkpt lat="45.65206" lon="-1.12218">
        <ele>14</ele>
        <time>2021-09-25T13:25:24.000Z</time>
      </trkpt>
      <trkpt lat="45.65208" lon="-1.12232">
        <ele>13.9</ele>
        <time>2021-09-25T13:25:18.000Z</time>
      </trkpt>
      <trkpt lat="45.65209" lon="-1.12246">
        <ele>13.8</ele>
        <time>2021-09-25T13:25:12.000Z</time>
      </trkpt>
      <trkpt lat="45.65212" lon="-1.12261">
        <ele>13.6</ele>
        <time>2021-09-25T13:25:06.000Z</time>
      </trkpt>
      <trkpt lat="45.65215" lon="-1.12275">
        <ele>13.5</ele>
        <time>2021-09-25T13:24:59.000Z</time>
      </trkpt>
      <trkpt lat="45.6522" lon="-1.12288">
        <ele>14</ele>
        <time>2021-09-25T13:24:53.000Z</time>
      </trkpt>
      <trkpt lat="45.65224" lon="-1.123">
        <ele>14.1</ele>
        <time>2021-09-25T13:24:47.000Z</time>
      </trkpt>
      <trkpt lat="45.6523" lon="-1.12313">
        <ele>14</ele>
        <time>2021-09-25T13:24:41.000Z</time>
      </trkpt>
      <trkpt lat="45.65234" lon="-1.12326">
        <ele>13.2</ele>
        <time>2021-09-25T13:24:34.000Z</time>
      </trkpt>
      <trkpt lat="45.65238" lon="-1.12338">
        <ele>13.1</ele>
        <time>2021-09-25T13:24:26.000Z</time>
      </trkpt>
      <trkpt lat="45.65245" lon="-1.12347">
        <ele>13</ele>
        <time>2021-09-25T13:24:20.000Z</time>
      </trkpt>
      <trkpt lat="45.65253" lon="-1.12354">
        <ele>12.9</ele>
        <time>2021-09-25T13:24:14.000Z</time>
      </trkpt>
      <trkpt lat="45.65262" lon="-1.12359">
        <ele>12.7</ele>
        <time>2021-09-25T13:24:08.000Z</time>
      </trkpt>
      <trkpt lat="45.65272" lon="-1.12364">
        <ele>12.3</ele>
        <time>2021-09-25T13:24:02.000Z</time>
      </trkpt>
      <trkpt lat="45.65281" lon="-1.12371">
        <ele>12</ele>
        <time>2021-09-25T13:23:56.000Z</time>
      </trkpt>
      <trkpt lat="45.6529" lon="-1.12377">
        <ele>11.2</ele>
        <time>2021-09-25T13:23:50.000Z</time>
      </trkpt>
      <trkpt lat="45.65298" lon="-1.12385">
        <ele>10.8</ele>
        <time>2021-09-25T13:23:44.000Z</time>
      </trkpt>
      <trkpt lat="45.65304" lon="-1.12395">
        <ele>9.9</ele>
        <time>2021-09-25T13:23:38.000Z</time>
      </trkpt>
      <trkpt lat="45.6531" lon="-1.12406">
        <ele>9.8</ele>
        <time>2021-09-25T13:23:32.000Z</time>
      </trkpt>
      <trkpt lat="45.65318" lon="-1.12414">
        <ele>9.6</ele>
        <time>2021-09-25T13:23:26.000Z</time>
      </trkpt>
      <trkpt lat="45.65326" lon="-1.12423">
        <ele>9.3</ele>
        <time>2021-09-25T13:23:20.000Z</time>
      </trkpt>
      <trkpt lat="45.65334" lon="-1.12432">
        <ele>8.8</ele>
        <time>2021-09-25T13:23:14.000Z</time>
      </trkpt>
      <trkpt lat="45.65341" lon="-1.12441">
        <ele>8.4</ele>
        <time>2021-09-25T13:23:08.000Z</time>
      </trkpt>
      <trkpt lat="45.6535" lon="-1.12449">
        <ele>7.7</ele>
        <time>2021-09-25T13:23:02.000Z</time>
      </trkpt>
      <trkpt lat="45.65357" lon="-1.12458">
        <ele>6.3</ele>
        <time>2021-09-25T13:22:56.000Z</time>
      </trkpt>
      <trkpt lat="45.65361" lon="-1.12471">
        <ele>5.5</ele>
        <time>2021-09-25T13:22:50.000Z</time>
      </trkpt>
      <trkpt lat="45.65366" lon="-1.12483">
        <ele>4.7</ele>
        <time>2021-09-25T13:22:44.000Z</time>
      </trkpt>
      <trkpt lat="45.6537" lon="-1.12494">
        <ele>4.7</ele>
        <time>2021-09-25T13:22:38.000Z</time>
      </trkpt>
      <trkpt lat="45.65373" lon="-1.12508">
        <ele>4.5</ele>
        <time>2021-09-25T13:22:32.000Z</time>
      </trkpt>
      <trkpt lat="45.65374" lon="-1.12522">
        <ele>4</ele>
        <time>2021-09-25T13:22:26.000Z</time>
      </trkpt>
      <trkpt lat="45.65377" lon="-1.12536">
        <ele>3.3</ele>
        <time>2021-09-25T13:22:20.000Z</time>
      </trkpt>
      <trkpt lat="45.65379" lon="-1.12551">
        <ele>3.4</ele>
        <time>2021-09-25T13:22:13.000Z</time>
      </trkpt>
      <trkpt lat="45.6538" lon="-1.12565">
        <ele>2.9</ele>
        <time>2021-09-25T13:22:06.000Z</time>
      </trkpt>
      <trkpt lat="45.65376" lon="-1.12577">
        <ele>2.8</ele>
        <time>2021-09-25T13:22:00.000Z</time>
      </trkpt>
      <trkpt lat="45.65374" lon="-1.1259">
        <ele>2.7</ele>
        <time>2021-09-25T13:21:54.000Z</time>
      </trkpt>
      <trkpt lat="45.65373" lon="-1.12603">
        <ele>2.5</ele>
        <time>2021-09-25T13:21:48.000Z</time>
      </trkpt>
      <trkpt lat="45.65371" lon="-1.12617">
        <ele>2.5</ele>
        <time>2021-09-25T13:21:42.000Z</time>
      </trkpt>
      <trkpt lat="45.6537" lon="-1.1263">
        <ele>2.2</ele>
        <time>2021-09-25T13:21:36.000Z</time>
      </trkpt>
      <trkpt lat="45.65369" lon="-1.12645">
        <ele>1.8</ele>
        <time>2021-09-25T13:21:30.000Z</time>
      </trkpt>
      <trkpt lat="45.65372" lon="-1.12658">
        <ele>1.5</ele>
        <time>2021-09-25T13:21:24.000Z</time>
      </trkpt>
      <trkpt lat="45.65374" lon="-1.12671">
        <ele>1.1</ele>
        <time>2021-09-25T13:21:18.000Z</time>
      </trkpt>
      <trkpt lat="45.65377" lon="-1.12685">
        <ele>0.8</ele>
        <time>2021-09-25T13:21:14.000Z</time>
      </trkpt>
      <trkpt lat="45.65379" lon="-1.12699">
        <ele>0.7</ele>
        <time>2021-09-25T13:21:11.000Z</time>
      </trkpt>
      <trkpt lat="45.65382" lon="-1.12713">
        <ele>0.4</ele>
        <time>2021-09-25T13:21:08.000Z</time>
      </trkpt>
      <trkpt lat="45.65386" lon="-1.12726">
        <ele>0.2</ele>
        <time>2021-09-25T13:21:05.000Z</time>
      </trkpt>
      <trkpt lat="45.65392" lon="-1.12737">
        <ele>1</ele>
        <time>2021-09-25T13:21:02.000Z</time>
      </trkpt>
      <trkpt lat="45.65397" lon="-1.12749">
        <ele>1</ele>
        <time>2021-09-25T13:20:59.000Z</time>
      </trkpt>
      <trkpt lat="45.65402" lon="-1.12761">
        <ele>-0.2</ele>
        <time>2021-09-25T13:20:56.000Z</time>
      </trkpt>
      <trkpt lat="45.65408" lon="-1.12771">
        <ele>-0.2</ele>
        <time>2021-09-25T13:20:53.000Z</time>
      </trkpt>
      <trkpt lat="45.65414" lon="-1.12785">
        <ele>-0.3</ele>
        <time>2021-09-25T13:20:49.000Z</time>
      </trkpt>
      <trkpt lat="45.65422" lon="-1.12797">
        <ele>-0.3</ele>
        <time>2021-09-25T13:20:45.000Z</time>
      </trkpt>
      <trkpt lat="45.65428" lon="-1.12808">
        <ele>-0.3</ele>
        <time>2021-09-25T13:20:42.000Z</time>
      </trkpt>
      <trkpt lat="45.65435" lon="-1.12818">
        <ele>-0.3</ele>
        <time>2021-09-25T13:20:39.000Z</time>
      </trkpt>
      <trkpt lat="45.65441" lon="-1.12828">
        <ele>-0.2</ele>
        <time>2021-09-25T13:20:36.000Z</time>
      </trkpt>
      <trkpt lat="45.65449" lon="-1.1284">
        <ele>1</ele>
        <time>2021-09-25T13:20:32.000Z</time>
      </trkpt>
      <trkpt lat="45.65457" lon="-1.12852">
        <ele>1</ele>
        <time>2021-09-25T13:20:28.000Z</time>
      </trkpt>
      <trkpt lat="45.65464" lon="-1.12862">
        <ele>1</ele>
        <time>2021-09-25T13:20:25.000Z</time>
      </trkpt>
      <trkpt lat="45.65471" lon="-1.12871">
        <ele>-0.1</ele>
        <time>2021-09-25T13:20:22.000Z</time>
      </trkpt>
      <trkpt lat="45.65478" lon="-1.12881">
        <ele>-0.2</ele>
        <time>2021-09-25T13:20:19.000Z</time>
      </trkpt>
      <trkpt lat="45.65486" lon="-1.12892">
        <ele>-0.2</ele>
        <time>2021-09-25T13:20:16.000Z</time>
      </trkpt>
      <trkpt lat="45.65494" lon="-1.12903">
        <ele>-0.4</ele>
        <time>2021-09-25T13:20:13.000Z</time>
      </trkpt>
      <trkpt lat="45.65501" lon="-1.12913">
        <ele>-0.3</ele>
        <time>2021-09-25T13:20:10.000Z</time>
      </trkpt>
      <trkpt lat="45.65508" lon="-1.12922">
        <ele>-0.1</ele>
        <time>2021-09-25T13:20:07.000Z</time>
      </trkpt>
      <trkpt lat="45.65514" lon="-1.12931">
        <ele>-0.1</ele>
        <time>2021-09-25T13:20:04.000Z</time>
      </trkpt>
      <trkpt lat="45.65521" lon="-1.1294">
        <ele>-0.1</ele>
        <time>2021-09-25T13:20:01.000Z</time>
      </trkpt>
      <trkpt lat="45.6553" lon="-1.1295">
        <ele>-0.1</ele>
        <time>2021-09-25T13:19:57.000Z</time>
      </trkpt>
      <trkpt lat="45.65537" lon="-1.12959">
        <ele>-0.1</ele>
        <time>2021-09-25T13:19:54.000Z</time>
      </trkpt>
      <trkpt lat="45.65544" lon="-1.12968">
        <ele>1</ele>
        <time>2021-09-25T13:19:51.000Z</time>
      </trkpt>
      <trkpt lat="45.65552" lon="-1.12978">
        <ele>1</ele>
        <time>2021-09-25T13:19:48.000Z</time>
      </trkpt>
      <trkpt lat="45.6556" lon="-1.12988">
        <ele>0.1</ele>
        <time>2021-09-25T13:19:45.000Z</time>
      </trkpt>
      <trkpt lat="45.65567" lon="-1.12998">
        <ele>0.2</ele>
        <time>2021-09-25T13:19:42.000Z</time>
      </trkpt>
      <trkpt lat="45.65575" lon="-1.13007">
        <ele>0.1</ele>
        <time>2021-09-25T13:19:39.000Z</time>
      </trkpt>
      <trkpt lat="45.65582" lon="-1.13018">
        <ele>0.2</ele>
        <time>2021-09-25T13:19:36.000Z</time>
      </trkpt>
      <trkpt lat="45.6559" lon="-1.13029">
        <ele>0.2</ele>
        <time>2021-09-25T13:19:33.000Z</time>
      </trkpt>
      <trkpt lat="45.65596" lon="-1.1304">
        <ele>0.3</ele>
        <time>2021-09-25T13:19:30.000Z</time>
      </trkpt>
      <trkpt lat="45.65602" lon="-1.1305">
        <ele>0.4</ele>
        <time>2021-09-25T13:19:26.000Z</time>
      </trkpt>
      <trkpt lat="45.65609" lon="-1.13059">
        <ele>1</ele>
        <time>2021-09-25T13:19:20.000Z</time>
      </trkpt>
      <trkpt lat="45.65616" lon="-1.13069">
        <ele>-0.2</ele>
        <time>2021-09-25T13:19:14.000Z</time>
      </trkpt>
      <trkpt lat="45.65622" lon="-1.1308">
        <ele>0.1</ele>
        <time>2021-09-25T13:19:08.000Z</time>
      </trkpt>
      <trkpt lat="45.65628" lon="-1.1309">
        <ele>-0.1</ele>
        <time>2021-09-25T13:19:02.000Z</time>
      </trkpt>
      <trkpt lat="45.65636" lon="-1.131">
        <ele>0.1</ele>
        <time>2021-09-25T13:18:56.000Z</time>
      </trkpt>
      <trkpt lat="45.65642" lon="-1.1311">
        <ele>0.3</ele>
        <time>2021-09-25T13:18:50.000Z</time>
      </trkpt>
      <trkpt lat="45.65649" lon="-1.1312">
        <ele>0.7</ele>
        <time>2021-09-25T13:18:44.000Z</time>
      </trkpt>
      <trkpt lat="45.65657" lon="-1.1313">
        <ele>0.4</ele>
        <time>2021-09-25T13:18:37.000Z</time>
      </trkpt>
      <trkpt lat="45.65664" lon="-1.13138">
        <ele>0.7</ele>
        <time>2021-09-25T13:18:31.000Z</time>
      </trkpt>
      <trkpt lat="45.6567" lon="-1.13148">
        <ele>0.6</ele>
        <time>2021-09-25T13:18:25.000Z</time>
      </trkpt>
      <trkpt lat="45.65677" lon="-1.13158">
        <ele>0.2</ele>
        <time>2021-09-25T13:18:19.000Z</time>
      </trkpt>
      <trkpt lat="45.65685" lon="-1.13167">
        <ele>0.2</ele>
        <time>2021-09-25T13:18:13.000Z</time>
      </trkpt>
      <trkpt lat="45.65692" lon="-1.13178">
        <ele>0.2</ele>
        <time>2021-09-25T13:18:07.000Z</time>
      </trkpt>
      <trkpt lat="45.65698" lon="-1.13189">
        <ele>0.2</ele>
        <time>2021-09-25T13:18:01.000Z</time>
      </trkpt>
      <trkpt lat="45.65706" lon="-1.132">
        <ele>0.2</ele>
        <time>2021-09-25T13:17:55.000Z</time>
      </trkpt>
      <trkpt lat="45.65713" lon="-1.13211">
        <ele>0.3</ele>
        <time>2021-09-25T13:17:49.000Z</time>
      </trkpt>
      <trkpt lat="45.65719" lon="-1.13222">
        <ele>0.3</ele>
        <time>2021-09-25T13:17:43.000Z</time>
      </trkpt>
      <trkpt lat="45.65728" lon="-1.1323">
        <ele>1</ele>
        <time>2021-09-25T13:17:37.000Z</time>
      </trkpt>
      <trkpt lat="45.65733" lon="-1.13242">
        <ele>1</ele>
        <time>2021-09-25T13:17:27.000Z</time>
      </trkpt>
      <trkpt lat="45.65739" lon="-1.13252">
        <ele>1</ele>
        <time>2021-09-25T13:17:21.000Z</time>
      </trkpt>
      <trkpt lat="45.65746" lon="-1.13263">
        <ele>1</ele>
        <time>2021-09-25T13:17:15.000Z</time>
      </trkpt>
      <trkpt lat="45.65753" lon="-1.13273">
        <ele>1</ele>
        <time>2021-09-25T13:17:09.000Z</time>
      </trkpt>
      <trkpt lat="45.65761" lon="-1.13282">
        <ele>1</ele>
        <time>2021-09-25T13:17:03.000Z</time>
      </trkpt>
      <trkpt lat="45.65768" lon="-1.13292">
        <ele>1</ele>
        <time>2021-09-25T13:16:57.000Z</time>
      </trkpt>
      <trkpt lat="45.65772" lon="-1.13305">
        <ele>1</ele>
        <time>2021-09-25T13:16:51.000Z</time>
      </trkpt>
      <trkpt lat="45.65779" lon="-1.13315">
        <ele>1</ele>
        <time>2021-09-25T13:16:45.000Z</time>
      </trkpt>
      <trkpt lat="45.65786" lon="-1.13325">
        <ele>1.1</ele>
        <time>2021-09-25T13:16:39.000Z</time>
      </trkpt>
      <trkpt lat="45.65793" lon="-1.13335">
        <ele>1</ele>
        <time>2021-09-25T13:16:33.000Z</time>
      </trkpt>
      <trkpt lat="45.65795" lon="-1.13348">
        <ele>-0.1</ele>
        <time>2021-09-25T13:16:27.000Z</time>
      </trkpt>
      <trkpt lat="45.658" lon="-1.13359">
        <ele>-0.1</ele>
        <time>2021-09-25T13:16:21.000Z</time>
      </trkpt>
      <trkpt lat="45.65808" lon="-1.13371">
        <ele>1</ele>
        <time>2021-09-25T13:16:15.000Z</time>
      </trkpt>
      <trkpt lat="45.65815" lon="-1.13382">
        <ele>0.1</ele>
        <time>2021-09-25T13:16:09.000Z</time>
      </trkpt>
      <trkpt lat="45.65823" lon="-1.13391">
        <ele>0.2</ele>
        <time>2021-09-25T13:16:03.000Z</time>
      </trkpt>
      <trkpt lat="45.65831" lon="-1.13399">
        <ele>0.7</ele>
        <time>2021-09-25T13:15:57.000Z</time>
      </trkpt>
      <trkpt lat="45.65838" lon="-1.13409">
        <ele>0.9</ele>
        <time>2021-09-25T13:15:51.000Z</time>
      </trkpt>
      <trkpt lat="45.65846" lon="-1.13417">
        <ele>0.9</ele>
        <time>2021-09-25T13:15:45.000Z</time>
      </trkpt>
      <trkpt lat="45.65853" lon="-1.13426">
        <ele>0.9</ele>
        <time>2021-09-25T13:15:39.000Z</time>
      </trkpt>
      <trkpt lat="45.65856" lon="-1.13438">
        <ele>1</ele>
        <time>2021-09-25T13:15:33.000Z</time>
      </trkpt>
      <trkpt lat="45.65863" lon="-1.13447">
        <ele>0.8</ele>
        <time>2021-09-25T13:15:26.000Z</time>
      </trkpt>
      <trkpt lat="45.6587" lon="-1.13457">
        <ele>0.8</ele>
        <time>2021-09-25T13:15:19.000Z</time>
      </trkpt>
      <trkpt lat="45.65876" lon="-1.13469">
        <ele>0.9</ele>
        <time>2021-09-25T13:15:13.000Z</time>
      </trkpt>
      <trkpt lat="45.65883" lon="-1.13479">
        <ele>1</ele>
        <time>2021-09-25T13:15:07.000Z</time>
      </trkpt>
      <trkpt lat="45.65891" lon="-1.13489">
        <ele>1.4</ele>
        <time>2021-09-25T13:15:01.000Z</time>
      </trkpt>
      <trkpt lat="45.65898" lon="-1.13499">
        <ele>1.5</ele>
        <time>2021-09-25T13:14:55.000Z</time>
      </trkpt>
      <trkpt lat="45.65905" lon="-1.13509">
        <ele>1.4</ele>
        <time>2021-09-25T13:14:49.000Z</time>
      </trkpt>
      <trkpt lat="45.65912" lon="-1.13519">
        <ele>0.9</ele>
        <time>2021-09-25T13:14:43.000Z</time>
      </trkpt>
      <trkpt lat="45.65918" lon="-1.13529">
        <ele>1</ele>
        <time>2021-09-25T13:14:37.000Z</time>
      </trkpt>
      <trkpt lat="45.65922" lon="-1.13543">
        <ele>1.2</ele>
        <time>2021-09-25T13:14:30.000Z</time>
      </trkpt>
      <trkpt lat="45.65928" lon="-1.13554">
        <ele>1.2</ele>
        <time>2021-09-25T13:14:24.000Z</time>
      </trkpt>
      <trkpt lat="45.65934" lon="-1.13565">
        <ele>1.2</ele>
        <time>2021-09-25T13:14:18.000Z</time>
      </trkpt>
      <trkpt lat="45.65939" lon="-1.13578">
        <ele>1.2</ele>
        <time>2021-09-25T13:14:12.000Z</time>
      </trkpt>
      <trkpt lat="45.65945" lon="-1.1359">
        <ele>1.2</ele>
        <time>2021-09-25T13:14:06.000Z</time>
      </trkpt>
      <trkpt lat="45.65951" lon="-1.13602">
        <ele>1.2</ele>
        <time>2021-09-25T13:14:00.000Z</time>
      </trkpt>
      <trkpt lat="45.65957" lon="-1.13614">
        <ele>1.2</ele>
        <time>2021-09-25T13:13:54.000Z</time>
      </trkpt>
      <trkpt lat="45.65961" lon="-1.13626">
        <ele>1</ele>
        <time>2021-09-25T13:13:33.000Z</time>
      </trkpt>
      <trkpt lat="45.65966" lon="-1.13637">
        <ele>1</ele>
        <time>2021-09-25T13:13:26.000Z</time>
      </trkpt>
      <trkpt lat="45.6597" lon="-1.1365">
        <ele>1</ele>
        <time>2021-09-25T13:13:20.000Z</time>
      </trkpt>
      <trkpt lat="45.65973" lon="-1.13663">
        <ele>0.6</ele>
        <time>2021-09-25T13:13:14.000Z</time>
      </trkpt>
      <trkpt lat="45.65976" lon="-1.13676">
        <ele>0.5</ele>
        <time>2021-09-25T13:13:08.000Z</time>
      </trkpt>
      <trkpt lat="45.65979" lon="-1.1369">
        <ele>0.5</ele>
        <time>2021-09-25T13:13:01.000Z</time>
      </trkpt>
      <trkpt lat="45.65986" lon="-1.13701">
        <ele>0.5</ele>
        <time>2021-09-25T13:12:50.000Z</time>
      </trkpt>
      <trkpt lat="45.65991" lon="-1.13713">
        <ele>0.6</ele>
        <time>2021-09-25T13:12:44.000Z</time>
      </trkpt>
      <trkpt lat="45.65998" lon="-1.13723">
        <ele>0.6</ele>
        <time>2021-09-25T13:12:38.000Z</time>
      </trkpt>
      <trkpt lat="45.66005" lon="-1.13732">
        <ele>0.7</ele>
        <time>2021-09-25T13:12:32.000Z</time>
      </trkpt>
      <trkpt lat="45.66014" lon="-1.13739">
        <ele>0.8</ele>
        <time>2021-09-25T13:12:26.000Z</time>
      </trkpt>
      <trkpt lat="45.66023" lon="-1.13745">
        <ele>0.8</ele>
        <time>2021-09-25T13:12:20.000Z</time>
      </trkpt>
      <trkpt lat="45.66032" lon="-1.13753">
        <ele>0.8</ele>
        <time>2021-09-25T13:12:14.000Z</time>
      </trkpt>
      <trkpt lat="45.6604" lon="-1.13762">
        <ele>0.8</ele>
        <time>2021-09-25T13:12:08.000Z</time>
      </trkpt>
      <trkpt lat="45.66047" lon="-1.13771">
        <ele>0.8</ele>
        <time>2021-09-25T13:12:02.000Z</time>
      </trkpt>
      <trkpt lat="45.66055" lon="-1.13779">
        <ele>0.8</ele>
        <time>2021-09-25T13:11:56.000Z</time>
      </trkpt>
      <trkpt lat="45.66061" lon="-1.1379">
        <ele>0.8</ele>
        <time>2021-09-25T13:11:50.000Z</time>
      </trkpt>
      <trkpt lat="45.66065" lon="-1.13803">
        <ele>0.8</ele>
        <time>2021-09-25T13:11:44.000Z</time>
      </trkpt>
      <trkpt lat="45.6607" lon="-1.13814">
        <ele>0.9</ele>
        <time>2021-09-25T13:11:38.000Z</time>
      </trkpt>
      <trkpt lat="45.66076" lon="-1.13825">
        <ele>1.1</ele>
        <time>2021-09-25T13:11:32.000Z</time>
      </trkpt>
      <trkpt lat="45.66082" lon="-1.13836">
        <ele>1.3</ele>
        <time>2021-09-25T13:11:26.000Z</time>
      </trkpt>
      <trkpt lat="45.66088" lon="-1.13848">
        <ele>1</ele>
        <time>2021-09-25T13:11:20.000Z</time>
      </trkpt>
      <trkpt lat="45.66093" lon="-1.13861">
        <ele>0.9</ele>
        <time>2021-09-25T13:11:16.000Z</time>
      </trkpt>
      <trkpt lat="45.66097" lon="-1.13873">
        <ele>0.8</ele>
        <time>2021-09-25T13:11:13.000Z</time>
      </trkpt>
      <trkpt lat="45.66102" lon="-1.13883">
        <ele>0.8</ele>
        <time>2021-09-25T13:11:10.000Z</time>
      </trkpt>
      <trkpt lat="45.66109" lon="-1.13894">
        <ele>0.7</ele>
        <time>2021-09-25T13:11:07.000Z</time>
      </trkpt>
      <trkpt lat="45.66115" lon="-1.13904">
        <ele>0.6</ele>
        <time>2021-09-25T13:11:04.000Z</time>
      </trkpt>
      <trkpt lat="45.66122" lon="-1.13915">
        <ele>0.5</ele>
        <time>2021-09-25T13:11:01.000Z</time>
      </trkpt>
      <trkpt lat="45.66128" lon="-1.13926">
        <ele>0.5</ele>
        <time>2021-09-25T13:10:58.000Z</time>
      </trkpt>
      <trkpt lat="45.66134" lon="-1.13937">
        <ele>0.5</ele>
        <time>2021-09-25T13:10:55.000Z</time>
      </trkpt>
      <trkpt lat="45.66141" lon="-1.13949">
        <ele>0.5</ele>
        <time>2021-09-25T13:10:52.000Z</time>
      </trkpt>
      <trkpt lat="45.66149" lon="-1.13959">
        <ele>0.5</ele>
        <time>2021-09-25T13:10:49.000Z</time>
      </trkpt>
      <trkpt lat="45.66157" lon="-1.13969">
        <ele>0.6</ele>
        <time>2021-09-25T13:10:46.000Z</time>
      </trkpt>
      <trkpt lat="45.66164" lon="-1.13979">
        <ele>0.7</ele>
        <time>2021-09-25T13:10:43.000Z</time>
      </trkpt>
      <trkpt lat="45.66172" lon="-1.1399">
        <ele>0.9</ele>
        <time>2021-09-25T13:10:40.000Z</time>
      </trkpt>
      <trkpt lat="45.6618" lon="-1.14">
        <ele>0.8</ele>
        <time>2021-09-25T13:10:37.000Z</time>
      </trkpt>
      <trkpt lat="45.66189" lon="-1.14008">
        <ele>0.7</ele>
        <time>2021-09-25T13:10:34.000Z</time>
      </trkpt>
      <trkpt lat="45.66197" lon="-1.14017">
        <ele>0.8</ele>
        <time>2021-09-25T13:10:31.000Z</time>
      </trkpt>
      <trkpt lat="45.66204" lon="-1.14025">
        <ele>0.8</ele>
        <time>2021-09-25T13:10:28.000Z</time>
      </trkpt>
      <trkpt lat="45.66212" lon="-1.14033">
        <ele>0.7</ele>
        <time>2021-09-25T13:10:25.000Z</time>
      </trkpt>
      <trkpt lat="45.66219" lon="-1.14042">
        <ele>0.7</ele>
        <time>2021-09-25T13:10:22.000Z</time>
      </trkpt>
      <trkpt lat="45.66228" lon="-1.1405">
        <ele>0.6</ele>
        <time>2021-09-25T13:10:19.000Z</time>
      </trkpt>
      <trkpt lat="45.66236" lon="-1.14058">
        <ele>0.6</ele>
        <time>2021-09-25T13:10:16.000Z</time>
      </trkpt>
      <trkpt lat="45.66244" lon="-1.14065">
        <ele>0.5</ele>
        <time>2021-09-25T13:10:13.000Z</time>
      </trkpt>
      <trkpt lat="45.66251" lon="-1.14074">
        <ele>0.5</ele>
        <time>2021-09-25T13:10:10.000Z</time>
      </trkpt>
      <trkpt lat="45.66259" lon="-1.14083">
        <ele>0.5</ele>
        <time>2021-09-25T13:10:07.000Z</time>
      </trkpt>
      <trkpt lat="45.66268" lon="-1.14092">
        <ele>0.7</ele>
        <time>2021-09-25T13:10:04.000Z</time>
      </trkpt>
      <trkpt lat="45.66276" lon="-1.141">
        <ele>0.8</ele>
        <time>2021-09-25T13:10:01.000Z</time>
      </trkpt>
      <trkpt lat="45.66284" lon="-1.14109">
        <ele>0.4</ele>
        <time>2021-09-25T13:09:58.000Z</time>
      </trkpt>
      <trkpt lat="45.66292" lon="-1.14119">
        <ele>0.5</ele>
        <time>2021-09-25T13:09:55.000Z</time>
      </trkpt>
      <trkpt lat="45.66299" lon="-1.14128">
        <ele>0.7</ele>
        <time>2021-09-25T13:09:52.000Z</time>
      </trkpt>
      <trkpt lat="45.66307" lon="-1.14137">
        <ele>0.6</ele>
        <time>2021-09-25T13:09:49.000Z</time>
      </trkpt>
      <trkpt lat="45.66315" lon="-1.14148">
        <ele>0.7</ele>
        <time>2021-09-25T13:09:45.000Z</time>
      </trkpt>
      <trkpt lat="45.66324" lon="-1.1416">
        <ele>0.7</ele>
        <time>2021-09-25T13:09:41.000Z</time>
      </trkpt>
      <trkpt lat="45.66331" lon="-1.14169">
        <ele>0.5</ele>
        <time>2021-09-25T13:09:38.000Z</time>
      </trkpt>
      <trkpt lat="45.66338" lon="-1.14178">
        <ele>1.2</ele>
        <time>2021-09-25T13:09:35.000Z</time>
      </trkpt>
      <trkpt lat="45.66344" lon="-1.14188">
        <ele>-0.1</ele>
        <time>2021-09-25T13:09:32.000Z</time>
      </trkpt>
      <trkpt lat="45.66352" lon="-1.14198">
        <ele>-0.1</ele>
        <time>2021-09-25T13:09:29.000Z</time>
      </trkpt>
      <trkpt lat="45.66358" lon="-1.14209">
        <ele>0.1</ele>
        <time>2021-09-25T13:09:26.000Z</time>
      </trkpt>
      <trkpt lat="45.66366" lon="-1.1422">
        <ele>0.3</ele>
        <time>2021-09-25T13:09:23.000Z</time>
      </trkpt>
      <trkpt lat="45.66373" lon="-1.14231">
        <ele>0.7</ele>
        <time>2021-09-25T13:09:20.000Z</time>
      </trkpt>
      <trkpt lat="45.6638" lon="-1.14242">
        <ele>0.6</ele>
        <time>2021-09-25T13:09:17.000Z</time>
      </trkpt>
      <trkpt lat="45.66387" lon="-1.14252">
        <ele>0.6</ele>
        <time>2021-09-25T13:09:14.000Z</time>
      </trkpt>
      <trkpt lat="45.66394" lon="-1.14265">
        <ele>0.6</ele>
        <time>2021-09-25T13:09:10.000Z</time>
      </trkpt>
      <trkpt lat="45.664" lon="-1.14276">
        <ele>0.6</ele>
        <time>2021-09-25T13:09:06.000Z</time>
      </trkpt>
      <trkpt lat="45.66406" lon="-1.14285">
        <ele>0.6</ele>
        <time>2021-09-25T13:09:01.000Z</time>
      </trkpt>
      <trkpt lat="45.66412" lon="-1.14295">
        <ele>0.6</ele>
        <time>2021-09-25T13:08:55.000Z</time>
      </trkpt>
      <trkpt lat="45.66419" lon="-1.14304">
        <ele>0.7</ele>
        <time>2021-09-25T13:08:49.000Z</time>
      </trkpt>
      <trkpt lat="45.66426" lon="-1.14313">
        <ele>0.9</ele>
        <time>2021-09-25T13:08:43.000Z</time>
      </trkpt>
      <trkpt lat="45.66434" lon="-1.14321">
        <ele>1</ele>
        <time>2021-09-25T13:08:37.000Z</time>
      </trkpt>
      <trkpt lat="45.66443" lon="-1.14326">
        <ele>0.8</ele>
        <time>2021-09-25T13:08:31.000Z</time>
      </trkpt>
      <trkpt lat="45.66451" lon="-1.14333">
        <ele>0.7</ele>
        <time>2021-09-25T13:08:25.000Z</time>
      </trkpt>
      <trkpt lat="45.66457" lon="-1.14345">
        <ele>0.7</ele>
        <time>2021-09-25T13:08:19.000Z</time>
      </trkpt>
      <trkpt lat="45.66463" lon="-1.14356">
        <ele>0.7</ele>
        <time>2021-09-25T13:08:13.000Z</time>
      </trkpt>
      <trkpt lat="45.66471" lon="-1.14366">
        <ele>0.6</ele>
        <time>2021-09-25T13:08:07.000Z</time>
      </trkpt>
      <trkpt lat="45.66478" lon="-1.14376">
        <ele>0.6</ele>
        <time>2021-09-25T13:08:01.000Z</time>
      </trkpt>
      <trkpt lat="45.66485" lon="-1.14386">
        <ele>0.4</ele>
        <time>2021-09-25T13:07:55.000Z</time>
      </trkpt>
      <trkpt lat="45.66492" lon="-1.14397">
        <ele>0.4</ele>
        <time>2021-09-25T13:07:49.000Z</time>
      </trkpt>
      <trkpt lat="45.66499" lon="-1.14407">
        <ele>0.3</ele>
        <time>2021-09-25T13:07:43.000Z</time>
      </trkpt>
      <trkpt lat="45.66506" lon="-1.14417">
        <ele>0.3</ele>
        <time>2021-09-25T13:07:37.000Z</time>
      </trkpt>
      <trkpt lat="45.66511" lon="-1.14428">
        <ele>1.2</ele>
        <time>2021-09-25T13:07:31.000Z</time>
      </trkpt>
      <trkpt lat="45.66517" lon="-1.14439">
        <ele>1.1</ele>
        <time>2021-09-25T13:07:25.000Z</time>
      </trkpt>
      <trkpt lat="45.66521" lon="-1.14452">
        <ele>0.2</ele>
        <time>2021-09-25T13:07:19.000Z</time>
      </trkpt>
      <trkpt lat="45.66525" lon="-1.14464">
        <ele>0.5</ele>
        <time>2021-09-25T13:07:13.000Z</time>
      </trkpt>
      <trkpt lat="45.66531" lon="-1.14476">
        <ele>0.5</ele>
        <time>2021-09-25T13:07:07.000Z</time>
      </trkpt>
      <trkpt lat="45.66538" lon="-1.14487">
        <ele>0.4</ele>
        <time>2021-09-25T13:07:01.000Z</time>
      </trkpt>
      <trkpt lat="45.66545" lon="-1.14497">
        <ele>0.4</ele>
        <time>2021-09-25T13:06:55.000Z</time>
      </trkpt>
      <trkpt lat="45.66552" lon="-1.14508">
        <ele>0.4</ele>
        <time>2021-09-25T13:06:49.000Z</time>
      </trkpt>
      <trkpt lat="45.66559" lon="-1.14519">
        <ele>0.3</ele>
        <time>2021-09-25T13:06:43.000Z</time>
      </trkpt>
      <trkpt lat="45.66565" lon="-1.1453">
        <ele>0.1</ele>
        <time>2021-09-25T13:06:37.000Z</time>
      </trkpt>
      <trkpt lat="45.66571" lon="-1.14541">
        <ele>0.1</ele>
        <time>2021-09-25T13:06:31.000Z</time>
      </trkpt>
      <trkpt lat="45.66578" lon="-1.14553">
        <ele>0.3</ele>
        <time>2021-09-25T13:06:25.000Z</time>
      </trkpt>
      <trkpt lat="45.66585" lon="-1.14563">
        <ele>0.6</ele>
        <time>2021-09-25T13:06:19.000Z</time>
      </trkpt>
      <trkpt lat="45.66591" lon="-1.14574">
        <ele>0.6</ele>
        <time>2021-09-25T13:06:13.000Z</time>
      </trkpt>
      <trkpt lat="45.66599" lon="-1.14583">
        <ele>0.6</ele>
        <time>2021-09-25T13:06:07.000Z</time>
      </trkpt>
      <trkpt lat="45.66604" lon="-1.14595">
        <ele>0.6</ele>
        <time>2021-09-25T13:06:01.000Z</time>
      </trkpt>
      <trkpt lat="45.66611" lon="-1.14607">
        <ele>0.6</ele>
        <time>2021-09-25T13:05:55.000Z</time>
      </trkpt>
      <trkpt lat="45.66618" lon="-1.14616">
        <ele>0.6</ele>
        <time>2021-09-25T13:05:49.000Z</time>
      </trkpt>
      <trkpt lat="45.66626" lon="-1.14625">
        <ele>0.6</ele>
        <time>2021-09-25T13:05:43.000Z</time>
      </trkpt>
      <trkpt lat="45.66633" lon="-1.14634">
        <ele>0.7</ele>
        <time>2021-09-25T13:05:37.000Z</time>
      </trkpt>
      <trkpt lat="45.66641" lon="-1.14641">
        <ele>0.7</ele>
        <time>2021-09-25T13:05:31.000Z</time>
      </trkpt>
      <trkpt lat="45.66651" lon="-1.14639">
        <ele>0.4</ele>
        <time>2021-09-25T13:05:20.000Z</time>
      </trkpt>
      <trkpt lat="45.66643" lon="-1.14632">
        <ele>0.2</ele>
        <time>2021-09-25T13:05:11.000Z</time>
      </trkpt>
      <trkpt lat="45.66637" lon="-1.14642">
        <ele>0.2</ele>
        <time>2021-09-25T13:04:54.000Z</time>
      </trkpt>
      <trkpt lat="45.66643" lon="-1.14652">
        <ele>0.4</ele>
        <time>2021-09-25T13:04:48.000Z</time>
      </trkpt>
      <trkpt lat="45.6665" lon="-1.14662">
        <ele>0.4</ele>
        <time>2021-09-25T13:04:42.000Z</time>
      </trkpt>
      <trkpt lat="45.66657" lon="-1.14671">
        <ele>0.4</ele>
        <time>2021-09-25T13:04:36.000Z</time>
      </trkpt>
      <trkpt lat="45.66665" lon="-1.14681">
        <ele>0.6</ele>
        <time>2021-09-25T13:04:30.000Z</time>
      </trkpt>
      <trkpt lat="45.66673" lon="-1.14689">
        <ele>0.4</ele>
        <time>2021-09-25T13:04:24.000Z</time>
      </trkpt>
      <trkpt lat="45.6668" lon="-1.14699">
        <ele>0.4</ele>
        <time>2021-09-25T13:04:18.000Z</time>
      </trkpt>
      <trkpt lat="45.66687" lon="-1.14708">
        <ele>0.4</ele>
        <time>2021-09-25T13:04:12.000Z</time>
      </trkpt>
      <trkpt lat="45.66695" lon="-1.14719">
        <ele>0.4</ele>
        <time>2021-09-25T13:04:04.000Z</time>
      </trkpt>
      <trkpt lat="45.66702" lon="-1.14728">
        <ele>0.4</ele>
        <time>2021-09-25T13:03:58.000Z</time>
      </trkpt>
      <trkpt lat="45.6671" lon="-1.14737">
        <ele>0.4</ele>
        <time>2021-09-25T13:03:51.000Z</time>
      </trkpt>
      <trkpt lat="45.66717" lon="-1.14747">
        <ele>0.4</ele>
        <time>2021-09-25T13:03:44.000Z</time>
      </trkpt>
      <trkpt lat="45.66724" lon="-1.14758">
        <ele>0.5</ele>
        <time>2021-09-25T13:03:37.000Z</time>
      </trkpt>
      <trkpt lat="45.66733" lon="-1.14761">
        <ele>0.5</ele>
        <time>2021-09-25T13:00:53.000Z</time>
      </trkpt>
      <trkpt lat="45.66726" lon="-1.14753">
        <ele>0.5</ele>
        <time>2021-09-25T13:00:47.000Z</time>
      </trkpt>
      <trkpt lat="45.66718" lon="-1.14744">
        <ele>0.5</ele>
        <time>2021-09-25T13:00:40.000Z</time>
      </trkpt>
      <trkpt lat="45.66711" lon="-1.14734">
        <ele>0.5</ele>
        <time>2021-09-25T13:00:33.000Z</time>
      </trkpt>
      <trkpt lat="45.66703" lon="-1.14725">
        <ele>0.5</ele>
        <time>2021-09-25T13:00:25.000Z</time>
      </trkpt>
      <trkpt lat="45.66694" lon="-1.14717">
        <ele>0.5</ele>
        <time>2021-09-25T13:00:17.000Z</time>
      </trkpt>
      <trkpt lat="45.66687" lon="-1.14708">
        <ele>0.5</ele>
        <time>2021-09-25T13:00:10.000Z</time>
      </trkpt>
      <trkpt lat="45.6668" lon="-1.14698">
        <ele>0.5</ele>
        <time>2021-09-25T13:00:03.000Z</time>
      </trkpt>
      <trkpt lat="45.66673" lon="-1.14689">
        <ele>0.7</ele>
        <time>2021-09-25T12:59:56.000Z</time>
      </trkpt>
      <trkpt lat="45.66666" lon="-1.14679">
        <ele>0.7</ele>
        <time>2021-09-25T12:59:46.000Z</time>
      </trkpt>
      <trkpt lat="45.66659" lon="-1.14671">
        <ele>0.7</ele>
        <time>2021-09-25T12:59:38.000Z</time>
      </trkpt>
      <trkpt lat="45.66653" lon="-1.14661">
        <ele>0.7</ele>
        <time>2021-09-25T12:59:31.000Z</time>
      </trkpt>
      <trkpt lat="45.66647" lon="-1.1465">
        <ele>0.7</ele>
        <time>2021-09-25T12:59:24.000Z</time>
      </trkpt>
      <trkpt lat="45.6664" lon="-1.14641">
        <ele>0.7</ele>
        <time>2021-09-25T12:59:17.000Z</time>
      </trkpt>
      <trkpt lat="45.66632" lon="-1.14634">
        <ele>0.7</ele>
        <time>2021-09-25T12:59:08.000Z</time>
      </trkpt>
      <trkpt lat="45.66627" lon="-1.14623">
        <ele>0.3</ele>
        <time>2021-09-25T12:58:10.000Z</time>
      </trkpt>
      <trkpt lat="45.66621" lon="-1.14613">
        <ele>0.4</ele>
        <time>2021-09-25T12:58:03.000Z</time>
      </trkpt>
      <trkpt lat="45.66614" lon="-1.14603">
        <ele>0.6</ele>
        <time>2021-09-25T12:57:56.000Z</time>
      </trkpt>
      <trkpt lat="45.66608" lon="-1.14593">
        <ele>0.7</ele>
        <time>2021-09-25T12:57:49.000Z</time>
      </trkpt>
      <trkpt lat="45.666" lon="-1.14584">
        <ele>0.3</ele>
        <time>2021-09-25T12:57:41.000Z</time>
      </trkpt>
      <trkpt lat="45.66592" lon="-1.14575">
        <ele>0.3</ele>
        <time>2021-09-25T12:57:33.000Z</time>
      </trkpt>
      <trkpt lat="45.66583" lon="-1.14567">
        <ele>0.3</ele>
        <time>2021-09-25T12:57:25.000Z</time>
      </trkpt>
      <trkpt lat="45.6658" lon="-1.14555">
        <ele>0.5</ele>
        <time>2021-09-25T12:55:33.000Z</time>
      </trkpt>
      <trkpt lat="45.66575" lon="-1.14544">
        <ele>0.2</ele>
        <time>2021-09-25T12:55:26.000Z</time>
      </trkpt>
      <trkpt lat="45.66567" lon="-1.14539">
        <ele>0.5</ele>
        <time>2021-09-25T12:55:03.000Z</time>
      </trkpt>
      <trkpt lat="45.66561" lon="-1.14528">
        <ele>0.6</ele>
        <time>2021-09-25T12:54:55.000Z</time>
      </trkpt>
      <trkpt lat="45.66554" lon="-1.1452">
        <ele>1</ele>
        <time>2021-09-25T12:54:46.000Z</time>
      </trkpt>
      <trkpt lat="45.66552" lon="-1.14507">
        <ele>1</ele>
        <time>2021-09-25T12:54:36.000Z</time>
      </trkpt>
      <trkpt lat="45.6655" lon="-1.14493">
        <ele>0.6</ele>
        <time>2021-09-25T12:54:14.000Z</time>
      </trkpt>
      <trkpt lat="45.66543" lon="-1.14485">
        <ele>0.6</ele>
        <time>2021-09-25T12:54:07.000Z</time>
      </trkpt>
      <trkpt lat="45.66534" lon="-1.14479">
        <ele>0.7</ele>
        <time>2021-09-25T12:54:00.000Z</time>
      </trkpt>
      <trkpt lat="45.66526" lon="-1.1447">
        <ele>1.7</ele>
        <time>2021-09-25T12:53:31.000Z</time>
      </trkpt>
      <trkpt lat="45.66531" lon="-1.14459">
        <ele>1.9</ele>
        <time>2021-09-25T12:53:23.000Z</time>
      </trkpt>
      <trkpt lat="45.66532" lon="-1.14445">
        <ele>1.9</ele>
        <time>2021-09-25T12:53:15.000Z</time>
      </trkpt>
      <trkpt lat="45.66534" lon="-1.14432">
        <ele>2.2</ele>
        <time>2021-09-25T12:53:09.000Z</time>
      </trkpt>
      <trkpt lat="45.66536" lon="-1.14418">
        <ele>2.6</ele>
        <time>2021-09-25T12:53:03.000Z</time>
      </trkpt>
      <trkpt lat="45.66539" lon="-1.14406">
        <ele>2.6</ele>
        <time>2021-09-25T12:52:57.000Z</time>
      </trkpt>
      <trkpt lat="45.66541" lon="-1.14393">
        <ele>2.8</ele>
        <time>2021-09-25T12:52:51.000Z</time>
      </trkpt>
      <trkpt lat="45.6654" lon="-1.1438">
        <ele>3.2</ele>
        <time>2021-09-25T12:52:45.000Z</time>
      </trkpt>
      <trkpt lat="45.66538" lon="-1.14367">
        <ele>3.3</ele>
        <time>2021-09-25T12:52:39.000Z</time>
      </trkpt>
      <trkpt lat="45.66537" lon="-1.14353">
        <ele>3.3</ele>
        <time>2021-09-25T12:52:32.000Z</time>
      </trkpt>
      <trkpt lat="45.66534" lon="-1.1434">
        <ele>3.5</ele>
        <time>2021-09-25T12:52:26.000Z</time>
      </trkpt>
      <trkpt lat="45.66532" lon="-1.14327">
        <ele>4.1</ele>
        <time>2021-09-25T12:52:20.000Z</time>
      </trkpt>
      <trkpt lat="45.66531" lon="-1.14312">
        <ele>5</ele>
        <time>2021-09-25T12:52:13.000Z</time>
      </trkpt>
      <trkpt lat="45.66533" lon="-1.14298">
        <ele>5.5</ele>
        <time>2021-09-25T12:52:06.000Z</time>
      </trkpt>
      <trkpt lat="45.66536" lon="-1.14285">
        <ele>6.5</ele>
        <time>2021-09-25T12:51:58.000Z</time>
      </trkpt>
      <trkpt lat="45.66543" lon="-1.14276">
        <ele>6.8</ele>
        <time>2021-09-25T12:51:51.000Z</time>
      </trkpt>
      <trkpt lat="45.66549" lon="-1.14265">
        <ele>6.9</ele>
        <time>2021-09-25T12:51:45.000Z</time>
      </trkpt>
      <trkpt lat="45.66555" lon="-1.14254">
        <ele>7.2</ele>
        <time>2021-09-25T12:51:39.000Z</time>
      </trkpt>
      <trkpt lat="45.66562" lon="-1.14245">
        <ele>7.9</ele>
        <time>2021-09-25T12:51:33.000Z</time>
      </trkpt>
      <trkpt lat="45.66568" lon="-1.14235">
        <ele>8.1</ele>
        <time>2021-09-25T12:51:27.000Z</time>
      </trkpt>
      <trkpt lat="45.66575" lon="-1.14224">
        <ele>8.8</ele>
        <time>2021-09-25T12:51:21.000Z</time>
      </trkpt>
      <trkpt lat="45.66582" lon="-1.14215">
        <ele>9.9</ele>
        <time>2021-09-25T12:51:15.000Z</time>
      </trkpt>
      <trkpt lat="45.66589" lon="-1.14205">
        <ele>10.5</ele>
        <time>2021-09-25T12:51:09.000Z</time>
      </trkpt>
      <trkpt lat="45.66597" lon="-1.14198">
        <ele>11.2</ele>
        <time>2021-09-25T12:51:03.000Z</time>
      </trkpt>
      <trkpt lat="45.66605" lon="-1.14187">
        <ele>11.5</ele>
        <time>2021-09-25T12:50:56.000Z</time>
      </trkpt>
      <trkpt lat="45.66612" lon="-1.14176">
        <ele>12.3</ele>
        <time>2021-09-25T12:50:50.000Z</time>
      </trkpt>
      <trkpt lat="45.66619" lon="-1.14166">
        <ele>12.5</ele>
        <time>2021-09-25T12:50:44.000Z</time>
      </trkpt>
      <trkpt lat="45.66624" lon="-1.14154">
        <ele>12.6</ele>
        <time>2021-09-25T12:50:39.000Z</time>
      </trkpt>
      <trkpt lat="45.6663" lon="-1.14143">
        <ele>12.6</ele>
        <time>2021-09-25T12:50:33.000Z</time>
      </trkpt>
      <trkpt lat="45.66637" lon="-1.14133">
        <ele>12.7</ele>
        <time>2021-09-25T12:50:27.000Z</time>
      </trkpt>
      <trkpt lat="45.66645" lon="-1.14125">
        <ele>12.8</ele>
        <time>2021-09-25T12:50:20.000Z</time>
      </trkpt>
      <trkpt lat="45.66654" lon="-1.14116">
        <ele>13.3</ele>
        <time>2021-09-25T12:50:14.000Z</time>
      </trkpt>
      <trkpt lat="45.66659" lon="-1.14106">
        <ele>13.5</ele>
        <time>2021-09-25T12:50:09.000Z</time>
      </trkpt>
      <trkpt lat="45.66668" lon="-1.14098">
        <ele>13.5</ele>
        <time>2021-09-25T12:50:04.000Z</time>
      </trkpt>
      <trkpt lat="45.66674" lon="-1.14087">
        <ele>13.4</ele>
        <time>2021-09-25T12:49:58.000Z</time>
      </trkpt>
      <trkpt lat="45.6668" lon="-1.14075">
        <ele>13.2</ele>
        <time>2021-09-25T12:49:52.000Z</time>
      </trkpt>
      <trkpt lat="45.66689" lon="-1.14069">
        <ele>13.3</ele>
        <time>2021-09-25T12:49:48.000Z</time>
      </trkpt>
      <trkpt lat="45.66694" lon="-1.14057">
        <ele>14.2</ele>
        <time>2021-09-25T12:49:38.000Z</time>
      </trkpt>
      <trkpt lat="45.66702" lon="-1.14047">
        <ele>14</ele>
        <time>2021-09-25T12:49:30.000Z</time>
      </trkpt>
      <trkpt lat="45.66709" lon="-1.14038">
        <ele>13.4</ele>
        <time>2021-09-25T12:49:24.000Z</time>
      </trkpt>
      <trkpt lat="45.66716" lon="-1.14029">
        <ele>12.9</ele>
        <time>2021-09-25T12:49:16.000Z</time>
      </trkpt>
      <trkpt lat="45.66724" lon="-1.14021">
        <ele>11.7</ele>
        <time>2021-09-25T12:49:10.000Z</time>
      </trkpt>
      <trkpt lat="45.6673" lon="-1.14009">
        <ele>9.6</ele>
        <time>2021-09-25T12:49:02.000Z</time>
      </trkpt>
      <trkpt lat="45.66733" lon="-1.13997">
        <ele>8.3</ele>
        <time>2021-09-25T12:48:54.000Z</time>
      </trkpt>
      <trkpt lat="45.66741" lon="-1.13987">
        <ele>8.1</ele>
        <time>2021-09-25T12:48:48.000Z</time>
      </trkpt>
      <trkpt lat="45.66749" lon="-1.13978">
        <ele>7.7</ele>
        <time>2021-09-25T12:48:42.000Z</time>
      </trkpt>
      <trkpt lat="45.66755" lon="-1.13969">
        <ele>7</ele>
        <time>2021-09-25T12:48:37.000Z</time>
      </trkpt>
      <trkpt lat="45.66763" lon="-1.1396">
        <ele>6.5</ele>
        <time>2021-09-25T12:48:30.000Z</time>
      </trkpt>
      <trkpt lat="45.66771" lon="-1.1395">
        <ele>5.9</ele>
        <time>2021-09-25T12:48:24.000Z</time>
      </trkpt>
      <trkpt lat="45.66779" lon="-1.13942">
        <ele>5</ele>
        <time>2021-09-25T12:48:16.000Z</time>
      </trkpt>
      <trkpt lat="45.66788" lon="-1.13946">
        <ele>4.8</ele>
        <time>2021-09-25T12:48:11.000Z</time>
      </trkpt>
      <trkpt lat="45.66797" lon="-1.13954">
        <ele>4.7</ele>
        <time>2021-09-25T12:48:05.000Z</time>
      </trkpt>
      <trkpt lat="45.66804" lon="-1.13963">
        <ele>4.5</ele>
        <time>2021-09-25T12:47:57.000Z</time>
      </trkpt>
      <trkpt lat="45.66815" lon="-1.13969">
        <ele>4.4</ele>
        <time>2021-09-25T12:47:50.000Z</time>
      </trkpt>
      <trkpt lat="45.66822" lon="-1.13979">
        <ele>4</ele>
        <time>2021-09-25T12:47:41.000Z</time>
      </trkpt>
      <trkpt lat="45.66829" lon="-1.13989">
        <ele>4</ele>
        <time>2021-09-25T12:47:33.000Z</time>
      </trkpt>
      <trkpt lat="45.66838" lon="-1.13993">
        <ele>3.9</ele>
        <time>2021-09-25T12:47:17.000Z</time>
      </trkpt>
      <trkpt lat="45.66846" lon="-1.14002">
        <ele>3.9</ele>
        <time>2021-09-25T12:47:11.000Z</time>
      </trkpt>
      <trkpt lat="45.66856" lon="-1.14008">
        <ele>3.7</ele>
        <time>2021-09-25T12:47:05.000Z</time>
      </trkpt>
      <trkpt lat="45.66863" lon="-1.14015">
        <ele>4</ele>
        <time>2021-09-25T12:47:00.000Z</time>
      </trkpt>
      <trkpt lat="45.66872" lon="-1.14021">
        <ele>3.9</ele>
        <time>2021-09-25T12:46:55.000Z</time>
      </trkpt>
      <trkpt lat="45.66881" lon="-1.14029">
        <ele>4.1</ele>
        <time>2021-09-25T12:46:47.000Z</time>
      </trkpt>
      <trkpt lat="45.66887" lon="-1.14037">
        <ele>4.7</ele>
        <time>2021-09-25T12:46:40.000Z</time>
      </trkpt>
      <trkpt lat="45.66896" lon="-1.14045">
        <ele>4.9</ele>
        <time>2021-09-25T12:46:34.000Z</time>
      </trkpt>
      <trkpt lat="45.66905" lon="-1.14053">
        <ele>5.1</ele>
        <time>2021-09-25T12:46:28.000Z</time>
      </trkpt>
      <trkpt lat="45.66913" lon="-1.14061">
        <ele>4.5</ele>
        <time>2021-09-25T12:46:22.000Z</time>
      </trkpt>
      <trkpt lat="45.66922" lon="-1.14069">
        <ele>4.2</ele>
        <time>2021-09-25T12:46:16.000Z</time>
      </trkpt>
      <trkpt lat="45.66931" lon="-1.14077">
        <ele>4.2</ele>
        <time>2021-09-25T12:46:10.000Z</time>
      </trkpt>
      <trkpt lat="45.6694" lon="-1.14086">
        <ele>4.2</ele>
        <time>2021-09-25T12:46:04.000Z</time>
      </trkpt>
      <trkpt lat="45.66949" lon="-1.14093">
        <ele>5.8</ele>
        <time>2021-09-25T12:45:55.000Z</time>
      </trkpt>
      <trkpt lat="45.66957" lon="-1.141">
        <ele>6.9</ele>
        <time>2021-09-25T12:45:49.000Z</time>
      </trkpt>
      <trkpt lat="45.66965" lon="-1.14108">
        <ele>7.5</ele>
        <time>2021-09-25T12:45:43.000Z</time>
      </trkpt>
      <trkpt lat="45.66973" lon="-1.14115">
        <ele>6.5</ele>
        <time>2021-09-25T12:45:36.000Z</time>
      </trkpt>
      <trkpt lat="45.66982" lon="-1.14123">
        <ele>5.2</ele>
        <time>2021-09-25T12:45:30.000Z</time>
      </trkpt>
      <trkpt lat="45.66991" lon="-1.1413">
        <ele>5</ele>
        <time>2021-09-25T12:45:23.000Z</time>
      </trkpt>
      <trkpt lat="45.67" lon="-1.14138">
        <ele>4.7</ele>
        <time>2021-09-25T12:45:18.000Z</time>
      </trkpt>
      <trkpt lat="45.67007" lon="-1.14146">
        <ele>4.7</ele>
        <time>2021-09-25T12:45:11.000Z</time>
      </trkpt>
      <trkpt lat="45.67016" lon="-1.14153">
        <ele>4.8</ele>
        <time>2021-09-25T12:45:03.000Z</time>
      </trkpt>
      <trkpt lat="45.67025" lon="-1.14162">
        <ele>4.7</ele>
        <time>2021-09-25T12:44:56.000Z</time>
      </trkpt>
      <trkpt lat="45.67034" lon="-1.1417">
        <ele>4.6</ele>
        <time>2021-09-25T12:44:53.000Z</time>
      </trkpt>
      <trkpt lat="45.67042" lon="-1.14178">
        <ele>4.6</ele>
        <time>2021-09-25T12:44:47.000Z</time>
      </trkpt>
      <trkpt lat="45.6705" lon="-1.14187">
        <ele>4.9</ele>
        <time>2021-09-25T12:44:33.000Z</time>
      </trkpt>
      <trkpt lat="45.67058" lon="-1.14192">
        <ele>5.6</ele>
        <time>2021-09-25T12:44:26.000Z</time>
      </trkpt>
      <trkpt lat="45.67067" lon="-1.14198">
        <ele>5.6</ele>
        <time>2021-09-25T12:44:19.000Z</time>
      </trkpt>
      <trkpt lat="45.67075" lon="-1.14207">
        <ele>5.4</ele>
        <time>2021-09-25T12:44:13.000Z</time>
      </trkpt>
      <trkpt lat="45.67083" lon="-1.14214">
        <ele>5</ele>
        <time>2021-09-25T12:44:07.000Z</time>
      </trkpt>
      <trkpt lat="45.67091" lon="-1.1422">
        <ele>4.6</ele>
        <time>2021-09-25T12:44:00.000Z</time>
      </trkpt>
      <trkpt lat="45.67099" lon="-1.14229">
        <ele>4.5</ele>
        <time>2021-09-25T12:43:54.000Z</time>
      </trkpt>
      <trkpt lat="45.67107" lon="-1.14235">
        <ele>4.3</ele>
        <time>2021-09-25T12:43:49.000Z</time>
      </trkpt>
      <trkpt lat="45.67115" lon="-1.14242">
        <ele>4.1</ele>
        <time>2021-09-25T12:43:43.000Z</time>
      </trkpt>
      <trkpt lat="45.67123" lon="-1.14248">
        <ele>4.2</ele>
        <time>2021-09-25T12:43:38.000Z</time>
      </trkpt>
      <trkpt lat="45.67132" lon="-1.14254">
        <ele>4.4</ele>
        <time>2021-09-25T12:43:31.000Z</time>
      </trkpt>
      <trkpt lat="45.67138" lon="-1.14263">
        <ele>5.3</ele>
        <time>2021-09-25T12:43:25.000Z</time>
      </trkpt>
      <trkpt lat="45.67147" lon="-1.14271">
        <ele>6.8</ele>
        <time>2021-09-25T12:43:19.000Z</time>
      </trkpt>
      <trkpt lat="45.67156" lon="-1.14279">
        <ele>8.1</ele>
        <time>2021-09-25T12:43:13.000Z</time>
      </trkpt>
      <trkpt lat="45.67164" lon="-1.14287">
        <ele>9</ele>
        <time>2021-09-25T12:43:07.000Z</time>
      </trkpt>
      <trkpt lat="45.67173" lon="-1.14295">
        <ele>10</ele>
        <time>2021-09-25T12:43:00.000Z</time>
      </trkpt>
      <trkpt lat="45.67182" lon="-1.14301">
        <ele>9.5</ele>
        <time>2021-09-25T12:42:52.000Z</time>
      </trkpt>
      <trkpt lat="45.6719" lon="-1.14307">
        <ele>8</ele>
        <time>2021-09-25T12:42:46.000Z</time>
      </trkpt>
      <trkpt lat="45.67199" lon="-1.14315">
        <ele>7</ele>
        <time>2021-09-25T12:42:39.000Z</time>
      </trkpt>
      <trkpt lat="45.67207" lon="-1.14323">
        <ele>5.5</ele>
        <time>2021-09-25T12:42:33.000Z</time>
      </trkpt>
      <trkpt lat="45.67216" lon="-1.1433">
        <ele>4.6</ele>
        <time>2021-09-25T12:42:26.000Z</time>
      </trkpt>
      <trkpt lat="45.67224" lon="-1.14339">
        <ele>4.5</ele>
        <time>2021-09-25T12:42:18.000Z</time>
      </trkpt>
      <trkpt lat="45.67232" lon="-1.14346">
        <ele>4.5</ele>
        <time>2021-09-25T12:42:11.000Z</time>
      </trkpt>
      <trkpt lat="45.6724" lon="-1.14354">
        <ele>4.4</ele>
        <time>2021-09-25T12:42:05.000Z</time>
      </trkpt>
      <trkpt lat="45.67249" lon="-1.1436">
        <ele>4.4</ele>
        <time>2021-09-25T12:41:59.000Z</time>
      </trkpt>
      <trkpt lat="45.67257" lon="-1.14368">
        <ele>6.6</ele>
        <time>2021-09-25T12:41:50.000Z</time>
      </trkpt>
      <trkpt lat="45.67264" lon="-1.14376">
        <ele>7.4</ele>
        <time>2021-09-25T12:41:45.000Z</time>
      </trkpt>
      <trkpt lat="45.67273" lon="-1.14382">
        <ele>7.4</ele>
        <time>2021-09-25T12:41:40.000Z</time>
      </trkpt>
      <trkpt lat="45.67281" lon="-1.14388">
        <ele>7.3</ele>
        <time>2021-09-25T12:41:33.000Z</time>
      </trkpt>
      <trkpt lat="45.67289" lon="-1.14396">
        <ele>6.9</ele>
        <time>2021-09-25T12:41:24.000Z</time>
      </trkpt>
      <trkpt lat="45.67297" lon="-1.14403">
        <ele>6.6</ele>
        <time>2021-09-25T12:41:19.000Z</time>
      </trkpt>
      <trkpt lat="45.67304" lon="-1.14412">
        <ele>6.5</ele>
        <time>2021-09-25T12:41:12.000Z</time>
      </trkpt>
      <trkpt lat="45.67312" lon="-1.1442">
        <ele>6.1</ele>
        <time>2021-09-25T12:41:04.000Z</time>
      </trkpt>
      <trkpt lat="45.67318" lon="-1.1443">
        <ele>5.1</ele>
        <time>2021-09-25T12:40:57.000Z</time>
      </trkpt>
      <trkpt lat="45.67327" lon="-1.14435">
        <ele>4.2</ele>
        <time>2021-09-25T12:40:50.000Z</time>
      </trkpt>
      <trkpt lat="45.67338" lon="-1.14441">
        <ele>4.4</ele>
        <time>2021-09-25T12:40:07.000Z</time>
      </trkpt>
      <trkpt lat="45.67346" lon="-1.14447">
        <ele>4.3</ele>
        <time>2021-09-25T12:39:43.000Z</time>
      </trkpt>
      <trkpt lat="45.67353" lon="-1.14456">
        <ele>4.2</ele>
        <time>2021-09-25T12:39:35.000Z</time>
      </trkpt>
      <trkpt lat="45.67361" lon="-1.14464">
        <ele>4.7</ele>
        <time>2021-09-25T12:39:30.000Z</time>
      </trkpt>
      <trkpt lat="45.67368" lon="-1.1447">
        <ele>5.1</ele>
        <time>2021-09-25T12:39:25.000Z</time>
      </trkpt>
      <trkpt lat="45.67376" lon="-1.14479">
        <ele>6.5</ele>
        <time>2021-09-25T12:39:19.000Z</time>
      </trkpt>
      <trkpt lat="45.67385" lon="-1.14486">
        <ele>7.9</ele>
        <time>2021-09-25T12:39:12.000Z</time>
      </trkpt>
      <trkpt lat="45.67393" lon="-1.14494">
        <ele>8.4</ele>
        <time>2021-09-25T12:39:06.000Z</time>
      </trkpt>
      <trkpt lat="45.67401" lon="-1.14502">
        <ele>8.6</ele>
        <time>2021-09-25T12:39:00.000Z</time>
      </trkpt>
      <trkpt lat="45.67409" lon="-1.14511">
        <ele>8.8</ele>
        <time>2021-09-25T12:38:55.000Z</time>
      </trkpt>
      <trkpt lat="45.67418" lon="-1.1452">
        <ele>8.3</ele>
        <time>2021-09-25T12:38:50.000Z</time>
      </trkpt>
      <trkpt lat="45.67426" lon="-1.14527">
        <ele>7</ele>
        <time>2021-09-25T12:38:45.000Z</time>
      </trkpt>
      <trkpt lat="45.67435" lon="-1.14534">
        <ele>6.4</ele>
        <time>2021-09-25T12:38:40.000Z</time>
      </trkpt>
      <trkpt lat="45.67443" lon="-1.14542">
        <ele>6.6</ele>
        <time>2021-09-25T12:38:32.000Z</time>
      </trkpt>
      <trkpt lat="45.67452" lon="-1.1455">
        <ele>6.9</ele>
        <time>2021-09-25T12:38:27.000Z</time>
      </trkpt>
      <trkpt lat="45.67461" lon="-1.14557">
        <ele>6.4</ele>
        <time>2021-09-25T12:38:22.000Z</time>
      </trkpt>
      <trkpt lat="45.6747" lon="-1.14564">
        <ele>5.3</ele>
        <time>2021-09-25T12:38:18.000Z</time>
      </trkpt>
      <trkpt lat="45.67477" lon="-1.14571">
        <ele>4.7</ele>
        <time>2021-09-25T12:38:15.000Z</time>
      </trkpt>
      <trkpt lat="45.67485" lon="-1.14579">
        <ele>3.9</ele>
        <time>2021-09-25T12:38:12.000Z</time>
      </trkpt>
      <trkpt lat="45.67495" lon="-1.14587">
        <ele>3.4</ele>
        <time>2021-09-25T12:38:09.000Z</time>
      </trkpt>
      <trkpt lat="45.67505" lon="-1.14596">
        <ele>3.2</ele>
        <time>2021-09-25T12:38:05.000Z</time>
      </trkpt>
      <trkpt lat="45.67513" lon="-1.14605">
        <ele>3.1</ele>
        <time>2021-09-25T12:38:02.000Z</time>
      </trkpt>
      <trkpt lat="45.67522" lon="-1.14613">
        <ele>3</ele>
        <time>2021-09-25T12:37:58.000Z</time>
      </trkpt>
      <trkpt lat="45.67529" lon="-1.14621">
        <ele>2.7</ele>
        <time>2021-09-25T12:37:55.000Z</time>
      </trkpt>
      <trkpt lat="45.67539" lon="-1.14628">
        <ele>2.7</ele>
        <time>2021-09-25T12:37:51.000Z</time>
      </trkpt>
      <trkpt lat="45.67548" lon="-1.14636">
        <ele>3</ele>
        <time>2021-09-25T12:37:45.000Z</time>
      </trkpt>
      <trkpt lat="45.67557" lon="-1.14641">
        <ele>3.9</ele>
        <time>2021-09-25T12:37:39.000Z</time>
      </trkpt>
      <trkpt lat="45.67566" lon="-1.14646">
        <ele>3.9</ele>
        <time>2021-09-25T12:37:34.000Z</time>
      </trkpt>
      <trkpt lat="45.67574" lon="-1.14655">
        <ele>3.9</ele>
        <time>2021-09-25T12:37:29.000Z</time>
      </trkpt>
      <trkpt lat="45.6758" lon="-1.14668">
        <ele>3.8</ele>
        <time>2021-09-25T12:37:23.000Z</time>
      </trkpt>
      <trkpt lat="45.67582" lon="-1.14682">
        <ele>3.7</ele>
        <time>2021-09-25T12:37:17.000Z</time>
      </trkpt>
      <trkpt lat="45.67586" lon="-1.14696">
        <ele>3.4</ele>
        <time>2021-09-25T12:37:12.000Z</time>
      </trkpt>
      <trkpt lat="45.67587" lon="-1.14709">
        <ele>3.4</ele>
        <time>2021-09-25T12:37:05.000Z</time>
      </trkpt>
      <trkpt lat="45.67596" lon="-1.14709">
        <ele>3.2</ele>
        <time>2021-09-25T12:36:58.000Z</time>
      </trkpt>
      <trkpt lat="45.67605" lon="-1.14706">
        <ele>3</ele>
        <time>2021-09-25T12:36:51.000Z</time>
      </trkpt>
      <trkpt lat="45.67615" lon="-1.14708">
        <ele>3.1</ele>
        <time>2021-09-25T12:36:43.000Z</time>
      </trkpt>
      <trkpt lat="45.67624" lon="-1.14712">
        <ele>3.5</ele>
        <time>2021-09-25T12:36:36.000Z</time>
      </trkpt>
      <trkpt lat="45.67632" lon="-1.14721">
        <ele>4</ele>
        <time>2021-09-25T12:36:29.000Z</time>
      </trkpt>
      <trkpt lat="45.67641" lon="-1.14726">
        <ele>4.2</ele>
        <time>2021-09-25T12:36:23.000Z</time>
      </trkpt>
      <trkpt lat="45.67649" lon="-1.14733">
        <ele>4.3</ele>
        <time>2021-09-25T12:36:16.000Z</time>
      </trkpt>
      <trkpt lat="45.67658" lon="-1.14738">
        <ele>4.3</ele>
        <time>2021-09-25T12:36:10.000Z</time>
      </trkpt>
      <trkpt lat="45.67666" lon="-1.14747">
        <ele>4.4</ele>
        <time>2021-09-25T12:36:03.000Z</time>
      </trkpt>
      <trkpt lat="45.67675" lon="-1.14753">
        <ele>4.1</ele>
        <time>2021-09-25T12:35:58.000Z</time>
      </trkpt>
      <trkpt lat="45.67684" lon="-1.14759">
        <ele>3.5</ele>
        <time>2021-09-25T12:35:52.000Z</time>
      </trkpt>
      <trkpt lat="45.67692" lon="-1.14767">
        <ele>3.3</ele>
        <time>2021-09-25T12:35:46.000Z</time>
      </trkpt>
      <trkpt lat="45.677" lon="-1.14774">
        <ele>3.1</ele>
        <time>2021-09-25T12:35:39.000Z</time>
      </trkpt>
      <trkpt lat="45.67709" lon="-1.14781">
        <ele>3.2</ele>
        <time>2021-09-25T12:35:33.000Z</time>
      </trkpt>
      <trkpt lat="45.67716" lon="-1.14791">
        <ele>3.3</ele>
        <time>2021-09-25T12:35:26.000Z</time>
      </trkpt>
      <trkpt lat="45.67725" lon="-1.14799">
        <ele>3.3</ele>
        <time>2021-09-25T12:35:20.000Z</time>
      </trkpt>
      <trkpt lat="45.67733" lon="-1.14806">
        <ele>3.7</ele>
        <time>2021-09-25T12:35:14.000Z</time>
      </trkpt>
      <trkpt lat="45.67741" lon="-1.14814">
        <ele>4.4</ele>
        <time>2021-09-25T12:35:09.000Z</time>
      </trkpt>
      <trkpt lat="45.6775" lon="-1.1482">
        <ele>4.3</ele>
        <time>2021-09-25T12:35:02.000Z</time>
      </trkpt>
      <trkpt lat="45.67758" lon="-1.14829">
        <ele>4.2</ele>
        <time>2021-09-25T12:34:56.000Z</time>
      </trkpt>
      <trkpt lat="45.67766" lon="-1.14836">
        <ele>3.7</ele>
        <time>2021-09-25T12:34:51.000Z</time>
      </trkpt>
      <trkpt lat="45.67775" lon="-1.1484">
        <ele>3</ele>
        <time>2021-09-25T12:34:44.000Z</time>
      </trkpt>
      <trkpt lat="45.67783" lon="-1.14848">
        <ele>3</ele>
        <time>2021-09-25T12:34:37.000Z</time>
      </trkpt>
      <trkpt lat="45.67791" lon="-1.14854">
        <ele>3.1</ele>
        <time>2021-09-25T12:34:32.000Z</time>
      </trkpt>
      <trkpt lat="45.67799" lon="-1.1486">
        <ele>3.1</ele>
        <time>2021-09-25T12:34:27.000Z</time>
      </trkpt>
      <trkpt lat="45.67807" lon="-1.14866">
        <ele>3</ele>
        <time>2021-09-25T12:34:22.000Z</time>
      </trkpt>
      <trkpt lat="45.67816" lon="-1.14873">
        <ele>2.6</ele>
        <time>2021-09-25T12:34:14.000Z</time>
      </trkpt>
      <trkpt lat="45.67823" lon="-1.1488">
        <ele>2.6</ele>
        <time>2021-09-25T12:34:10.000Z</time>
      </trkpt>
      <trkpt lat="45.6783" lon="-1.14889">
        <ele>2.8</ele>
        <time>2021-09-25T12:34:03.000Z</time>
      </trkpt>
      <trkpt lat="45.67838" lon="-1.14898">
        <ele>3.9</ele>
        <time>2021-09-25T12:33:55.000Z</time>
      </trkpt>
      <trkpt lat="45.67847" lon="-1.14903">
        <ele>4.6</ele>
        <time>2021-09-25T12:33:49.000Z</time>
      </trkpt>
      <trkpt lat="45.67854" lon="-1.14913">
        <ele>5</ele>
        <time>2021-09-25T12:33:41.000Z</time>
      </trkpt>
      <trkpt lat="45.67863" lon="-1.14916">
        <ele>4.7</ele>
        <time>2021-09-25T12:33:36.000Z</time>
      </trkpt>
      <trkpt lat="45.67871" lon="-1.14923">
        <ele>3.5</ele>
        <time>2021-09-25T12:33:28.000Z</time>
      </trkpt>
      <trkpt lat="45.67878" lon="-1.14932">
        <ele>3.3</ele>
        <time>2021-09-25T12:33:22.000Z</time>
      </trkpt>
      <trkpt lat="45.67885" lon="-1.1494">
        <ele>3.3</ele>
        <time>2021-09-25T12:33:15.000Z</time>
      </trkpt>
      <trkpt lat="45.67894" lon="-1.14946">
        <ele>3.3</ele>
        <time>2021-09-25T12:33:09.000Z</time>
      </trkpt>
      <trkpt lat="45.67902" lon="-1.14956">
        <ele>3.3</ele>
        <time>2021-09-25T12:33:03.000Z</time>
      </trkpt>
      <trkpt lat="45.67908" lon="-1.14966">
        <ele>3.3</ele>
        <time>2021-09-25T12:32:56.000Z</time>
      </trkpt>
      <trkpt lat="45.67917" lon="-1.14971">
        <ele>3.5</ele>
        <time>2021-09-25T12:32:50.000Z</time>
      </trkpt>
      <trkpt lat="45.67924" lon="-1.1498">
        <ele>4.2</ele>
        <time>2021-09-25T12:32:44.000Z</time>
      </trkpt>
      <trkpt lat="45.67934" lon="-1.14988">
        <ele>4.4</ele>
        <time>2021-09-25T12:32:40.000Z</time>
      </trkpt>
      <trkpt lat="45.67943" lon="-1.14996">
        <ele>5.3</ele>
        <time>2021-09-25T12:32:33.000Z</time>
      </trkpt>
      <trkpt lat="45.67951" lon="-1.15002">
        <ele>5.2</ele>
        <time>2021-09-25T12:32:27.000Z</time>
      </trkpt>
      <trkpt lat="45.6796" lon="-1.15008">
        <ele>4.8</ele>
        <time>2021-09-25T12:32:20.000Z</time>
      </trkpt>
      <trkpt lat="45.67967" lon="-1.15017">
        <ele>4.3</ele>
        <time>2021-09-25T12:32:15.000Z</time>
      </trkpt>
      <trkpt lat="45.67976" lon="-1.15024">
        <ele>3.3</ele>
        <time>2021-09-25T12:32:08.000Z</time>
      </trkpt>
      <trkpt lat="45.67985" lon="-1.1503">
        <ele>2.8</ele>
        <time>2021-09-25T12:32:01.000Z</time>
      </trkpt>
      <trkpt lat="45.67994" lon="-1.15038">
        <ele>2.9</ele>
        <time>2021-09-25T12:31:55.000Z</time>
      </trkpt>
      <trkpt lat="45.68003" lon="-1.15045">
        <ele>2.9</ele>
        <time>2021-09-25T12:31:51.000Z</time>
      </trkpt>
      <trkpt lat="45.68011" lon="-1.15053">
        <ele>3</ele>
        <time>2021-09-25T12:31:44.000Z</time>
      </trkpt>
      <trkpt lat="45.68019" lon="-1.1506">
        <ele>3.2</ele>
        <time>2021-09-25T12:31:35.000Z</time>
      </trkpt>
      <trkpt lat="45.68025" lon="-1.15069">
        <ele>3.3</ele>
        <time>2021-09-25T12:31:29.000Z</time>
      </trkpt>
      <trkpt lat="45.68034" lon="-1.15075">
        <ele>3.7</ele>
        <time>2021-09-25T12:31:23.000Z</time>
      </trkpt>
      <trkpt lat="45.68044" lon="-1.15084">
        <ele>4.6</ele>
        <time>2021-09-25T12:31:16.000Z</time>
      </trkpt>
      <trkpt lat="45.68051" lon="-1.15096">
        <ele>6.4</ele>
        <time>2021-09-25T12:31:11.000Z</time>
      </trkpt>
      <trkpt lat="45.6806" lon="-1.15102">
        <ele>7.1</ele>
        <time>2021-09-25T12:31:05.000Z</time>
      </trkpt>
      <trkpt lat="45.68068" lon="-1.15109">
        <ele>7.1</ele>
        <time>2021-09-25T12:31:01.000Z</time>
      </trkpt>
      <trkpt lat="45.68077" lon="-1.15116">
        <ele>7.1</ele>
        <time>2021-09-25T12:30:54.000Z</time>
      </trkpt>
      <trkpt lat="45.68085" lon="-1.15126">
        <ele>7.1</ele>
        <time>2021-09-25T12:30:47.000Z</time>
      </trkpt>
      <trkpt lat="45.68093" lon="-1.15133">
        <ele>7.1</ele>
        <time>2021-09-25T12:30:40.000Z</time>
      </trkpt>
      <trkpt lat="45.68101" lon="-1.15142">
        <ele>7.3</ele>
        <time>2021-09-25T12:30:33.000Z</time>
      </trkpt>
      <trkpt lat="45.6811" lon="-1.1515">
        <ele>8.1</ele>
        <time>2021-09-25T12:30:26.000Z</time>
      </trkpt>
      <trkpt lat="45.68119" lon="-1.15159">
        <ele>9.9</ele>
        <time>2021-09-25T12:30:18.000Z</time>
      </trkpt>
      <trkpt lat="45.68128" lon="-1.15166">
        <ele>10.7</ele>
        <time>2021-09-25T12:30:14.000Z</time>
      </trkpt>
      <trkpt lat="45.68138" lon="-1.15173">
        <ele>11.6</ele>
        <time>2021-09-25T12:30:06.000Z</time>
      </trkpt>
      <trkpt lat="45.68149" lon="-1.1518">
        <ele>11.5</ele>
        <time>2021-09-25T12:30:00.000Z</time>
      </trkpt>
      <trkpt lat="45.68156" lon="-1.15189">
        <ele>11.4</ele>
        <time>2021-09-25T12:29:55.000Z</time>
      </trkpt>
      <trkpt lat="45.68165" lon="-1.15199">
        <ele>11.1</ele>
        <time>2021-09-25T12:29:49.000Z</time>
      </trkpt>
      <trkpt lat="45.68173" lon="-1.15207">
        <ele>9.1</ele>
        <time>2021-09-25T12:29:43.000Z</time>
      </trkpt>
      <trkpt lat="45.6818" lon="-1.15215">
        <ele>6.6</ele>
        <time>2021-09-25T12:29:39.000Z</time>
      </trkpt>
      <trkpt lat="45.68188" lon="-1.15223">
        <ele>5.3</ele>
        <time>2021-09-25T12:29:33.000Z</time>
      </trkpt>
      <trkpt lat="45.68196" lon="-1.1523">
        <ele>4.9</ele>
        <time>2021-09-25T12:29:28.000Z</time>
      </trkpt>
      <trkpt lat="45.68205" lon="-1.15237">
        <ele>5.1</ele>
        <time>2021-09-25T12:29:20.000Z</time>
      </trkpt>
      <trkpt lat="45.68212" lon="-1.15244">
        <ele>6</ele>
        <time>2021-09-25T12:29:15.000Z</time>
      </trkpt>
      <trkpt lat="45.6822" lon="-1.15252">
        <ele>6.2</ele>
        <time>2021-09-25T12:29:09.000Z</time>
      </trkpt>
      <trkpt lat="45.68228" lon="-1.15261">
        <ele>6.2</ele>
        <time>2021-09-25T12:29:03.000Z</time>
      </trkpt>
      <trkpt lat="45.68237" lon="-1.15266">
        <ele>5.9</ele>
        <time>2021-09-25T12:28:57.000Z</time>
      </trkpt>
      <trkpt lat="45.68246" lon="-1.15273">
        <ele>4.1</ele>
        <time>2021-09-25T12:28:49.000Z</time>
      </trkpt>
      <trkpt lat="45.68253" lon="-1.15281">
        <ele>4</ele>
        <time>2021-09-25T12:28:42.000Z</time>
      </trkpt>
      <trkpt lat="45.6826" lon="-1.1529">
        <ele>4.2</ele>
        <time>2021-09-25T12:28:37.000Z</time>
      </trkpt>
      <trkpt lat="45.68269" lon="-1.15296">
        <ele>4.2</ele>
        <time>2021-09-25T12:28:31.000Z</time>
      </trkpt>
      <trkpt lat="45.68278" lon="-1.15303">
        <ele>4</ele>
        <time>2021-09-25T12:28:23.000Z</time>
      </trkpt>
      <trkpt lat="45.68286" lon="-1.15312">
        <ele>3.6</ele>
        <time>2021-09-25T12:28:16.000Z</time>
      </trkpt>
      <trkpt lat="45.68295" lon="-1.15318">
        <ele>3.3</ele>
        <time>2021-09-25T12:28:10.000Z</time>
      </trkpt>
      <trkpt lat="45.68303" lon="-1.15326">
        <ele>3.3</ele>
        <time>2021-09-25T12:28:04.000Z</time>
      </trkpt>
      <trkpt lat="45.6831" lon="-1.15334">
        <ele>3.3</ele>
        <time>2021-09-25T12:27:58.000Z</time>
      </trkpt>
      <trkpt lat="45.68317" lon="-1.15343">
        <ele>3.4</ele>
        <time>2021-09-25T12:27:51.000Z</time>
      </trkpt>
      <trkpt lat="45.68326" lon="-1.15348">
        <ele>4</ele>
        <time>2021-09-25T12:27:46.000Z</time>
      </trkpt>
      <trkpt lat="45.68335" lon="-1.15354">
        <ele>4.3</ele>
        <time>2021-09-25T12:27:40.000Z</time>
      </trkpt>
      <trkpt lat="45.68346" lon="-1.15359">
        <ele>4.7</ele>
        <time>2021-09-25T12:27:34.000Z</time>
      </trkpt>
      <trkpt lat="45.68352" lon="-1.15369">
        <ele>5.7</ele>
        <time>2021-09-25T12:27:29.000Z</time>
      </trkpt>
      <trkpt lat="45.68359" lon="-1.15378">
        <ele>6.1</ele>
        <time>2021-09-25T12:27:24.000Z</time>
      </trkpt>
      <trkpt lat="45.68366" lon="-1.15385">
        <ele>6.7</ele>
        <time>2021-09-25T12:27:18.000Z</time>
      </trkpt>
      <trkpt lat="45.68375" lon="-1.15391">
        <ele>6.9</ele>
        <time>2021-09-25T12:27:11.000Z</time>
      </trkpt>
      <trkpt lat="45.68384" lon="-1.15398">
        <ele>6.7</ele>
        <time>2021-09-25T12:27:05.000Z</time>
      </trkpt>
      <trkpt lat="45.68392" lon="-1.15405">
        <ele>6.1</ele>
        <time>2021-09-25T12:27:01.000Z</time>
      </trkpt>
      <trkpt lat="45.684" lon="-1.15413">
        <ele>4.4</ele>
        <time>2021-09-25T12:26:55.000Z</time>
      </trkpt>
      <trkpt lat="45.68407" lon="-1.15421">
        <ele>4.8</ele>
        <time>2021-09-25T12:26:48.000Z</time>
      </trkpt>
      <trkpt lat="45.68415" lon="-1.1543">
        <ele>6.3</ele>
        <time>2021-09-25T12:26:39.000Z</time>
      </trkpt>
      <trkpt lat="45.68423" lon="-1.15437">
        <ele>7.4</ele>
        <time>2021-09-25T12:26:34.000Z</time>
      </trkpt>
      <trkpt lat="45.68431" lon="-1.15446">
        <ele>8.4</ele>
        <time>2021-09-25T12:26:28.000Z</time>
      </trkpt>
      <trkpt lat="45.68439" lon="-1.15454">
        <ele>8.4</ele>
        <time>2021-09-25T12:26:22.000Z</time>
      </trkpt>
      <trkpt lat="45.68449" lon="-1.1546">
        <ele>8</ele>
        <time>2021-09-25T12:26:16.000Z</time>
      </trkpt>
      <trkpt lat="45.68456" lon="-1.15469">
        <ele>7.9</ele>
        <time>2021-09-25T12:26:09.000Z</time>
      </trkpt>
      <trkpt lat="45.68466" lon="-1.15475">
        <ele>7.8</ele>
        <time>2021-09-25T12:26:05.000Z</time>
      </trkpt>
      <trkpt lat="45.68474" lon="-1.15482">
        <ele>7.5</ele>
        <time>2021-09-25T12:26:00.000Z</time>
      </trkpt>
      <trkpt lat="45.68483" lon="-1.15488">
        <ele>6.5</ele>
        <time>2021-09-25T12:25:55.000Z</time>
      </trkpt>
      <trkpt lat="45.68493" lon="-1.15495">
        <ele>4.7</ele>
        <time>2021-09-25T12:25:50.000Z</time>
      </trkpt>
      <trkpt lat="45.68502" lon="-1.15505">
        <ele>4.1</ele>
        <time>2021-09-25T12:25:44.000Z</time>
      </trkpt>
      <trkpt lat="45.68509" lon="-1.15514">
        <ele>3.8</ele>
        <time>2021-09-25T12:25:37.000Z</time>
      </trkpt>
      <trkpt lat="45.68517" lon="-1.15523">
        <ele>3.8</ele>
        <time>2021-09-25T12:25:30.000Z</time>
      </trkpt>
      <trkpt lat="45.68525" lon="-1.15532">
        <ele>3.8</ele>
        <time>2021-09-25T12:25:24.000Z</time>
      </trkpt>
      <trkpt lat="45.68533" lon="-1.15537">
        <ele>3.8</ele>
        <time>2021-09-25T12:25:20.000Z</time>
      </trkpt>
      <trkpt lat="45.68544" lon="-1.15535">
        <ele>4.1</ele>
        <time>2021-09-25T12:25:15.000Z</time>
      </trkpt>
      <trkpt lat="45.68553" lon="-1.15534">
        <ele>4.1</ele>
        <time>2021-09-25T12:25:12.000Z</time>
      </trkpt>
      <trkpt lat="45.68564" lon="-1.15534">
        <ele>4.4</ele>
        <time>2021-09-25T12:25:08.000Z</time>
      </trkpt>
      <trkpt lat="45.68575" lon="-1.15532">
        <ele>4.4</ele>
        <time>2021-09-25T12:25:04.000Z</time>
      </trkpt>
      <trkpt lat="45.68587" lon="-1.15529">
        <ele>4.4</ele>
        <time>2021-09-25T12:25:00.000Z</time>
      </trkpt>
      <trkpt lat="45.68597" lon="-1.15525">
        <ele>4.4</ele>
        <time>2021-09-25T12:24:55.000Z</time>
      </trkpt>
      <trkpt lat="45.68606" lon="-1.15523">
        <ele>4.2</ele>
        <time>2021-09-25T12:24:48.000Z</time>
      </trkpt>
      <trkpt lat="45.68615" lon="-1.15522">
        <ele>3.6</ele>
        <time>2021-09-25T12:24:43.000Z</time>
      </trkpt>
      <trkpt lat="45.68625" lon="-1.15521">
        <ele>3.4</ele>
        <time>2021-09-25T12:24:38.000Z</time>
      </trkpt>
      <trkpt lat="45.68635" lon="-1.15521">
        <ele>3.3</ele>
        <time>2021-09-25T12:24:32.000Z</time>
      </trkpt>
      <trkpt lat="45.68645" lon="-1.15517">
        <ele>3.3</ele>
        <time>2021-09-25T12:24:26.000Z</time>
      </trkpt>
      <trkpt lat="45.68654" lon="-1.15514">
        <ele>3.3</ele>
        <time>2021-09-25T12:24:21.000Z</time>
      </trkpt>
      <trkpt lat="45.68665" lon="-1.15514">
        <ele>3.3</ele>
        <time>2021-09-25T12:24:16.000Z</time>
      </trkpt>
      <trkpt lat="45.68675" lon="-1.15511">
        <ele>3.3</ele>
        <time>2021-09-25T12:24:09.000Z</time>
      </trkpt>
      <trkpt lat="45.68684" lon="-1.15509">
        <ele>3.2</ele>
        <time>2021-09-25T12:24:05.000Z</time>
      </trkpt>
      <trkpt lat="45.68694" lon="-1.15507">
        <ele>3.2</ele>
        <time>2021-09-25T12:24:01.000Z</time>
      </trkpt>
      <trkpt lat="45.68704" lon="-1.15506">
        <ele>3</ele>
        <time>2021-09-25T12:23:57.000Z</time>
      </trkpt>
      <trkpt lat="45.68716" lon="-1.15508">
        <ele>3</ele>
        <time>2021-09-25T12:23:52.000Z</time>
      </trkpt>
      <trkpt lat="45.68726" lon="-1.15505">
        <ele>3.2</ele>
        <time>2021-09-25T12:23:44.000Z</time>
      </trkpt>
      <trkpt lat="45.68735" lon="-1.15504">
        <ele>3.3</ele>
        <time>2021-09-25T12:23:38.000Z</time>
      </trkpt>
      <trkpt lat="45.68744" lon="-1.15503">
        <ele>3.3</ele>
        <time>2021-09-25T12:23:31.000Z</time>
      </trkpt>
      <trkpt lat="45.68753" lon="-1.155">
        <ele>3.3</ele>
        <time>2021-09-25T12:23:23.000Z</time>
      </trkpt>
      <trkpt lat="45.68763" lon="-1.15499">
        <ele>3.3</ele>
        <time>2021-09-25T12:23:17.000Z</time>
      </trkpt>
      <trkpt lat="45.68771" lon="-1.15495">
        <ele>3.4</ele>
        <time>2021-09-25T12:23:12.000Z</time>
      </trkpt>
      <trkpt lat="45.68791" lon="-1.15492">
        <ele>4.1</ele>
        <time>2021-09-25T12:23:03.000Z</time>
      </trkpt>
      <trkpt lat="45.69382" lon="-1.15375">
        <ele>7.5</ele>
        <time>2021-09-25T12:18:24.000Z</time>
      </trkpt>
      <trkpt lat="45.69387" lon="-1.15346">
        <ele>7.8</ele>
        <time>2021-09-25T12:18:12.000Z</time>
      </trkpt>
      <trkpt lat="45.69392" lon="-1.15332">
        <ele>8.4</ele>
        <time>2021-09-25T12:18:06.000Z</time>
      </trkpt>
      <trkpt lat="45.69395" lon="-1.15319">
        <ele>9.6</ele>
        <time>2021-09-25T12:18:00.000Z</time>
      </trkpt>
      <trkpt lat="45.69402" lon="-1.15309">
        <ele>10.2</ele>
        <time>2021-09-25T12:17:53.000Z</time>
      </trkpt>
      <trkpt lat="45.69406" lon="-1.15296">
        <ele>10.6</ele>
        <time>2021-09-25T12:17:47.000Z</time>
      </trkpt>
      <trkpt lat="45.69409" lon="-1.15282">
        <ele>11.1</ele>
        <time>2021-09-25T12:17:41.000Z</time>
      </trkpt>
      <trkpt lat="45.69412" lon="-1.15268">
        <ele>10.8</ele>
        <time>2021-09-25T12:17:35.000Z</time>
      </trkpt>
      <trkpt lat="45.69414" lon="-1.15255">
        <ele>10.6</ele>
        <time>2021-09-25T12:17:28.000Z</time>
      </trkpt>
      <trkpt lat="45.69417" lon="-1.1524">
        <ele>10.3</ele>
        <time>2021-09-25T12:17:22.000Z</time>
      </trkpt>
      <trkpt lat="45.6942" lon="-1.15227">
        <ele>10</ele>
        <time>2021-09-25T12:17:17.000Z</time>
      </trkpt>
      <trkpt lat="45.69429" lon="-1.15218">
        <ele>9.3</ele>
        <time>2021-09-25T12:17:10.000Z</time>
      </trkpt>
      <trkpt lat="45.69436" lon="-1.15211">
        <ele>8.5</ele>
        <time>2021-09-25T12:17:04.000Z</time>
      </trkpt>
      <trkpt lat="45.69444" lon="-1.15204">
        <ele>7.9</ele>
        <time>2021-09-25T12:16:58.000Z</time>
      </trkpt>
      <trkpt lat="45.69453" lon="-1.15197">
        <ele>7.5</ele>
        <time>2021-09-25T12:16:52.000Z</time>
      </trkpt>
      <trkpt lat="45.6946" lon="-1.15186">
        <ele>6.9</ele>
        <time>2021-09-25T12:16:45.000Z</time>
      </trkpt>
      <trkpt lat="45.69467" lon="-1.15179">
        <ele>6.8</ele>
        <time>2021-09-25T12:16:39.000Z</time>
      </trkpt>
      <trkpt lat="45.69475" lon="-1.1517">
        <ele>6.9</ele>
        <time>2021-09-25T12:16:33.000Z</time>
      </trkpt>
      <trkpt lat="45.69484" lon="-1.15165">
        <ele>7</ele>
        <time>2021-09-25T12:16:27.000Z</time>
      </trkpt>
      <trkpt lat="45.69494" lon="-1.15162">
        <ele>7.4</ele>
        <time>2021-09-25T12:16:21.000Z</time>
      </trkpt>
      <trkpt lat="45.69503" lon="-1.15159">
        <ele>7.4</ele>
        <time>2021-09-25T12:16:15.000Z</time>
      </trkpt>
      <trkpt lat="45.69512" lon="-1.15159">
        <ele>7.4</ele>
        <time>2021-09-25T12:16:10.000Z</time>
      </trkpt>
      <trkpt lat="45.69521" lon="-1.15158">
        <ele>7.3</ele>
        <time>2021-09-25T12:16:05.000Z</time>
      </trkpt>
      <trkpt lat="45.69533" lon="-1.15164">
        <ele>7</ele>
        <time>2021-09-25T12:15:58.000Z</time>
      </trkpt>
      <trkpt lat="45.69537" lon="-1.15176">
        <ele>6.7</ele>
        <time>2021-09-25T12:15:51.000Z</time>
      </trkpt>
      <trkpt lat="45.69535" lon="-1.15191">
        <ele>6.9</ele>
        <time>2021-09-25T12:15:45.000Z</time>
      </trkpt>
      <trkpt lat="45.69535" lon="-1.15207">
        <ele>7.9</ele>
        <time>2021-09-25T12:15:38.000Z</time>
      </trkpt>
      <trkpt lat="45.69535" lon="-1.15221">
        <ele>7.8</ele>
        <time>2021-09-25T12:15:32.000Z</time>
      </trkpt>
      <trkpt lat="45.69539" lon="-1.15233">
        <ele>7.7</ele>
        <time>2021-09-25T12:15:27.000Z</time>
      </trkpt>
      <trkpt lat="45.69544" lon="-1.15245">
        <ele>7.3</ele>
        <time>2021-09-25T12:15:20.000Z</time>
      </trkpt>
      <trkpt lat="45.69551" lon="-1.15254">
        <ele>7.6</ele>
        <time>2021-09-25T12:15:13.000Z</time>
      </trkpt>
      <trkpt lat="45.69561" lon="-1.15254">
        <ele>7.6</ele>
        <time>2021-09-25T12:15:06.000Z</time>
      </trkpt>
      <trkpt lat="45.69571" lon="-1.15251">
        <ele>7.4</ele>
        <time>2021-09-25T12:15:02.000Z</time>
      </trkpt>
      <trkpt lat="45.69581" lon="-1.15247">
        <ele>7.8</ele>
        <time>2021-09-25T12:14:56.000Z</time>
      </trkpt>
      <trkpt lat="45.6959" lon="-1.15241">
        <ele>7.9</ele>
        <time>2021-09-25T12:14:47.000Z</time>
      </trkpt>
      <trkpt lat="45.69594" lon="-1.15226">
        <ele>8.5</ele>
        <time>2021-09-25T12:14:40.000Z</time>
      </trkpt>
      <trkpt lat="45.696" lon="-1.15214">
        <ele>8.9</ele>
        <time>2021-09-25T12:14:34.000Z</time>
      </trkpt>
      <trkpt lat="45.69605" lon="-1.15204">
        <ele>9.2</ele>
        <time>2021-09-25T12:14:28.000Z</time>
      </trkpt>
      <trkpt lat="45.69611" lon="-1.15193">
        <ele>10.8</ele>
        <time>2021-09-25T12:14:20.000Z</time>
      </trkpt>
      <trkpt lat="45.69613" lon="-1.15181">
        <ele>11.4</ele>
        <time>2021-09-25T12:14:15.000Z</time>
      </trkpt>
      <trkpt lat="45.69612" lon="-1.15167">
        <ele>11.6</ele>
        <time>2021-09-25T12:14:09.000Z</time>
      </trkpt>
      <trkpt lat="45.6961" lon="-1.15153">
        <ele>12.7</ele>
        <time>2021-09-25T12:14:03.000Z</time>
      </trkpt>
      <trkpt lat="45.69604" lon="-1.15142">
        <ele>13</ele>
        <time>2021-09-25T12:13:57.000Z</time>
      </trkpt>
      <trkpt lat="45.69599" lon="-1.1513">
        <ele>13.5</ele>
        <time>2021-09-25T12:13:51.000Z</time>
      </trkpt>
      <trkpt lat="45.69597" lon="-1.15117">
        <ele>14.4</ele>
        <time>2021-09-25T12:13:43.000Z</time>
      </trkpt>
      <trkpt lat="45.69596" lon="-1.15102">
        <ele>15</ele>
        <time>2021-09-25T12:13:37.000Z</time>
      </trkpt>
      <trkpt lat="45.69593" lon="-1.15089">
        <ele>15.6</ele>
        <time>2021-09-25T12:13:31.000Z</time>
      </trkpt>
      <trkpt lat="45.69591" lon="-1.15075">
        <ele>16.6</ele>
        <time>2021-09-25T12:13:24.000Z</time>
      </trkpt>
      <trkpt lat="45.69586" lon="-1.15062">
        <ele>17.3</ele>
        <time>2021-09-25T12:13:17.000Z</time>
      </trkpt>
      <trkpt lat="45.69579" lon="-1.1505">
        <ele>17.3</ele>
        <time>2021-09-25T12:13:11.000Z</time>
      </trkpt>
      <trkpt lat="45.69573" lon="-1.15041">
        <ele>17.3</ele>
        <time>2021-09-25T12:13:05.000Z</time>
      </trkpt>
      <trkpt lat="45.69566" lon="-1.15031">
        <ele>17.5</ele>
        <time>2021-09-25T12:12:59.000Z</time>
      </trkpt>
      <trkpt lat="45.69561" lon="-1.15018">
        <ele>18.5</ele>
        <time>2021-09-25T12:12:53.000Z</time>
      </trkpt>
      <trkpt lat="45.6956" lon="-1.15006">
        <ele>19.5</ele>
        <time>2021-09-25T12:12:45.000Z</time>
      </trkpt>
      <trkpt lat="45.69556" lon="-1.14991">
        <ele>19.5</ele>
        <time>2021-09-25T12:12:39.000Z</time>
      </trkpt>
      <trkpt lat="45.69549" lon="-1.14981">
        <ele>19.4</ele>
        <time>2021-09-25T12:12:34.000Z</time>
      </trkpt>
      <trkpt lat="45.69541" lon="-1.14974">
        <ele>18.9</ele>
        <time>2021-09-25T12:12:27.000Z</time>
      </trkpt>
      <trkpt lat="45.69533" lon="-1.14964">
        <ele>18.7</ele>
        <time>2021-09-25T12:12:21.000Z</time>
      </trkpt>
      <trkpt lat="45.69531" lon="-1.1495">
        <ele>17.6</ele>
        <time>2021-09-25T12:12:13.000Z</time>
      </trkpt>
      <trkpt lat="45.69533" lon="-1.14936">
        <ele>16.2</ele>
        <time>2021-09-25T12:12:06.000Z</time>
      </trkpt>
      <trkpt lat="45.69534" lon="-1.14923">
        <ele>14.8</ele>
        <time>2021-09-25T12:12:00.000Z</time>
      </trkpt>
      <trkpt lat="45.69538" lon="-1.1491">
        <ele>13.4</ele>
        <time>2021-09-25T12:11:53.000Z</time>
      </trkpt>
      <trkpt lat="45.69548" lon="-1.14909">
        <ele>10.6</ele>
        <time>2021-09-25T12:11:47.000Z</time>
      </trkpt>
      <trkpt lat="45.69553" lon="-1.14921">
        <ele>7.9</ele>
        <time>2021-09-25T12:11:43.000Z</time>
      </trkpt>
      <trkpt lat="45.69563" lon="-1.14929">
        <ele>6.7</ele>
        <time>2021-09-25T12:11:39.000Z</time>
      </trkpt>
      <trkpt lat="45.69573" lon="-1.14924">
        <ele>5.8</ele>
        <time>2021-09-25T12:11:36.000Z</time>
      </trkpt>
      <trkpt lat="45.69581" lon="-1.14914">
        <ele>5.1</ele>
        <time>2021-09-25T12:11:32.000Z</time>
      </trkpt>
      <trkpt lat="45.69591" lon="-1.14906">
        <ele>4.7</ele>
        <time>2021-09-25T12:11:27.000Z</time>
      </trkpt>
      <trkpt lat="45.69595" lon="-1.14895">
        <ele>4.5</ele>
        <time>2021-09-25T12:11:23.000Z</time>
      </trkpt>
      <trkpt lat="45.69597" lon="-1.14882">
        <ele>4.5</ele>
        <time>2021-09-25T12:11:18.000Z</time>
      </trkpt>
      <trkpt lat="45.69596" lon="-1.14869">
        <ele>4.7</ele>
        <time>2021-09-25T12:11:11.000Z</time>
      </trkpt>
      <trkpt lat="45.69598" lon="-1.14856">
        <ele>5.1</ele>
        <time>2021-09-25T12:11:05.000Z</time>
      </trkpt>
      <trkpt lat="45.69601" lon="-1.14841">
        <ele>6.1</ele>
        <time>2021-09-25T12:10:58.000Z</time>
      </trkpt>
      <trkpt lat="45.69605" lon="-1.14827">
        <ele>6.2</ele>
        <time>2021-09-25T12:10:51.000Z</time>
      </trkpt>
      <trkpt lat="45.69611" lon="-1.14816">
        <ele>6.1</ele>
        <time>2021-09-25T12:10:44.000Z</time>
      </trkpt>
      <trkpt lat="45.69621" lon="-1.14813">
        <ele>6</ele>
        <time>2021-09-25T12:10:38.000Z</time>
      </trkpt>
      <trkpt lat="45.6963" lon="-1.1481">
        <ele>6</ele>
        <time>2021-09-25T12:10:32.000Z</time>
      </trkpt>
      <trkpt lat="45.6964" lon="-1.14806">
        <ele>6</ele>
        <time>2021-09-25T12:10:28.000Z</time>
      </trkpt>
      <trkpt lat="45.69649" lon="-1.14803">
        <ele>6.3</ele>
        <time>2021-09-25T12:10:22.000Z</time>
      </trkpt>
      <trkpt lat="45.69659" lon="-1.148">
        <ele>6.2</ele>
        <time>2021-09-25T12:10:16.000Z</time>
      </trkpt>
      <trkpt lat="45.69668" lon="-1.14795">
        <ele>5.5</ele>
        <time>2021-09-25T12:10:09.000Z</time>
      </trkpt>
      <trkpt lat="45.69678" lon="-1.14793">
        <ele>5.3</ele>
        <time>2021-09-25T12:10:03.000Z</time>
      </trkpt>
      <trkpt lat="45.69689" lon="-1.14789">
        <ele>5.2</ele>
        <time>2021-09-25T12:09:56.000Z</time>
      </trkpt>
      <trkpt lat="45.69698" lon="-1.14787">
        <ele>4.9</ele>
        <time>2021-09-25T12:09:50.000Z</time>
      </trkpt>
      <trkpt lat="45.69708" lon="-1.14783">
        <ele>4.2</ele>
        <time>2021-09-25T12:09:44.000Z</time>
      </trkpt>
      <trkpt lat="45.69717" lon="-1.14779">
        <ele>3.9</ele>
        <time>2021-09-25T12:09:38.000Z</time>
      </trkpt>
      <trkpt lat="45.69727" lon="-1.14777">
        <ele>3.6</ele>
        <time>2021-09-25T12:09:32.000Z</time>
      </trkpt>
      <trkpt lat="45.69736" lon="-1.14775">
        <ele>3.3</ele>
        <time>2021-09-25T12:09:26.000Z</time>
      </trkpt>
      <trkpt lat="45.69745" lon="-1.14772">
        <ele>3.3</ele>
        <time>2021-09-25T12:09:21.000Z</time>
      </trkpt>
      <trkpt lat="45.69755" lon="-1.14769">
        <ele>3.3</ele>
        <time>2021-09-25T12:09:15.000Z</time>
      </trkpt>
      <trkpt lat="45.69766" lon="-1.14766">
        <ele>3.4</ele>
        <time>2021-09-25T12:09:08.000Z</time>
      </trkpt>
      <trkpt lat="45.69775" lon="-1.14763">
        <ele>3.7</ele>
        <time>2021-09-25T12:09:02.000Z</time>
      </trkpt>
      <trkpt lat="45.69784" lon="-1.14761">
        <ele>3.9</ele>
        <time>2021-09-25T12:08:57.000Z</time>
      </trkpt>
      <trkpt lat="45.69794" lon="-1.14759">
        <ele>4.3</ele>
        <time>2021-09-25T12:08:51.000Z</time>
      </trkpt>
      <trkpt lat="45.69803" lon="-1.14756">
        <ele>4.4</ele>
        <time>2021-09-25T12:08:45.000Z</time>
      </trkpt>
      <trkpt lat="45.69813" lon="-1.14752">
        <ele>4.5</ele>
        <time>2021-09-25T12:08:39.000Z</time>
      </trkpt>
      <trkpt lat="45.69822" lon="-1.1475">
        <ele>4.5</ele>
        <time>2021-09-25T12:08:33.000Z</time>
      </trkpt>
      <trkpt lat="45.69832" lon="-1.14746">
        <ele>4.6</ele>
        <time>2021-09-25T12:08:28.000Z</time>
      </trkpt>
      <trkpt lat="45.69841" lon="-1.14746">
        <ele>4.6</ele>
        <time>2021-09-25T12:08:23.000Z</time>
      </trkpt>
      <trkpt lat="45.6985" lon="-1.14742">
        <ele>4.6</ele>
        <time>2021-09-25T12:08:17.000Z</time>
      </trkpt>
      <trkpt lat="45.69861" lon="-1.14736">
        <ele>4.7</ele>
        <time>2021-09-25T12:08:11.000Z</time>
      </trkpt>
      <trkpt lat="45.69872" lon="-1.14732">
        <ele>4.9</ele>
        <time>2021-09-25T12:08:05.000Z</time>
      </trkpt>
      <trkpt lat="45.69881" lon="-1.14729">
        <ele>4.9</ele>
        <time>2021-09-25T12:07:59.000Z</time>
      </trkpt>
      <trkpt lat="45.69891" lon="-1.14726">
        <ele>4.9</ele>
        <time>2021-09-25T12:07:53.000Z</time>
      </trkpt>
      <trkpt lat="45.69901" lon="-1.14723">
        <ele>4.9</ele>
        <time>2021-09-25T12:07:48.000Z</time>
      </trkpt>
      <trkpt lat="45.69911" lon="-1.14719">
        <ele>4.8</ele>
        <time>2021-09-25T12:07:41.000Z</time>
      </trkpt>
      <trkpt lat="45.69921" lon="-1.14718">
        <ele>4.5</ele>
        <time>2021-09-25T12:07:34.000Z</time>
      </trkpt>
      <trkpt lat="45.6993" lon="-1.14717">
        <ele>3.9</ele>
        <time>2021-09-25T12:07:28.000Z</time>
      </trkpt>
      <trkpt lat="45.6994" lon="-1.14714">
        <ele>3.9</ele>
        <time>2021-09-25T12:07:22.000Z</time>
      </trkpt>
      <trkpt lat="45.6995" lon="-1.14711">
        <ele>3.7</ele>
        <time>2021-09-25T12:07:15.000Z</time>
      </trkpt>
      <trkpt lat="45.6996" lon="-1.14708">
        <ele>3.6</ele>
        <time>2021-09-25T12:07:09.000Z</time>
      </trkpt>
      <trkpt lat="45.6997" lon="-1.14704">
        <ele>3.3</ele>
        <time>2021-09-25T12:07:03.000Z</time>
      </trkpt>
      <trkpt lat="45.6998" lon="-1.147">
        <ele>3.2</ele>
        <time>2021-09-25T12:06:58.000Z</time>
      </trkpt>
      <trkpt lat="45.6999" lon="-1.14699">
        <ele>3.1</ele>
        <time>2021-09-25T12:06:52.000Z</time>
      </trkpt>
      <trkpt lat="45.7" lon="-1.14695">
        <ele>3</ele>
        <time>2021-09-25T12:06:46.000Z</time>
      </trkpt>
      <trkpt lat="45.70008" lon="-1.14688">
        <ele>2.7</ele>
        <time>2021-09-25T12:06:40.000Z</time>
      </trkpt>
      <trkpt lat="45.70014" lon="-1.14677">
        <ele>2.8</ele>
        <time>2021-09-25T12:06:33.000Z</time>
      </trkpt>
      <trkpt lat="45.70022" lon="-1.1467">
        <ele>3</ele>
        <time>2021-09-25T12:06:26.000Z</time>
      </trkpt>
      <trkpt lat="45.7002" lon="-1.14656">
        <ele>3</ele>
        <time>2021-09-25T12:06:21.000Z</time>
      </trkpt>
      <trkpt lat="45.70018" lon="-1.14641">
        <ele>2.9</ele>
        <time>2021-09-25T12:06:15.000Z</time>
      </trkpt>
      <trkpt lat="45.70016" lon="-1.14627">
        <ele>3.3</ele>
        <time>2021-09-25T12:06:08.000Z</time>
      </trkpt>
      <trkpt lat="45.70014" lon="-1.14613">
        <ele>3.3</ele>
        <time>2021-09-25T12:06:03.000Z</time>
      </trkpt>
      <trkpt lat="45.70013" lon="-1.14598">
        <ele>3.3</ele>
        <time>2021-09-25T12:05:56.000Z</time>
      </trkpt>
      <trkpt lat="45.70011" lon="-1.14585">
        <ele>3.3</ele>
        <time>2021-09-25T12:05:51.000Z</time>
      </trkpt>
      <trkpt lat="45.70009" lon="-1.14571">
        <ele>3.3</ele>
        <time>2021-09-25T12:05:45.000Z</time>
      </trkpt>
      <trkpt lat="45.70006" lon="-1.14558">
        <ele>3.2</ele>
        <time>2021-09-25T12:05:39.000Z</time>
      </trkpt>
      <trkpt lat="45.70004" lon="-1.14545">
        <ele>3.3</ele>
        <time>2021-09-25T12:05:33.000Z</time>
      </trkpt>
      <trkpt lat="45.70003" lon="-1.14531">
        <ele>3.5</ele>
        <time>2021-09-25T12:05:27.000Z</time>
      </trkpt>
      <trkpt lat="45.70005" lon="-1.14518">
        <ele>3.5</ele>
        <time>2021-09-25T12:05:20.000Z</time>
      </trkpt>
      <trkpt lat="45.70013" lon="-1.14513">
        <ele>3.5</ele>
        <time>2021-09-25T12:05:15.000Z</time>
      </trkpt>
      <trkpt lat="45.70024" lon="-1.1451">
        <ele>3.7</ele>
        <time>2021-09-25T12:05:10.000Z</time>
      </trkpt>
      <trkpt lat="45.70034" lon="-1.14505">
        <ele>4.4</ele>
        <time>2021-09-25T12:05:04.000Z</time>
      </trkpt>
      <trkpt lat="45.70044" lon="-1.14503">
        <ele>4.6</ele>
        <time>2021-09-25T12:04:59.000Z</time>
      </trkpt>
      <trkpt lat="45.70053" lon="-1.145">
        <ele>4.9</ele>
        <time>2021-09-25T12:04:53.000Z</time>
      </trkpt>
      <trkpt lat="45.70062" lon="-1.14498">
        <ele>5</ele>
        <time>2021-09-25T12:04:47.000Z</time>
      </trkpt>
      <trkpt lat="45.70072" lon="-1.14496">
        <ele>5.3</ele>
        <time>2021-09-25T12:04:41.000Z</time>
      </trkpt>
      <trkpt lat="45.70082" lon="-1.14493">
        <ele>5.5</ele>
        <time>2021-09-25T12:04:35.000Z</time>
      </trkpt>
      <trkpt lat="45.70092" lon="-1.14491">
        <ele>5.5</ele>
        <time>2021-09-25T12:04:29.000Z</time>
      </trkpt>
      <trkpt lat="45.70101" lon="-1.14488">
        <ele>5.5</ele>
        <time>2021-09-25T12:04:23.000Z</time>
      </trkpt>
      <trkpt lat="45.70111" lon="-1.14485">
        <ele>5.4</ele>
        <time>2021-09-25T12:04:17.000Z</time>
      </trkpt>
      <trkpt lat="45.70121" lon="-1.14482">
        <ele>4.9</ele>
        <time>2021-09-25T12:04:11.000Z</time>
      </trkpt>
      <trkpt lat="45.70131" lon="-1.14479">
        <ele>4.9</ele>
        <time>2021-09-25T12:04:05.000Z</time>
      </trkpt>
      <trkpt lat="45.7014" lon="-1.14476">
        <ele>4.8</ele>
        <time>2021-09-25T12:03:59.000Z</time>
      </trkpt>
      <trkpt lat="45.70151" lon="-1.14473">
        <ele>4.7</ele>
        <time>2021-09-25T12:03:53.000Z</time>
      </trkpt>
      <trkpt lat="45.70161" lon="-1.14471">
        <ele>4.7</ele>
        <time>2021-09-25T12:03:47.000Z</time>
      </trkpt>
      <trkpt lat="45.70172" lon="-1.14471">
        <ele>4.5</ele>
        <time>2021-09-25T12:03:41.000Z</time>
      </trkpt>
      <trkpt lat="45.70181" lon="-1.14469">
        <ele>4.5</ele>
        <time>2021-09-25T12:03:36.000Z</time>
      </trkpt>
      <trkpt lat="45.70191" lon="-1.14466">
        <ele>4.5</ele>
        <time>2021-09-25T12:03:30.000Z</time>
      </trkpt>
      <trkpt lat="45.70199" lon="-1.1446">
        <ele>4.5</ele>
        <time>2021-09-25T12:03:25.000Z</time>
      </trkpt>
      <trkpt lat="45.70209" lon="-1.14459">
        <ele>4.3</ele>
        <time>2021-09-25T12:03:19.000Z</time>
      </trkpt>
      <trkpt lat="45.70219" lon="-1.14455">
        <ele>3.9</ele>
        <time>2021-09-25T12:03:13.000Z</time>
      </trkpt>
      <trkpt lat="45.70228" lon="-1.14455">
        <ele>3.8</ele>
        <time>2021-09-25T12:03:06.000Z</time>
      </trkpt>
      <trkpt lat="45.70239" lon="-1.14451">
        <ele>3.9</ele>
        <time>2021-09-25T12:02:59.000Z</time>
      </trkpt>
      <trkpt lat="45.70248" lon="-1.14447">
        <ele>4.3</ele>
        <time>2021-09-25T12:02:52.000Z</time>
      </trkpt>
      <trkpt lat="45.70257" lon="-1.14441">
        <ele>4.6</ele>
        <time>2021-09-25T12:02:46.000Z</time>
      </trkpt>
      <trkpt lat="45.70267" lon="-1.1444">
        <ele>4.9</ele>
        <time>2021-09-25T12:02:41.000Z</time>
      </trkpt>
      <trkpt lat="45.70277" lon="-1.14436">
        <ele>5.1</ele>
        <time>2021-09-25T12:02:34.000Z</time>
      </trkpt>
      <trkpt lat="45.70287" lon="-1.14435">
        <ele>4.9</ele>
        <time>2021-09-25T12:02:28.000Z</time>
      </trkpt>
      <trkpt lat="45.70297" lon="-1.14432">
        <ele>4.2</ele>
        <time>2021-09-25T12:02:22.000Z</time>
      </trkpt>
      <trkpt lat="45.70306" lon="-1.14429">
        <ele>4.1</ele>
        <time>2021-09-25T12:02:16.000Z</time>
      </trkpt>
      <trkpt lat="45.70316" lon="-1.14426">
        <ele>3.7</ele>
        <time>2021-09-25T12:02:10.000Z</time>
      </trkpt>
      <trkpt lat="45.70325" lon="-1.14421">
        <ele>3.6</ele>
        <time>2021-09-25T12:02:05.000Z</time>
      </trkpt>
      <trkpt lat="45.70334" lon="-1.14418">
        <ele>3.8</ele>
        <time>2021-09-25T12:01:59.000Z</time>
      </trkpt>
      <trkpt lat="45.70344" lon="-1.14418">
        <ele>4.1</ele>
        <time>2021-09-25T12:01:54.000Z</time>
      </trkpt>
      <trkpt lat="45.70353" lon="-1.14416">
        <ele>4.2</ele>
        <time>2021-09-25T12:01:49.000Z</time>
      </trkpt>
      <trkpt lat="45.70362" lon="-1.14414">
        <ele>4.5</ele>
        <time>2021-09-25T12:01:43.000Z</time>
      </trkpt>
      <trkpt lat="45.70372" lon="-1.14411">
        <ele>5.2</ele>
        <time>2021-09-25T12:01:37.000Z</time>
      </trkpt>
      <trkpt lat="45.70382" lon="-1.14407">
        <ele>5.2</ele>
        <time>2021-09-25T12:01:31.000Z</time>
      </trkpt>
      <trkpt lat="45.70391" lon="-1.14405">
        <ele>5.1</ele>
        <time>2021-09-25T12:01:26.000Z</time>
      </trkpt>
      <trkpt lat="45.70401" lon="-1.14401">
        <ele>4.6</ele>
        <time>2021-09-25T12:01:20.000Z</time>
      </trkpt>
      <trkpt lat="45.7041" lon="-1.14399">
        <ele>4.5</ele>
        <time>2021-09-25T12:01:14.000Z</time>
      </trkpt>
      <trkpt lat="45.7042" lon="-1.14397">
        <ele>4.5</ele>
        <time>2021-09-25T12:01:08.000Z</time>
      </trkpt>
      <trkpt lat="45.7043" lon="-1.14396">
        <ele>4.2</ele>
        <time>2021-09-25T12:01:02.000Z</time>
      </trkpt>
      <trkpt lat="45.7044" lon="-1.14393">
        <ele>4.2</ele>
        <time>2021-09-25T12:00:57.000Z</time>
      </trkpt>
      <trkpt lat="45.70449" lon="-1.14387">
        <ele>4.2</ele>
        <time>2021-09-25T12:00:51.000Z</time>
      </trkpt>
      <trkpt lat="45.70459" lon="-1.14386">
        <ele>4.2</ele>
        <time>2021-09-25T12:00:45.000Z</time>
      </trkpt>
      <trkpt lat="45.70468" lon="-1.14384">
        <ele>4.3</ele>
        <time>2021-09-25T12:00:40.000Z</time>
      </trkpt>
      <trkpt lat="45.70477" lon="-1.14383">
        <ele>4.3</ele>
        <time>2021-09-25T12:00:34.000Z</time>
      </trkpt>
      <trkpt lat="45.70487" lon="-1.1438">
        <ele>4.1</ele>
        <time>2021-09-25T12:00:28.000Z</time>
      </trkpt>
      <trkpt lat="45.70496" lon="-1.14377">
        <ele>4.1</ele>
        <time>2021-09-25T12:00:22.000Z</time>
      </trkpt>
      <trkpt lat="45.70506" lon="-1.14373">
        <ele>4.6</ele>
        <time>2021-09-25T12:00:16.000Z</time>
      </trkpt>
      <trkpt lat="45.70515" lon="-1.1437">
        <ele>4.8</ele>
        <time>2021-09-25T12:00:11.000Z</time>
      </trkpt>
      <trkpt lat="45.70524" lon="-1.14369">
        <ele>5.2</ele>
        <time>2021-09-25T12:00:06.000Z</time>
      </trkpt>
      <trkpt lat="45.70534" lon="-1.14367">
        <ele>5.2</ele>
        <time>2021-09-25T12:00:01.000Z</time>
      </trkpt>
      <trkpt lat="45.70543" lon="-1.14365">
        <ele>5.2</ele>
        <time>2021-09-25T11:59:56.000Z</time>
      </trkpt>
      <trkpt lat="45.70552" lon="-1.14362">
        <ele>5.3</ele>
        <time>2021-09-25T11:59:50.000Z</time>
      </trkpt>
      <trkpt lat="45.7056" lon="-1.14353">
        <ele>5.6</ele>
        <time>2021-09-25T11:59:43.000Z</time>
      </trkpt>
      <trkpt lat="45.70562" lon="-1.14338">
        <ele>5.6</ele>
        <time>2021-09-25T11:59:37.000Z</time>
      </trkpt>
      <trkpt lat="45.70561" lon="-1.14324">
        <ele>5.6</ele>
        <time>2021-09-25T11:59:31.000Z</time>
      </trkpt>
      <trkpt lat="45.7056" lon="-1.1431">
        <ele>5.6</ele>
        <time>2021-09-25T11:59:25.000Z</time>
      </trkpt>
      <trkpt lat="45.70559" lon="-1.14297">
        <ele>5.5</ele>
        <time>2021-09-25T11:59:19.000Z</time>
      </trkpt>
      <trkpt lat="45.70556" lon="-1.14283">
        <ele>5.3</ele>
        <time>2021-09-25T11:59:13.000Z</time>
      </trkpt>
      <trkpt lat="45.70555" lon="-1.14269">
        <ele>5.1</ele>
        <time>2021-09-25T11:59:06.000Z</time>
      </trkpt>
      <trkpt lat="45.7056" lon="-1.14257">
        <ele>4.5</ele>
        <time>2021-09-25T11:58:55.000Z</time>
      </trkpt>
      <trkpt lat="45.70569" lon="-1.14254">
        <ele>4.1</ele>
        <time>2021-09-25T11:58:46.000Z</time>
      </trkpt>
      <trkpt lat="45.70579" lon="-1.14258">
        <ele>3.4</ele>
        <time>2021-09-25T11:58:39.000Z</time>
      </trkpt>
      <trkpt lat="45.70587" lon="-1.14264">
        <ele>3</ele>
        <time>2021-09-25T11:58:33.000Z</time>
      </trkpt>
      <trkpt lat="45.70596" lon="-1.14271">
        <ele>2.7</ele>
        <time>2021-09-25T11:58:26.000Z</time>
      </trkpt>
      <trkpt lat="45.70605" lon="-1.14277">
        <ele>1.7</ele>
        <time>2021-09-25T11:58:20.000Z</time>
      </trkpt>
      <trkpt lat="45.70614" lon="-1.14282">
        <ele>1.1</ele>
        <time>2021-09-25T11:58:14.000Z</time>
      </trkpt>
      <trkpt lat="45.70625" lon="-1.14283">
        <ele>1.1</ele>
        <time>2021-09-25T11:58:07.000Z</time>
      </trkpt>
      <trkpt lat="45.70635" lon="-1.14284">
        <ele>1.1</ele>
        <time>2021-09-25T11:58:01.000Z</time>
      </trkpt>
      <trkpt lat="45.70637" lon="-1.14297">
        <ele>1.3</ele>
        <time>2021-09-25T11:57:55.000Z</time>
      </trkpt>
      <trkpt lat="45.70637" lon="-1.14311">
        <ele>1.7</ele>
        <time>2021-09-25T11:57:49.000Z</time>
      </trkpt>
      <trkpt lat="45.70637" lon="-1.14325">
        <ele>2.1</ele>
        <time>2021-09-25T11:57:43.000Z</time>
      </trkpt>
      <trkpt lat="45.70637" lon="-1.14339">
        <ele>2.5</ele>
        <time>2021-09-25T11:57:36.000Z</time>
      </trkpt>
      <trkpt lat="45.70637" lon="-1.14354">
        <ele>2.8</ele>
        <time>2021-09-25T11:57:29.000Z</time>
      </trkpt>
      <trkpt lat="45.70637" lon="-1.14368">
        <ele>3.3</ele>
        <time>2021-09-25T11:57:22.000Z</time>
      </trkpt>
      <trkpt lat="45.70639" lon="-1.14381">
        <ele>3.6</ele>
        <time>2021-09-25T11:57:15.000Z</time>
      </trkpt>
      <trkpt lat="45.70639" lon="-1.14395">
        <ele>3.9</ele>
        <time>2021-09-25T11:57:08.000Z</time>
      </trkpt>
      <trkpt lat="45.70639" lon="-1.14408">
        <ele>4.4</ele>
        <time>2021-09-25T11:57:02.000Z</time>
      </trkpt>
      <trkpt lat="45.70637" lon="-1.14421">
        <ele>4.9</ele>
        <time>2021-09-25T11:56:55.000Z</time>
      </trkpt>
      <trkpt lat="45.70633" lon="-1.14434">
        <ele>5</ele>
        <time>2021-09-25T11:56:48.000Z</time>
      </trkpt>
      <trkpt lat="45.70635" lon="-1.14449">
        <ele>5</ele>
        <time>2021-09-25T11:56:40.000Z</time>
      </trkpt>
      <trkpt lat="45.70635" lon="-1.14463">
        <ele>4.9</ele>
        <time>2021-09-25T11:56:34.000Z</time>
      </trkpt>
      <trkpt lat="45.70634" lon="-1.14478">
        <ele>5.1</ele>
        <time>2021-09-25T11:56:27.000Z</time>
      </trkpt>
      <trkpt lat="45.70634" lon="-1.14491">
        <ele>5.1</ele>
        <time>2021-09-25T11:56:21.000Z</time>
      </trkpt>
      <trkpt lat="45.70637" lon="-1.14505">
        <ele>5.4</ele>
        <time>2021-09-25T11:56:15.000Z</time>
      </trkpt>
      <trkpt lat="45.70641" lon="-1.14516">
        <ele>5.4</ele>
        <time>2021-09-25T11:56:10.000Z</time>
      </trkpt>
      <trkpt lat="45.70644" lon="-1.1453">
        <ele>5.3</ele>
        <time>2021-09-25T11:56:03.000Z</time>
      </trkpt>
      <trkpt lat="45.70646" lon="-1.14544">
        <ele>5.3</ele>
        <time>2021-09-25T11:55:57.000Z</time>
      </trkpt>
      <trkpt lat="45.70649" lon="-1.14557">
        <ele>5.2</ele>
        <time>2021-09-25T11:55:50.000Z</time>
      </trkpt>
      <trkpt lat="45.70652" lon="-1.1457">
        <ele>5</ele>
        <time>2021-09-25T11:55:44.000Z</time>
      </trkpt>
      <trkpt lat="45.70653" lon="-1.14583">
        <ele>4.8</ele>
        <time>2021-09-25T11:55:38.000Z</time>
      </trkpt>
      <trkpt lat="45.70656" lon="-1.14597">
        <ele>4.3</ele>
        <time>2021-09-25T11:55:31.000Z</time>
      </trkpt>
      <trkpt lat="45.7066" lon="-1.14609">
        <ele>4.2</ele>
        <time>2021-09-25T11:55:24.000Z</time>
      </trkpt>
      <trkpt lat="45.70662" lon="-1.14624">
        <ele>4</ele>
        <time>2021-09-25T11:55:17.000Z</time>
      </trkpt>
      <trkpt lat="45.70667" lon="-1.14635">
        <ele>4</ele>
        <time>2021-09-25T11:55:12.000Z</time>
      </trkpt>
      <trkpt lat="45.70668" lon="-1.14649">
        <ele>4.1</ele>
        <time>2021-09-25T11:55:05.000Z</time>
      </trkpt>
      <trkpt lat="45.70672" lon="-1.14662">
        <ele>4.4</ele>
        <time>2021-09-25T11:54:59.000Z</time>
      </trkpt>
      <trkpt lat="45.70675" lon="-1.14674">
        <ele>4.5</ele>
        <time>2021-09-25T11:54:54.000Z</time>
      </trkpt>
      <trkpt lat="45.70679" lon="-1.14687">
        <ele>4.5</ele>
        <time>2021-09-25T11:54:48.000Z</time>
      </trkpt>
      <trkpt lat="45.70684" lon="-1.14701">
        <ele>4.5</ele>
        <time>2021-09-25T11:54:42.000Z</time>
      </trkpt>
      <trkpt lat="45.70688" lon="-1.14714">
        <ele>4.5</ele>
        <time>2021-09-25T11:54:36.000Z</time>
      </trkpt>
      <trkpt lat="45.70689" lon="-1.14728">
        <ele>4.5</ele>
        <time>2021-09-25T11:54:28.000Z</time>
      </trkpt>
      <trkpt lat="45.70691" lon="-1.14742">
        <ele>4.4</ele>
        <time>2021-09-25T11:54:21.000Z</time>
      </trkpt>
      <trkpt lat="45.70693" lon="-1.14756">
        <ele>4.3</ele>
        <time>2021-09-25T11:54:15.000Z</time>
      </trkpt>
      <trkpt lat="45.70691" lon="-1.14769">
        <ele>4.3</ele>
        <time>2021-09-25T11:54:09.000Z</time>
      </trkpt>
      <trkpt lat="45.70688" lon="-1.14783">
        <ele>4.2</ele>
        <time>2021-09-25T11:54:02.000Z</time>
      </trkpt>
      <trkpt lat="45.70679" lon="-1.14788">
        <ele>3.8</ele>
        <time>2021-09-25T11:53:53.000Z</time>
      </trkpt>
      <trkpt lat="45.70677" lon="-1.14801">
        <ele>3.6</ele>
        <time>2021-09-25T11:53:44.000Z</time>
      </trkpt>
      <trkpt lat="45.70673" lon="-1.14814">
        <ele>3.5</ele>
        <time>2021-09-25T11:53:39.000Z</time>
      </trkpt>
      <trkpt lat="45.70669" lon="-1.14827">
        <ele>3.3</ele>
        <time>2021-09-25T11:53:32.000Z</time>
      </trkpt>
      <trkpt lat="45.70668" lon="-1.1484">
        <ele>3.2</ele>
        <time>2021-09-25T11:53:27.000Z</time>
      </trkpt>
      <trkpt lat="45.70668" lon="-1.14854">
        <ele>3</ele>
        <time>2021-09-25T11:53:23.000Z</time>
      </trkpt>
      <trkpt lat="45.70667" lon="-1.14867">
        <ele>3</ele>
        <time>2021-09-25T11:53:20.000Z</time>
      </trkpt>
      <trkpt lat="45.70665" lon="-1.14885">
        <ele>3</ele>
        <time>2021-09-25T11:53:17.000Z</time>
      </trkpt>
      <trkpt lat="45.70663" lon="-1.149">
        <ele>3</ele>
        <time>2021-09-25T11:53:14.000Z</time>
      </trkpt>
      <trkpt lat="45.70663" lon="-1.14916">
        <ele>3</ele>
        <time>2021-09-25T11:53:11.000Z</time>
      </trkpt>
      <trkpt lat="45.70664" lon="-1.14933">
        <ele>3</ele>
        <time>2021-09-25T11:53:08.000Z</time>
      </trkpt>
      <trkpt lat="45.70663" lon="-1.1495">
        <ele>3</ele>
        <time>2021-09-25T11:53:05.000Z</time>
      </trkpt>
      <trkpt lat="45.70662" lon="-1.14963">
        <ele>2.8</ele>
        <time>2021-09-25T11:53:02.000Z</time>
      </trkpt>
      <trkpt lat="45.70664" lon="-1.14976">
        <ele>2.8</ele>
        <time>2021-09-25T11:52:59.000Z</time>
      </trkpt>
      <trkpt lat="45.70666" lon="-1.1499">
        <ele>2.9</ele>
        <time>2021-09-25T11:52:55.000Z</time>
      </trkpt>
      <trkpt lat="45.70669" lon="-1.15003">
        <ele>2.9</ele>
        <time>2021-09-25T11:52:52.000Z</time>
      </trkpt>
      <trkpt lat="45.7067" lon="-1.15019">
        <ele>3.1</ele>
        <time>2021-09-25T11:52:49.000Z</time>
      </trkpt>
      <trkpt lat="45.70668" lon="-1.15036">
        <ele>3.5</ele>
        <time>2021-09-25T11:52:46.000Z</time>
      </trkpt>
      <trkpt lat="45.70669" lon="-1.15051">
        <ele>3.6</ele>
        <time>2021-09-25T11:52:43.000Z</time>
      </trkpt>
      <trkpt lat="45.70671" lon="-1.15063">
        <ele>3.5</ele>
        <time>2021-09-25T11:52:41.000Z</time>
      </trkpt>
      <trkpt lat="45.7067" lon="-1.1508">
        <ele>3.4</ele>
        <time>2021-09-25T11:52:38.000Z</time>
      </trkpt>
      <trkpt lat="45.70669" lon="-1.15097">
        <ele>2.9</ele>
        <time>2021-09-25T11:52:35.000Z</time>
      </trkpt>
      <trkpt lat="45.70671" lon="-1.15111">
        <ele>3.1</ele>
        <time>2021-09-25T11:52:32.000Z</time>
      </trkpt>
      <trkpt lat="45.70674" lon="-1.15126">
        <ele>3.4</ele>
        <time>2021-09-25T11:52:29.000Z</time>
      </trkpt>
      <trkpt lat="45.70676" lon="-1.15141">
        <ele>3.5</ele>
        <time>2021-09-25T11:52:26.000Z</time>
      </trkpt>
      <trkpt lat="45.70678" lon="-1.15156">
        <ele>3.2</ele>
        <time>2021-09-25T11:52:23.000Z</time>
      </trkpt>
      <trkpt lat="45.70681" lon="-1.15172">
        <ele>3.2</ele>
        <time>2021-09-25T11:52:20.000Z</time>
      </trkpt>
      <trkpt lat="45.70683" lon="-1.15188">
        <ele>3.2</ele>
        <time>2021-09-25T11:52:17.000Z</time>
      </trkpt>
      <trkpt lat="45.70685" lon="-1.15205">
        <ele>3</ele>
        <time>2021-09-25T11:52:13.000Z</time>
      </trkpt>
      <trkpt lat="45.70686" lon="-1.1522">
        <ele>3</ele>
        <time>2021-09-25T11:52:08.000Z</time>
      </trkpt>
      <trkpt lat="45.70684" lon="-1.15234">
        <ele>3</ele>
        <time>2021-09-25T11:52:03.000Z</time>
      </trkpt>
      <trkpt lat="45.70687" lon="-1.15248">
        <ele>3</ele>
        <time>2021-09-25T11:51:56.000Z</time>
      </trkpt>
      <trkpt lat="45.70686" lon="-1.15262">
        <ele>3</ele>
        <time>2021-09-25T11:51:50.000Z</time>
      </trkpt>
      <trkpt lat="45.70686" lon="-1.15276">
        <ele>3</ele>
        <time>2021-09-25T11:51:45.000Z</time>
      </trkpt>
      <trkpt lat="45.70687" lon="-1.15289">
        <ele>3</ele>
        <time>2021-09-25T11:51:38.000Z</time>
      </trkpt>
      <trkpt lat="45.70691" lon="-1.15303">
        <ele>3</ele>
        <time>2021-09-25T11:51:33.000Z</time>
      </trkpt>
      <trkpt lat="45.70692" lon="-1.15316">
        <ele>3</ele>
        <time>2021-09-25T11:51:27.000Z</time>
      </trkpt>
      <trkpt lat="45.70694" lon="-1.15329">
        <ele>3</ele>
        <time>2021-09-25T11:51:21.000Z</time>
      </trkpt>
      <trkpt lat="45.70694" lon="-1.15342">
        <ele>3</ele>
        <time>2021-09-25T11:51:15.000Z</time>
      </trkpt>
      <trkpt lat="45.70696" lon="-1.15356">
        <ele>3</ele>
        <time>2021-09-25T11:51:08.000Z</time>
      </trkpt>
      <trkpt lat="45.70698" lon="-1.15369">
        <ele>3</ele>
        <time>2021-09-25T11:51:02.000Z</time>
      </trkpt>
      <trkpt lat="45.70699" lon="-1.15383">
        <ele>3</ele>
        <time>2021-09-25T11:50:56.000Z</time>
      </trkpt>
      <trkpt lat="45.70699" lon="-1.15396">
        <ele>3.1</ele>
        <time>2021-09-25T11:50:48.000Z</time>
      </trkpt>
      <trkpt lat="45.70702" lon="-1.15409">
        <ele>3.3</ele>
        <time>2021-09-25T11:50:42.000Z</time>
      </trkpt>
      <trkpt lat="45.70705" lon="-1.15423">
        <ele>3.4</ele>
        <time>2021-09-25T11:50:35.000Z</time>
      </trkpt>
      <trkpt lat="45.7071" lon="-1.15435">
        <ele>3.6</ele>
        <time>2021-09-25T11:50:31.000Z</time>
      </trkpt>
      <trkpt lat="45.70711" lon="-1.15449">
        <ele>3.8</ele>
        <time>2021-09-25T11:50:24.000Z</time>
      </trkpt>
      <trkpt lat="45.70711" lon="-1.15463">
        <ele>3.8</ele>
        <time>2021-09-25T11:50:16.000Z</time>
      </trkpt>
      <trkpt lat="45.70709" lon="-1.15477">
        <ele>3.8</ele>
        <time>2021-09-25T11:50:10.000Z</time>
      </trkpt>
      <trkpt lat="45.70704" lon="-1.15488">
        <ele>3.8</ele>
        <time>2021-09-25T11:50:02.000Z</time>
      </trkpt>
      <trkpt lat="45.7071" lon="-1.15498">
        <ele>3.6</ele>
        <time>2021-09-25T11:49:35.000Z</time>
      </trkpt>
      <trkpt lat="45.70709" lon="-1.15512">
        <ele>3.6</ele>
        <time>2021-09-25T11:49:28.000Z</time>
      </trkpt>
      <trkpt lat="45.7071" lon="-1.15527">
        <ele>3.6</ele>
        <time>2021-09-25T11:49:22.000Z</time>
      </trkpt>
      <trkpt lat="45.70709" lon="-1.15542">
        <ele>3.6</ele>
        <time>2021-09-25T11:49:13.000Z</time>
      </trkpt>
      <trkpt lat="45.70711" lon="-1.15556">
        <ele>3.6</ele>
        <time>2021-09-25T11:49:06.000Z</time>
      </trkpt>
      <trkpt lat="45.70714" lon="-1.15568">
        <ele>3.6</ele>
        <time>2021-09-25T11:49:00.000Z</time>
      </trkpt>
      <trkpt lat="45.70714" lon="-1.15582">
        <ele>3.6</ele>
        <time>2021-09-25T11:48:54.000Z</time>
      </trkpt>
      <trkpt lat="45.70714" lon="-1.15596">
        <ele>3.6</ele>
        <time>2021-09-25T11:48:49.000Z</time>
      </trkpt>
      <trkpt lat="45.70713" lon="-1.15609">
        <ele>3.6</ele>
        <time>2021-09-25T11:48:42.000Z</time>
      </trkpt>
      <trkpt lat="45.70711" lon="-1.15622">
        <ele>3.6</ele>
        <time>2021-09-25T11:48:36.000Z</time>
      </trkpt>
      <trkpt lat="45.70708" lon="-1.15636">
        <ele>3.6</ele>
        <time>2021-09-25T11:48:29.000Z</time>
      </trkpt>
      <trkpt lat="45.70702" lon="-1.15649">
        <ele>3.9</ele>
        <time>2021-09-25T11:48:23.000Z</time>
      </trkpt>
      <trkpt lat="45.70699" lon="-1.15662">
        <ele>3.9</ele>
        <time>2021-09-25T11:48:17.000Z</time>
      </trkpt>
      <trkpt lat="45.70694" lon="-1.15675">
        <ele>3.9</ele>
        <time>2021-09-25T11:48:09.000Z</time>
      </trkpt>
      <trkpt lat="45.70688" lon="-1.15686">
        <ele>4</ele>
        <time>2021-09-25T11:48:03.000Z</time>
      </trkpt>
      <trkpt lat="45.70682" lon="-1.15697">
        <ele>4.4</ele>
        <time>2021-09-25T11:47:57.000Z</time>
      </trkpt>
      <trkpt lat="45.70678" lon="-1.15709">
        <ele>4.9</ele>
        <time>2021-09-25T11:47:51.000Z</time>
      </trkpt>
      <trkpt lat="45.70672" lon="-1.15718">
        <ele>5.2</ele>
        <time>2021-09-25T11:47:44.000Z</time>
      </trkpt>
      <trkpt lat="45.70666" lon="-1.1573">
        <ele>5.3</ele>
        <time>2021-09-25T11:47:36.000Z</time>
      </trkpt>
      <trkpt lat="45.70658" lon="-1.15738">
        <ele>6.1</ele>
        <time>2021-09-25T11:46:43.000Z</time>
      </trkpt>
      <trkpt lat="45.70656" lon="-1.15752">
        <ele>6.5</ele>
        <time>2021-09-25T11:46:39.000Z</time>
      </trkpt>
      <trkpt lat="45.70649" lon="-1.15763">
        <ele>6.7</ele>
        <time>2021-09-25T11:46:36.000Z</time>
      </trkpt>
      <trkpt lat="45.70645" lon="-1.15777">
        <ele>6.6</ele>
        <time>2021-09-25T11:46:33.000Z</time>
      </trkpt>
      <trkpt lat="45.70641" lon="-1.15792">
        <ele>6.4</ele>
        <time>2021-09-25T11:46:30.000Z</time>
      </trkpt>
      <trkpt lat="45.70635" lon="-1.15802">
        <ele>6.2</ele>
        <time>2021-09-25T11:46:27.000Z</time>
      </trkpt>
      <trkpt lat="45.70627" lon="-1.15816">
        <ele>6.1</ele>
        <time>2021-09-25T11:46:23.000Z</time>
      </trkpt>
      <trkpt lat="45.7062" lon="-1.1583">
        <ele>6</ele>
        <time>2021-09-25T11:46:19.000Z</time>
      </trkpt>
      <trkpt lat="45.70614" lon="-1.15841">
        <ele>6</ele>
        <time>2021-09-25T11:46:16.000Z</time>
      </trkpt>
      <trkpt lat="45.70604" lon="-1.15851">
        <ele>6.3</ele>
        <time>2021-09-25T11:46:13.000Z</time>
      </trkpt>
      <trkpt lat="45.70596" lon="-1.15864">
        <ele>6.4</ele>
        <time>2021-09-25T11:46:09.000Z</time>
      </trkpt>
      <trkpt lat="45.70589" lon="-1.15876">
        <ele>6.2</ele>
        <time>2021-09-25T11:46:06.000Z</time>
      </trkpt>
      <trkpt lat="45.70582" lon="-1.15887">
        <ele>6</ele>
        <time>2021-09-25T11:46:03.000Z</time>
      </trkpt>
      <trkpt lat="45.70576" lon="-1.15899">
        <ele>5.5</ele>
        <time>2021-09-25T11:46:00.000Z</time>
      </trkpt>
      <trkpt lat="45.7057" lon="-1.15915">
        <ele>5.2</ele>
        <time>2021-09-25T11:45:56.000Z</time>
      </trkpt>
      <trkpt lat="45.70563" lon="-1.15925">
        <ele>5.2</ele>
        <time>2021-09-25T11:45:53.000Z</time>
      </trkpt>
      <trkpt lat="45.70557" lon="-1.15937">
        <ele>5.2</ele>
        <time>2021-09-25T11:45:50.000Z</time>
      </trkpt>
      <trkpt lat="45.70549" lon="-1.15946">
        <ele>5.2</ele>
        <time>2021-09-25T11:45:47.000Z</time>
      </trkpt>
      <trkpt lat="45.70542" lon="-1.15958">
        <ele>5.5</ele>
        <time>2021-09-25T11:45:43.000Z</time>
      </trkpt>
      <trkpt lat="45.70534" lon="-1.15971">
        <ele>6.1</ele>
        <time>2021-09-25T11:45:39.000Z</time>
      </trkpt>
      <trkpt lat="45.70526" lon="-1.15981">
        <ele>6.9</ele>
        <time>2021-09-25T11:45:36.000Z</time>
      </trkpt>
      <trkpt lat="45.70522" lon="-1.15995">
        <ele>7.3</ele>
        <time>2021-09-25T11:45:32.000Z</time>
      </trkpt>
      <trkpt lat="45.70517" lon="-1.16007">
        <ele>7.6</ele>
        <time>2021-09-25T11:45:29.000Z</time>
      </trkpt>
      <trkpt lat="45.70509" lon="-1.16017">
        <ele>7.6</ele>
        <time>2021-09-25T11:45:25.000Z</time>
      </trkpt>
      <trkpt lat="45.70501" lon="-1.16026">
        <ele>7.7</ele>
        <time>2021-09-25T11:45:22.000Z</time>
      </trkpt>
      <trkpt lat="45.70492" lon="-1.1604">
        <ele>7.9</ele>
        <time>2021-09-25T11:45:18.000Z</time>
      </trkpt>
      <trkpt lat="45.70485" lon="-1.16051">
        <ele>7.9</ele>
        <time>2021-09-25T11:45:14.000Z</time>
      </trkpt>
      <trkpt lat="45.70478" lon="-1.16059">
        <ele>7.9</ele>
        <time>2021-09-25T11:45:11.000Z</time>
      </trkpt>
      <trkpt lat="45.70472" lon="-1.1607">
        <ele>7.6</ele>
        <time>2021-09-25T11:45:05.000Z</time>
      </trkpt>
      <trkpt lat="45.70466" lon="-1.1608">
        <ele>6.7</ele>
        <time>2021-09-25T11:44:58.000Z</time>
      </trkpt>
      <trkpt lat="45.70458" lon="-1.16088">
        <ele>6.6</ele>
        <time>2021-09-25T11:44:50.000Z</time>
      </trkpt>
      <trkpt lat="45.70453" lon="-1.16099">
        <ele>6.3</ele>
        <time>2021-09-25T11:44:44.000Z</time>
      </trkpt>
      <trkpt lat="45.70448" lon="-1.1611">
        <ele>6.1</ele>
        <time>2021-09-25T11:44:37.000Z</time>
      </trkpt>
      <trkpt lat="45.70443" lon="-1.16122">
        <ele>5.9</ele>
        <time>2021-09-25T11:44:31.000Z</time>
      </trkpt>
      <trkpt lat="45.70438" lon="-1.16133">
        <ele>5.8</ele>
        <time>2021-09-25T11:44:24.000Z</time>
      </trkpt>
      <trkpt lat="45.70436" lon="-1.16148">
        <ele>5.9</ele>
        <time>2021-09-25T11:44:17.000Z</time>
      </trkpt>
      <trkpt lat="45.70433" lon="-1.16161">
        <ele>5.8</ele>
        <time>2021-09-25T11:44:11.000Z</time>
      </trkpt>
      <trkpt lat="45.70431" lon="-1.16176">
        <ele>5.3</ele>
        <time>2021-09-25T11:44:04.000Z</time>
      </trkpt>
      <trkpt lat="45.70425" lon="-1.16188">
        <ele>4.5</ele>
        <time>2021-09-25T11:43:56.000Z</time>
      </trkpt>
      <trkpt lat="45.70416" lon="-1.16193">
        <ele>4.4</ele>
        <time>2021-09-25T11:43:49.000Z</time>
      </trkpt>
      <trkpt lat="45.70407" lon="-1.16197">
        <ele>4.2</ele>
        <time>2021-09-25T11:43:43.000Z</time>
      </trkpt>
      <trkpt lat="45.70398" lon="-1.16202">
        <ele>3.6</ele>
        <time>2021-09-25T11:43:37.000Z</time>
      </trkpt>
      <trkpt lat="45.70389" lon="-1.16205">
        <ele>3.5</ele>
        <time>2021-09-25T11:43:30.000Z</time>
      </trkpt>
      <trkpt lat="45.70379" lon="-1.16206">
        <ele>3.5</ele>
        <time>2021-09-25T11:43:23.000Z</time>
      </trkpt>
      <trkpt lat="45.70369" lon="-1.1621">
        <ele>3.6</ele>
        <time>2021-09-25T11:43:17.000Z</time>
      </trkpt>
      <trkpt lat="45.70359" lon="-1.16212">
        <ele>3.7</ele>
        <time>2021-09-25T11:43:10.000Z</time>
      </trkpt>
      <trkpt lat="45.70349" lon="-1.16214">
        <ele>4.5</ele>
        <time>2021-09-25T11:43:03.000Z</time>
      </trkpt>
      <trkpt lat="45.70339" lon="-1.16217">
        <ele>5</ele>
        <time>2021-09-25T11:42:56.000Z</time>
      </trkpt>
      <trkpt lat="45.70331" lon="-1.16224">
        <ele>5.1</ele>
        <time>2021-09-25T11:42:49.000Z</time>
      </trkpt>
      <trkpt lat="45.70323" lon="-1.16231">
        <ele>5.1</ele>
        <time>2021-09-25T11:42:43.000Z</time>
      </trkpt>
      <trkpt lat="45.70313" lon="-1.16229">
        <ele>5.7</ele>
        <time>2021-09-25T11:42:36.000Z</time>
      </trkpt>
      <trkpt lat="45.70304" lon="-1.16223">
        <ele>7</ele>
        <time>2021-09-25T11:42:29.000Z</time>
      </trkpt>
      <trkpt lat="45.70294" lon="-1.16224">
        <ele>8.7</ele>
        <time>2021-09-25T11:42:21.000Z</time>
      </trkpt>
      <trkpt lat="45.70286" lon="-1.16231">
        <ele>8.7</ele>
        <time>2021-09-25T11:42:12.000Z</time>
      </trkpt>
      <trkpt lat="45.70276" lon="-1.1623">
        <ele>7.4</ele>
        <time>2021-09-25T11:41:57.000Z</time>
      </trkpt>
      <trkpt lat="45.70267" lon="-1.16235">
        <ele>5.3</ele>
        <time>2021-09-25T11:41:50.000Z</time>
      </trkpt>
      <trkpt lat="45.70258" lon="-1.16236">
        <ele>5.1</ele>
        <time>2021-09-25T11:41:45.000Z</time>
      </trkpt>
      <trkpt lat="45.7025" lon="-1.16226">
        <ele>5.2</ele>
        <time>2021-09-25T11:41:37.000Z</time>
      </trkpt>
      <trkpt lat="45.70247" lon="-1.16213">
        <ele>5.1</ele>
        <time>2021-09-25T11:41:30.000Z</time>
      </trkpt>
      <trkpt lat="45.70245" lon="-1.16199">
        <ele>4.8</ele>
        <time>2021-09-25T11:41:23.000Z</time>
      </trkpt>
      <trkpt lat="45.70236" lon="-1.16192">
        <ele>4.5</ele>
        <time>2021-09-25T11:41:16.000Z</time>
      </trkpt>
      <trkpt lat="45.70227" lon="-1.16188">
        <ele>4.2</ele>
        <time>2021-09-25T11:41:09.000Z</time>
      </trkpt>
      <trkpt lat="45.70218" lon="-1.16191">
        <ele>3.4</ele>
        <time>2021-09-25T11:41:02.000Z</time>
      </trkpt>
      <trkpt lat="45.70209" lon="-1.16194">
        <ele>3</ele>
        <time>2021-09-25T11:40:59.000Z</time>
      </trkpt>
      <trkpt lat="45.70198" lon="-1.16197">
        <ele>3.1</ele>
        <time>2021-09-25T11:40:56.000Z</time>
      </trkpt>
      <trkpt lat="45.70189" lon="-1.16199">
        <ele>3.2</ele>
        <time>2021-09-25T11:40:53.000Z</time>
      </trkpt>
      <trkpt lat="45.70178" lon="-1.16204">
        <ele>3.4</ele>
        <time>2021-09-25T11:40:49.000Z</time>
      </trkpt>
      <trkpt lat="45.70169" lon="-1.16198">
        <ele>3.5</ele>
        <time>2021-09-25T11:40:42.000Z</time>
      </trkpt>
      <trkpt lat="45.70161" lon="-1.16189">
        <ele>4</ele>
        <time>2021-09-25T11:40:35.000Z</time>
      </trkpt>
      <trkpt lat="45.70153" lon="-1.16178">
        <ele>4.7</ele>
        <time>2021-09-25T11:40:27.000Z</time>
      </trkpt>
      <trkpt lat="45.70143" lon="-1.16173">
        <ele>5.6</ele>
        <time>2021-09-25T11:40:20.000Z</time>
      </trkpt>
      <trkpt lat="45.70133" lon="-1.1617">
        <ele>7</ele>
        <time>2021-09-25T11:40:14.000Z</time>
      </trkpt>
      <trkpt lat="45.70123" lon="-1.16169">
        <ele>8.7</ele>
        <time>2021-09-25T11:40:07.000Z</time>
      </trkpt>
      <trkpt lat="45.70114" lon="-1.16169">
        <ele>9.3</ele>
        <time>2021-09-25T11:40:00.000Z</time>
      </trkpt>
      <trkpt lat="45.70105" lon="-1.16166">
        <ele>9.1</ele>
        <time>2021-09-25T11:39:54.000Z</time>
      </trkpt>
      <trkpt lat="45.70095" lon="-1.16165">
        <ele>8.6</ele>
        <time>2021-09-25T11:39:47.000Z</time>
      </trkpt>
      <trkpt lat="45.70085" lon="-1.16164">
        <ele>7.8</ele>
        <time>2021-09-25T11:39:40.000Z</time>
      </trkpt>
      <trkpt lat="45.70075" lon="-1.16163">
        <ele>7</ele>
        <time>2021-09-25T11:39:35.000Z</time>
      </trkpt>
      <trkpt lat="45.70065" lon="-1.16162">
        <ele>6.6</ele>
        <time>2021-09-25T11:39:31.000Z</time>
      </trkpt>
      <trkpt lat="45.70053" lon="-1.16163">
        <ele>5.3</ele>
        <time>2021-09-25T11:39:27.000Z</time>
      </trkpt>
      <trkpt lat="45.70043" lon="-1.16163">
        <ele>4.4</ele>
        <time>2021-09-25T11:39:24.000Z</time>
      </trkpt>
      <trkpt lat="45.70033" lon="-1.16164">
        <ele>3.9</ele>
        <time>2021-09-25T11:39:21.000Z</time>
      </trkpt>
      <trkpt lat="45.70024" lon="-1.16161">
        <ele>3.5</ele>
        <time>2021-09-25T11:39:18.000Z</time>
      </trkpt>
      <trkpt lat="45.70015" lon="-1.16156">
        <ele>3.4</ele>
        <time>2021-09-25T11:39:15.000Z</time>
      </trkpt>
      <trkpt lat="45.70006" lon="-1.1615">
        <ele>3.4</ele>
        <time>2021-09-25T11:39:12.000Z</time>
      </trkpt>
      <trkpt lat="45.69997" lon="-1.16144">
        <ele>3.4</ele>
        <time>2021-09-25T11:39:09.000Z</time>
      </trkpt>
      <trkpt lat="45.69989" lon="-1.16136">
        <ele>3.2</ele>
        <time>2021-09-25T11:39:06.000Z</time>
      </trkpt>
      <trkpt lat="45.69985" lon="-1.16122">
        <ele>2.7</ele>
        <time>2021-09-25T11:39:02.000Z</time>
      </trkpt>
      <trkpt lat="45.69982" lon="-1.16108">
        <ele>2.6</ele>
        <time>2021-09-25T11:38:56.000Z</time>
      </trkpt>
      <trkpt lat="45.69982" lon="-1.16095">
        <ele>2.8</ele>
        <time>2021-09-25T11:38:49.000Z</time>
      </trkpt>
      <trkpt lat="45.69981" lon="-1.16079">
        <ele>2.9</ele>
        <time>2021-09-25T11:38:43.000Z</time>
      </trkpt>
      <trkpt lat="45.69979" lon="-1.16065">
        <ele>3.2</ele>
        <time>2021-09-25T11:38:36.000Z</time>
      </trkpt>
      <trkpt lat="45.69977" lon="-1.16052">
        <ele>3.1</ele>
        <time>2021-09-25T11:38:30.000Z</time>
      </trkpt>
      <trkpt lat="45.69974" lon="-1.16038">
        <ele>2.9</ele>
        <time>2021-09-25T11:38:24.000Z</time>
      </trkpt>
      <trkpt lat="45.69973" lon="-1.16025">
        <ele>2.8</ele>
        <time>2021-09-25T11:38:17.000Z</time>
      </trkpt>
      <trkpt lat="45.6997" lon="-1.16012">
        <ele>3</ele>
        <time>2021-09-25T11:38:11.000Z</time>
      </trkpt>
      <trkpt lat="45.69965" lon="-1.16">
        <ele>3.5</ele>
        <time>2021-09-25T11:38:05.000Z</time>
      </trkpt>
      <trkpt lat="45.6996" lon="-1.15986">
        <ele>3.6</ele>
        <time>2021-09-25T11:37:58.000Z</time>
      </trkpt>
      <trkpt lat="45.69954" lon="-1.15976">
        <ele>3.7</ele>
        <time>2021-09-25T11:37:52.000Z</time>
      </trkpt>
      <trkpt lat="45.69951" lon="-1.15964">
        <ele>4.1</ele>
        <time>2021-09-25T11:37:43.000Z</time>
      </trkpt>
      <trkpt lat="45.69946" lon="-1.15951">
        <ele>4.1</ele>
        <time>2021-09-25T11:37:35.000Z</time>
      </trkpt>
      <trkpt lat="45.69942" lon="-1.15939">
        <ele>4.2</ele>
        <time>2021-09-25T11:37:28.000Z</time>
      </trkpt>
      <trkpt lat="45.69936" lon="-1.15927">
        <ele>4.4</ele>
        <time>2021-09-25T11:37:22.000Z</time>
      </trkpt>
      <trkpt lat="45.69933" lon="-1.15914">
        <ele>5.5</ele>
        <time>2021-09-25T11:37:15.000Z</time>
      </trkpt>
      <trkpt lat="45.69926" lon="-1.15901">
        <ele>6</ele>
        <time>2021-09-25T11:37:08.000Z</time>
      </trkpt>
      <trkpt lat="45.69921" lon="-1.15888">
        <ele>6.6</ele>
        <time>2021-09-25T11:37:00.000Z</time>
      </trkpt>
      <trkpt lat="45.69919" lon="-1.15875">
        <ele>7.3</ele>
        <time>2021-09-25T11:36:53.000Z</time>
      </trkpt>
      <trkpt lat="45.69913" lon="-1.15864">
        <ele>8.1</ele>
        <time>2021-09-25T11:36:46.000Z</time>
      </trkpt>
      <trkpt lat="45.69909" lon="-1.15852">
        <ele>8.4</ele>
        <time>2021-09-25T11:36:39.000Z</time>
      </trkpt>
      <trkpt lat="45.69903" lon="-1.15841">
        <ele>9.1</ele>
        <time>2021-09-25T11:36:32.000Z</time>
      </trkpt>
      <trkpt lat="45.69897" lon="-1.15831">
        <ele>10</ele>
        <time>2021-09-25T11:36:26.000Z</time>
      </trkpt>
      <trkpt lat="45.69893" lon="-1.15818">
        <ele>11</ele>
        <time>2021-09-25T11:36:19.000Z</time>
      </trkpt>
      <trkpt lat="45.69885" lon="-1.1581">
        <ele>10.7</ele>
        <time>2021-09-25T11:36:10.000Z</time>
      </trkpt>
      <trkpt lat="45.69875" lon="-1.15804">
        <ele>10.5</ele>
        <time>2021-09-25T11:36:04.000Z</time>
      </trkpt>
      <trkpt lat="45.69866" lon="-1.15798">
        <ele>10</ele>
        <time>2021-09-25T11:35:57.000Z</time>
      </trkpt>
      <trkpt lat="45.69858" lon="-1.15795">
        <ele>9.3</ele>
        <time>2021-09-25T11:35:49.000Z</time>
      </trkpt>
      <trkpt lat="45.6985" lon="-1.15787">
        <ele>9.4</ele>
        <time>2021-09-25T11:35:42.000Z</time>
      </trkpt>
      <trkpt lat="45.69841" lon="-1.1578">
        <ele>9.4</ele>
        <time>2021-09-25T11:35:35.000Z</time>
      </trkpt>
      <trkpt lat="45.69832" lon="-1.15777">
        <ele>9.4</ele>
        <time>2021-09-25T11:35:28.000Z</time>
      </trkpt>
      <trkpt lat="45.69823" lon="-1.15778">
        <ele>9.3</ele>
        <time>2021-09-25T11:35:23.000Z</time>
      </trkpt>
      <trkpt lat="45.69814" lon="-1.15773">
        <ele>8.6</ele>
        <time>2021-09-25T11:35:14.000Z</time>
      </trkpt>
      <trkpt lat="45.69804" lon="-1.15773">
        <ele>8</ele>
        <time>2021-09-25T11:35:08.000Z</time>
      </trkpt>
      <trkpt lat="45.69795" lon="-1.15771">
        <ele>8.2</ele>
        <time>2021-09-25T11:35:01.000Z</time>
      </trkpt>
      <trkpt lat="45.69786" lon="-1.15768">
        <ele>9.5</ele>
        <time>2021-09-25T11:34:54.000Z</time>
      </trkpt>
      <trkpt lat="45.69777" lon="-1.15768">
        <ele>9.7</ele>
        <time>2021-09-25T11:34:46.000Z</time>
      </trkpt>
      <trkpt lat="45.69767" lon="-1.15771">
        <ele>9.6</ele>
        <time>2021-09-25T11:34:40.000Z</time>
      </trkpt>
      <trkpt lat="45.69758" lon="-1.15775">
        <ele>9.6</ele>
        <time>2021-09-25T11:34:33.000Z</time>
      </trkpt>
      <trkpt lat="45.69748" lon="-1.15779">
        <ele>9.7</ele>
        <time>2021-09-25T11:34:26.000Z</time>
      </trkpt>
      <trkpt lat="45.6974" lon="-1.15784">
        <ele>9.7</ele>
        <time>2021-09-25T11:34:20.000Z</time>
      </trkpt>
      <trkpt lat="45.69731" lon="-1.15789">
        <ele>9.6</ele>
        <time>2021-09-25T11:34:14.000Z</time>
      </trkpt>
      <trkpt lat="45.69722" lon="-1.15792">
        <ele>9.6</ele>
        <time>2021-09-25T11:34:06.000Z</time>
      </trkpt>
      <trkpt lat="45.69713" lon="-1.15794">
        <ele>10</ele>
        <time>2021-09-25T11:33:59.000Z</time>
      </trkpt>
      <trkpt lat="45.69703" lon="-1.15797">
        <ele>9.9</ele>
        <time>2021-09-25T11:33:52.000Z</time>
      </trkpt>
      <trkpt lat="45.69694" lon="-1.158">
        <ele>9.6</ele>
        <time>2021-09-25T11:33:44.000Z</time>
      </trkpt>
      <trkpt lat="45.69684" lon="-1.15803">
        <ele>8.6</ele>
        <time>2021-09-25T11:33:36.000Z</time>
      </trkpt>
      <trkpt lat="45.69674" lon="-1.15804">
        <ele>7.1</ele>
        <time>2021-09-25T11:33:28.000Z</time>
      </trkpt>
      <trkpt lat="45.69664" lon="-1.15801">
        <ele>5.3</ele>
        <time>2021-09-25T11:33:20.000Z</time>
      </trkpt>
      <trkpt lat="45.69654" lon="-1.15799">
        <ele>4.6</ele>
        <time>2021-09-25T11:33:13.000Z</time>
      </trkpt>
      <trkpt lat="45.69645" lon="-1.15799">
        <ele>4.3</ele>
        <time>2021-09-25T11:33:06.000Z</time>
      </trkpt>
      <trkpt lat="45.69635" lon="-1.15799">
        <ele>4.4</ele>
        <time>2021-09-25T11:32:59.000Z</time>
      </trkpt>
      <trkpt lat="45.69625" lon="-1.15801">
        <ele>4.8</ele>
        <time>2021-09-25T11:32:52.000Z</time>
      </trkpt>
      <trkpt lat="45.69615" lon="-1.15807">
        <ele>5.4</ele>
        <time>2021-09-25T11:32:45.000Z</time>
      </trkpt>
      <trkpt lat="45.69606" lon="-1.15812">
        <ele>6.8</ele>
        <time>2021-09-25T11:32:38.000Z</time>
      </trkpt>
      <trkpt lat="45.69595" lon="-1.15816">
        <ele>7.1</ele>
        <time>2021-09-25T11:32:31.000Z</time>
      </trkpt>
      <trkpt lat="45.69585" lon="-1.15817">
        <ele>7.2</ele>
        <time>2021-09-25T11:32:25.000Z</time>
      </trkpt>
      <trkpt lat="45.69576" lon="-1.15821">
        <ele>7.2</ele>
        <time>2021-09-25T11:32:17.000Z</time>
      </trkpt>
      <trkpt lat="45.69566" lon="-1.15822">
        <ele>7</ele>
        <time>2021-09-25T11:32:10.000Z</time>
      </trkpt>
      <trkpt lat="45.69557" lon="-1.15818">
        <ele>6.7</ele>
        <time>2021-09-25T11:32:03.000Z</time>
      </trkpt>
      <trkpt lat="45.69547" lon="-1.15813">
        <ele>6.6</ele>
        <time>2021-09-25T11:31:57.000Z</time>
      </trkpt>
      <trkpt lat="45.69539" lon="-1.15806">
        <ele>6.5</ele>
        <time>2021-09-25T11:31:50.000Z</time>
      </trkpt>
      <trkpt lat="45.69531" lon="-1.15799">
        <ele>5.8</ele>
        <time>2021-09-25T11:31:41.000Z</time>
      </trkpt>
      <trkpt lat="45.69524" lon="-1.15791">
        <ele>5.8</ele>
        <time>2021-09-25T11:31:34.000Z</time>
      </trkpt>
      <trkpt lat="45.69516" lon="-1.15785">
        <ele>5.7</ele>
        <time>2021-09-25T11:31:27.000Z</time>
      </trkpt>
      <trkpt lat="45.69506" lon="-1.15779">
        <ele>5.4</ele>
        <time>2021-09-25T11:31:20.000Z</time>
      </trkpt>
      <trkpt lat="45.69498" lon="-1.15771">
        <ele>5</ele>
        <time>2021-09-25T11:31:12.000Z</time>
      </trkpt>
      <trkpt lat="45.69488" lon="-1.15767">
        <ele>4.9</ele>
        <time>2021-09-25T11:31:06.000Z</time>
      </trkpt>
      <trkpt lat="45.69479" lon="-1.15761">
        <ele>4.9</ele>
        <time>2021-09-25T11:30:58.000Z</time>
      </trkpt>
      <trkpt lat="45.69471" lon="-1.15754">
        <ele>5.3</ele>
        <time>2021-09-25T11:30:51.000Z</time>
      </trkpt>
      <trkpt lat="45.69462" lon="-1.15748">
        <ele>5.2</ele>
        <time>2021-09-25T11:30:44.000Z</time>
      </trkpt>
      <trkpt lat="45.69453" lon="-1.15744">
        <ele>5</ele>
        <time>2021-09-25T11:30:38.000Z</time>
      </trkpt>
      <trkpt lat="45.69444" lon="-1.15738">
        <ele>4.7</ele>
        <time>2021-09-25T11:30:31.000Z</time>
      </trkpt>
      <trkpt lat="45.69399" lon="-1.15741">
        <ele>6.2</ele>
      </trkpt>
      <trkpt lat="45.6936" lon="-1.15775">
        <ele>6</ele>
      </trkpt>
      <trkpt lat="45.69384" lon="-1.15487">
        <ele>8.5</ele>
      </trkpt>
      <trkpt lat="45.69294" lon="-1.15397">
        <ele>18.7</ele>
      </trkpt>
      <trkpt lat="45.68791" lon="-1.155">
        <ele>6.5</ele>
      </trkpt>
      <trkpt lat="45.6874" lon="-1.15608">
        <ele>7.1</ele>
      </trkpt>
      <trkpt lat="45.6872" lon="-1.15652">
        <ele>7.2</ele>
      </trkpt>
      <trkpt lat="45.68705" lon="-1.15725">
        <ele>7.8</ele>
      </trkpt>
      <trkpt lat="45.68714" lon="-1.15858">
        <ele>8.8</ele>
      </trkpt>
      <trkpt lat="45.68723" lon="-1.15918">
        <ele>5.9</ele>
      </trkpt>
      <trkpt lat="45.68705" lon="-1.15991">
        <ele>5.4</ele>
      </trkpt>
      <trkpt lat="45.68657" lon="-1.1603">
        <ele>5.3</ele>
      </trkpt>
      <trkpt lat="45.68645" lon="-1.16047">
        <ele>5.3</ele>
      </trkpt>
      <trkpt lat="45.68639" lon="-1.16103">
        <ele>5</ele>
      </trkpt>
      <trkpt lat="45.68651" lon="-1.16219">
        <ele>5.6</ele>
      </trkpt>
      <trkpt lat="45.68642" lon="-1.16218">
        <ele>5.9</ele>
      </trkpt>
    </trkseg>
  </trk>
</gpx>